PWSweather.com
Personal Weather Stations
Station Observations
TMASSANO
Herbertsville, Brick, NJ 08724

HerbertsvilleBrick, NJ 08724

Lat: 40.098, Lon: -74.096

Elevation: 16

Station Type: WS 2800

Latest ConditionsUpdated 8:35:51 PM EDT Monday, Jul 25, 2016
Currently Today's Max Today's Min Today's Average
Temperature 72.3°F22.4°C 101.7°F38.7°C 71.7°F22.1°C 82.1°F27.8°C
Dew Point 70.8°F21.6°C 84.7°F29.3°C 65.8°F18.8°C 74.3°F23.5°C
Winds Calm Calm 19.1 mph SW30.7 kmh SW - 1.4 mph 2.3 kmh
Wind Gusts -- 19.1 mph30.7 kmh - -
Humidity 95% 95% 48% 79%
Pressure 29.94 in1013.9 mb 30.00 in1015.9 mb 29.82 in1009.8 mb -
Precipitation - 1.97 in50.0 mm - -
Hour Temp Dew Point Humidity Winds Wind Gusts Pressure Precip Precip Rate Daily Precip Total
08:35 PM 72.3°F22.4°C 70.8°F21.6°C 95% Calm Calm -- 29.94 in1013.9 mb 0.27 in6.9 mm 0.00 in0.0 mm 1.97 in50.0 mm
08:34 PM 72.3°F22.4°C 70.8°F21.6°C 95% Calm Calm -- 29.94 in1013.9 mb 0.28 in7.1 mm 0.00 in0.0 mm 1.97 in50.0 mm
08:33 PM 72.3°F22.4°C 70.8°F21.6°C 95% Calm Calm -- 29.94 in1013.9 mb 0.30 in7.6 mm 0.00 in0.0 mm 1.97 in50.0 mm
08:32 PM 72.3°F22.4°C 70.8°F21.6°C 95% Calm Calm -- 29.94 in1013.9 mb 0.33 in8.4 mm 0.00 in0.0 mm 1.96 in49.8 mm
08:31 PM 72.3°F22.4°C 70.8°F21.6°C 95% Calm Calm -- 29.94 in1013.9 mb 0.34 in8.6 mm 0.00 in0.0 mm 1.96 in49.8 mm
08:30 PM 72.1°F22.3°C 70.6°F21.4°C 95% Calm Calm 2.7 mph4.3 kmh 29.94 in1013.9 mb 0.34 in8.6 mm 0.00 in0.0 mm 1.96 in49.8 mm
08:29 PM 72.1°F22.3°C 70.6°F21.4°C 95% Calm Calm 2.7 mph4.3 kmh 29.94 in1013.9 mb 0.34 in8.6 mm 0.00 in0.0 mm 1.96 in49.8 mm
08:28 PM 72.1°F22.3°C 70.6°F21.4°C 95% Calm Calm 2.7 mph4.3 kmh 29.94 in1013.9 mb 0.34 in8.6 mm 0.00 in0.0 mm 1.96 in49.8 mm
08:27 PM 72.1°F22.3°C 70.6°F21.4°C 95% Calm Calm 2.7 mph4.3 kmh 29.94 in1013.9 mb 0.34 in8.6 mm 0.00 in0.0 mm 1.95 in49.5 mm
08:26 PM 72.0°F22.2°C 70.5°F21.4°C 95% Calm Calm 2.7 mph4.3 kmh 29.93 in1013.5 mb 0.34 in8.6 mm 0.00 in0.0 mm 1.94 in49.3 mm
08:25 PM 72.0°F22.2°C 70.5°F21.4°C 95% Calm Calm 2.7 mph4.3 kmh 29.93 in1013.5 mb 0.34 in8.6 mm 0.00 in0.0 mm 1.94 in49.3 mm
08:24 PM 72.0°F22.2°C 70.5°F21.4°C 95% Calm Calm 2.7 mph4.3 kmh 29.93 in1013.5 mb 0.34 in8.6 mm 0.00 in0.0 mm 1.94 in49.3 mm
08:23 PM 72.0°F22.2°C 70.2°F21.2°C 94% Calm Calm 2.7 mph4.3 kmh 29.93 in1013.5 mb 0.34 in8.6 mm 0.00 in0.0 mm 1.94 in49.3 mm
08:22 PM 72.0°F22.2°C 70.2°F21.2°C 94% Calm Calm 2.7 mph4.3 kmh 29.93 in1013.5 mb 0.34 in8.6 mm 0.00 in0.0 mm 1.94 in49.3 mm
08:21 PM 72.0°F22.2°C 70.2°F21.2°C 94% Calm Calm 2.7 mph4.3 kmh 29.93 in1013.5 mb 0.34 in8.6 mm 0.00 in0.0 mm 1.94 in49.3 mm
08:20 PM 72.0°F22.2°C 70.2°F21.2°C 94% Calm Calm 3.7 mph6.0 kmh 29.93 in1013.5 mb 0.34 in8.6 mm 0.00 in0.0 mm 1.94 in49.3 mm
08:19 PM 72.0°F22.2°C 70.2°F21.2°C 94% Calm Calm 3.7 mph6.0 kmh 29.93 in1013.5 mb 0.34 in8.6 mm 0.00 in0.0 mm 1.94 in49.3 mm
08:18 PM 72.0°F22.2°C 70.2°F21.2°C 94% Calm Calm 3.7 mph6.0 kmh 29.93 in1013.5 mb 0.34 in8.6 mm 0.00 in0.0 mm 1.94 in49.3 mm
08:17 PM 72.0°F22.2°C 70.2°F21.2°C 94% Calm Calm 3.7 mph6.0 kmh 29.93 in1013.5 mb 0.34 in8.6 mm 0.00 in0.0 mm 1.94 in49.3 mm
08:16 PM 72.0°F22.2°C 70.2°F21.2°C 94% Calm Calm 3.7 mph6.0 kmh 29.93 in1013.5 mb 0.34 in8.6 mm 0.00 in0.0 mm 1.94 in49.3 mm
08:15 PM 72.0°F22.2°C 70.2°F21.2°C 94% Calm Calm 3.7 mph6.0 kmh 29.93 in1013.5 mb 0.34 in8.6 mm 0.00 in0.0 mm 1.94 in49.3 mm
08:14 PM 72.0°F22.2°C 70.2°F21.2°C 94% Calm Calm 3.7 mph6.0 kmh 29.93 in1013.5 mb 0.34 in8.6 mm 0.00 in0.0 mm 1.94 in49.3 mm
08:13 PM 72.0°F22.2°C 70.2°F21.2°C 94% Calm Calm 3.7 mph6.0 kmh 29.94 in1013.9 mb 0.34 in8.6 mm 0.00 in0.0 mm 1.94 in49.3 mm
08:12 PM 72.0°F22.2°C 70.2°F21.2°C 94% Calm Calm 3.7 mph6.0 kmh 29.94 in1013.9 mb 0.34 in8.6 mm 0.00 in0.0 mm 1.94 in49.3 mm
08:11 PM 72.0°F22.2°C 70.2°F21.2°C 94% Calm Calm 3.7 mph6.0 kmh 29.94 in1013.9 mb 0.34 in8.6 mm 0.00 in0.0 mm 1.94 in49.3 mm
08:10 PM 72.0°F22.2°C 70.2°F21.2°C 94% 3.7 mph E6.0 kmh E 3.7 mph6.0 kmh 29.94 in1013.9 mb 0.34 in8.6 mm 0.60 in15.2 mm 1.94 in49.3 mm
08:09 PM 72.0°F22.2°C 70.2°F21.2°C 94% Calm Calm 2.7 mph4.3 kmh 29.94 in1013.9 mb 0.33 in8.4 mm 0.00 in0.0 mm 1.93 in49.0 mm
08:08 PM 72.0°F22.2°C 70.2°F21.2°C 94% Calm Calm 2.7 mph4.3 kmh 29.94 in1013.9 mb 0.33 in8.4 mm 0.00 in0.0 mm 1.93 in49.0 mm
08:07 PM 72.0°F22.2°C 70.2°F21.2°C 94% Calm Calm 2.7 mph4.3 kmh 29.94 in1013.9 mb 0.33 in8.4 mm 0.00 in0.0 mm 1.93 in49.0 mm
08:06 PM 72.0°F22.2°C 70.2°F21.2°C 94% Calm Calm 3.2 mph5.1 kmh 29.94 in1013.9 mb 0.33 in8.4 mm 0.00 in0.0 mm 1.93 in49.0 mm
08:05 PM 72.0°F22.2°C 70.2°F21.2°C 94% Calm Calm 3.2 mph5.1 kmh 29.94 in1013.9 mb 0.33 in8.4 mm 0.60 in15.2 mm 1.93 in49.0 mm
08:04 PM 71.8°F22.1°C 70.0°F21.1°C 94% 1.1 mph N1.8 kmh N 3.7 mph6.0 kmh 29.94 in1013.9 mb 0.32 in8.1 mm 0.00 in0.0 mm 1.92 in48.8 mm
08:03 PM 72.0°F22.2°C 70.2°F21.2°C 94% Calm Calm 3.7 mph6.0 kmh 29.94 in1013.9 mb 0.32 in8.1 mm 0.00 in0.0 mm 1.92 in48.8 mm
08:02 PM 72.0°F22.2°C 70.2°F21.2°C 94% 1.7 mph NE2.7 kmh NE 5.8 mph9.3 kmh 29.93 in1013.5 mb 0.33 in8.4 mm 0.00 in0.0 mm 1.92 in48.8 mm
08:01 PM 72.0°F22.2°C 70.2°F21.2°C 94% 1.7 mph NE2.7 kmh NE 5.8 mph9.3 kmh 29.93 in1013.5 mb 0.33 in8.4 mm 0.00 in0.0 mm 1.92 in48.8 mm
08:00 PM 72.0°F22.2°C 70.2°F21.2°C 94% Calm Calm 7.3 mph11.7 kmh 29.93 in1013.5 mb 0.35 in8.9 mm 0.00 in0.0 mm 1.92 in48.8 mm
07:59 PM 72.0°F22.2°C 70.2°F21.2°C 94% Calm Calm 7.3 mph11.7 kmh 29.93 in1013.5 mb 0.40 in10.2 mm 0.00 in0.0 mm 1.92 in48.8 mm
07:58 PM 72.0°F22.2°C 69.9°F21.1°C 93% Calm Calm 7.3 mph11.7 kmh 29.93 in1013.5 mb 0.45 in11.4 mm 0.00 in0.0 mm 1.92 in48.8 mm
07:57 PM 72.0°F22.2°C 69.9°F21.1°C 93% 1.7 mph N2.7 kmh N 7.3 mph11.7 kmh 29.93 in1013.5 mb 0.47 in11.9 mm 0.00 in0.0 mm 1.92 in48.8 mm
07:56 PM 72.0°F22.2°C 69.9°F21.1°C 93% 2.2 mph NNE3.5 kmh NNE 7.3 mph11.7 kmh 29.93 in1013.5 mb 0.50 in12.7 mm 0.00 in0.0 mm 1.92 in48.8 mm
07:55 PM 72.0°F22.2°C 69.9°F21.1°C 93% 2.7 mph NNE4.3 kmh NNE 7.3 mph11.7 kmh 29.93 in1013.5 mb 0.50 in12.7 mm 0.00 in0.0 mm 1.91 in48.5 mm
07:54 PM 72.0°F22.2°C 69.9°F21.1°C 93% 2.2 mph E3.5 kmh E 7.3 mph11.7 kmh 29.93 in1013.5 mb 0.50 in12.7 mm 0.00 in0.0 mm 1.91 in48.5 mm
07:53 PM 72.0°F22.2°C 69.9°F21.1°C 93% 1.7 mph N2.7 kmh N 7.3 mph11.7 kmh 29.93 in1013.5 mb 0.51 in13.0 mm 0.00 in0.0 mm 1.91 in48.5 mm
07:52 PM 72.0°F22.2°C 69.9°F21.1°C 93% 5.8 mph ENE9.3 kmh ENE 7.3 mph11.7 kmh 29.93 in1013.5 mb 0.53 in13.5 mm 0.00 in0.0 mm 1.91 in48.5 mm
07:51 PM 72.0°F22.2°C 69.9°F21.1°C 93% 3.2 mph NE5.1 kmh NE 7.3 mph11.7 kmh 29.93 in1013.5 mb 0.59 in15.0 mm 0.60 in15.2 mm 1.90 in48.3 mm
07:50 PM 72.0°F22.2°C 69.9°F21.1°C 93% 7.3 mph ESE11.7 kmh ESE 7.3 mph11.7 kmh 29.93 in1013.5 mb 0.58 in14.7 mm 0.00 in0.0 mm 1.89 in48.0 mm
07:49 PM 72.1°F22.3°C 70.0°F21.1°C 93% 3.7 mph NE6.0 kmh NE 9.4 mph15.1 kmh 29.93 in1013.5 mb 0.59 in15.0 mm 0.00 in0.0 mm 1.88 in47.8 mm
07:48 PM 72.1°F22.3°C 70.0°F21.1°C 93% 5.3 mph ENE8.5 kmh ENE 9.4 mph15.1 kmh 29.93 in1013.5 mb 0.62 in15.7 mm 0.00 in0.0 mm 1.85 in47.0 mm
07:47 PM 72.1°F22.3°C 70.0°F21.1°C 93% 4.2 mph ESE6.8 kmh ESE 9.4 mph15.1 kmh 29.93 in1013.5 mb 0.64 in16.3 mm 0.00 in0.0 mm 1.83 in46.5 mm
07:46 PM 72.3°F22.4°C 70.2°F21.2°C 93% 3.2 mph ESE5.1 kmh ESE 9.4 mph15.1 kmh 29.93 in1013.5 mb 0.64 in16.3 mm 0.00 in0.0 mm 1.82 in46.2 mm
07:45 PM 72.3°F22.4°C 70.2°F21.2°C 93% 2.7 mph SSE4.3 kmh SSE 9.4 mph15.1 kmh 29.93 in1013.5 mb 0.64 in16.3 mm 0.00 in0.0 mm 1.80 in45.7 mm
07:44 PM 72.3°F22.4°C 70.2°F21.2°C 93% 2.7 mph ENE4.3 kmh ENE 9.4 mph15.1 kmh 29.93 in1013.5 mb 0.66 in16.8 mm 0.00 in0.0 mm 1.78 in45.2 mm
07:43 PM 72.3°F22.4°C 70.2°F21.2°C 93% 3.2 mph ESE5.1 kmh ESE 9.4 mph15.1 kmh 29.93 in1013.5 mb 0.68 in17.3 mm 0.60 in15.2 mm 1.78 in45.2 mm
07:42 PM 72.5°F22.5°C 70.4°F21.3°C 93% 4.2 mph NE6.8 kmh NE 9.4 mph15.1 kmh 29.93 in1013.5 mb 0.67 in17.0 mm 0.00 in0.0 mm 1.77 in45.0 mm
07:41 PM 72.5°F22.5°C 70.4°F21.3°C 93% 2.7 mph E4.3 kmh E 9.4 mph15.1 kmh 29.93 in1013.5 mb 0.69 in17.5 mm 0.00 in0.0 mm 1.77 in45.0 mm
07:40 PM 72.5°F22.5°C 70.4°F21.3°C 93% 5.3 mph NNE8.5 kmh NNE 9.4 mph15.1 kmh 29.93 in1013.5 mb 0.72 in18.3 mm 0.60 in15.2 mm 1.76 in44.7 mm
07:39 PM 72.5°F22.5°C 70.4°F21.3°C 93% 9.4 mph N15.1 kmh N 9.4 mph15.1 kmh 29.93 in1013.5 mb 0.71 in18.0 mm 0.00 in0.0 mm 1.75 in44.5 mm
07:38 PM 72.9°F22.7°C 70.8°F21.6°C 93% 3.7 mph ENE6.0 kmh ENE 7.8 mph12.6 kmh 29.93 in1013.5 mb 0.73 in18.5 mm 0.00 in0.0 mm 1.74 in44.2 mm
07:37 PM 72.9°F22.7°C 70.8°F21.6°C 93% 5.3 mph NE8.5 kmh NE 6.3 mph10.1 kmh 29.91 in1012.9 mb 0.73 in18.5 mm 0.00 in0.0 mm 1.73 in43.9 mm
07:36 PM 73.0°F22.8°C 70.9°F21.6°C 93% 2.2 mph S3.5 kmh S 6.3 mph10.1 kmh 29.91 in1012.9 mb 0.73 in18.5 mm 1.20 in30.5 mm 1.72 in43.7 mm
07:35 PM 73.2°F22.9°C 71.0°F21.7°C 93% 3.7 mph NE6.0 kmh NE 6.3 mph10.1 kmh 29.91 in1012.9 mb 0.71 in18.0 mm 0.60 in15.2 mm 1.70 in43.2 mm
07:34 PM 73.2°F22.9°C 71.0°F21.7°C 93% 1.1 mph SSE1.8 kmh SSE 6.3 mph10.1 kmh 29.91 in1012.9 mb 0.70 in17.8 mm 0.60 in15.2 mm 1.69 in42.9 mm
07:33 PM 73.2°F22.9°C 70.7°F21.5°C 92% 3.7 mph S6.0 kmh S 6.3 mph10.1 kmh 29.91 in1012.9 mb 0.69 in17.5 mm 3.00 in76.2 mm 1.68 in42.7 mm
07:32 PM 73.2°F22.9°C 70.7°F21.5°C 92% 4.7 mph ESE7.6 kmh ESE 14.5 mph23.3 kmh 29.91 in1012.9 mb 0.64 in16.3 mm 0.60 in15.2 mm 1.63 in41.4 mm
07:31 PM 73.2°F22.9°C 70.7°F21.5°C 92% 4.2 mph ENE6.8 kmh ENE 14.5 mph23.3 kmh 29.91 in1012.9 mb 0.63 in16.0 mm 0.00 in0.0 mm 1.62 in41.1 mm
07:30 PM 73.2°F22.9°C 70.7°F21.5°C 92% 2.7 mph NNW4.3 kmh NNW 14.5 mph23.3 kmh 29.91 in1012.9 mb 0.63 in16.0 mm 0.00 in0.0 mm 1.62 in41.1 mm
07:29 PM 73.2°F22.9°C 70.7°F21.5°C 92% 3.7 mph NE6.0 kmh NE 14.5 mph23.3 kmh 29.91 in1012.9 mb 0.64 in16.3 mm 0.00 in0.0 mm 1.62 in41.1 mm
07:28 PM 73.2°F22.9°C 70.7°F21.5°C 92% 5.8 mph NNW9.3 kmh NNW 18.6 mph29.9 kmh 29.91 in1012.9 mb 0.64 in16.3 mm 0.60 in15.2 mm 1.62 in41.1 mm
07:27 PM 73.2°F22.9°C 70.7°F21.5°C 92% 4.2 mph NNW6.8 kmh NNW 18.6 mph29.9 kmh 29.88 in1011.9 mb 0.63 in16.0 mm 0.60 in15.2 mm 1.61 in40.9 mm
07:26 PM 73.2°F22.9°C 70.7°F21.5°C 92% 3.7 mph NW6.0 kmh NW 18.6 mph29.9 kmh 29.88 in1011.9 mb 0.62 in15.7 mm 0.00 in0.0 mm 1.60 in40.6 mm
07:25 PM 73.4°F23.0°C 70.9°F21.6°C 92% 5.3 mph NNW8.5 kmh NNW 18.6 mph29.9 kmh 29.88 in1011.9 mb 0.63 in16.0 mm 0.00 in0.0 mm 1.60 in40.6 mm
07:24 PM 73.4°F23.0°C 70.9°F21.6°C 92% 2.2 mph N3.5 kmh N 18.6 mph29.9 kmh 29.88 in1011.9 mb 0.63 in16.0 mm 0.00 in0.0 mm 1.60 in40.6 mm
07:23 PM 73.6°F23.1°C 71.1°F21.7°C 92% 4.2 mph NNE6.8 kmh NNE 18.6 mph29.9 kmh 29.88 in1011.9 mb 0.63 in16.0 mm 0.00 in0.0 mm 1.60 in40.6 mm
07:22 PM 73.6°F23.1°C 71.1°F21.7°C 92% 14.5 mph NNE23.3 kmh NNE 18.6 mph29.9 kmh 29.88 in1011.9 mb 0.63 in16.0 mm 0.00 in0.0 mm 1.60 in40.6 mm
07:21 PM 73.6°F23.1°C 71.1°F21.7°C 92% 6.3 mph NNE10.1 kmh NNE 18.6 mph29.9 kmh 29.88 in1011.9 mb 0.63 in16.0 mm 0.00 in0.0 mm 1.60 in40.6 mm
07:20 PM 73.8°F23.2°C 71.3°F21.8°C 92% 9.9 mph ENE15.9 kmh ENE 18.6 mph29.9 kmh 29.88 in1011.9 mb 0.63 in16.0 mm 0.00 in0.0 mm 1.60 in40.6 mm
07:19 PM 73.9°F23.3°C 71.4°F21.9°C 92% 10.4 mph SE16.7 kmh SE 18.6 mph29.9 kmh 29.88 in1011.9 mb 0.63 in16.0 mm 0.00 in0.0 mm 1.60 in40.6 mm
07:18 PM 74.3°F23.5°C 71.8°F22.1°C 92% 10.4 mph SE16.7 kmh SE 15.0 mph24.1 kmh 29.88 in1011.9 mb 0.63 in16.0 mm 0.00 in0.0 mm 1.60 in40.6 mm
07:17 PM 74.3°F23.5°C 71.8°F22.1°C 92% 5.8 mph NNE9.3 kmh NNE 15.0 mph24.1 kmh 29.88 in1011.9 mb 0.63 in16.0 mm 0.00 in0.0 mm 1.60 in40.6 mm
07:16 PM 74.5°F23.6°C 72.0°F22.2°C 92% 8.9 mph ESE14.3 kmh ESE 15.0 mph24.1 kmh 29.88 in1011.9 mb 0.63 in16.0 mm 0.00 in0.0 mm 1.60 in40.6 mm
07:15 PM 74.7°F23.7°C 72.5°F22.5°C 93% 8.3 mph E13.4 kmh E 15.0 mph24.1 kmh 29.88 in1011.9 mb 0.63 in16.0 mm 0.00 in0.0 mm 1.60 in40.6 mm
07:14 PM 74.7°F23.7°C 72.5°F22.5°C 93% 9.9 mph NNE15.9 kmh NNE 12.5 mph20.1 kmh 29.88 in1011.9 mb 0.63 in16.0 mm 0.00 in0.0 mm 1.60 in40.6 mm
07:13 PM 74.8°F23.8°C 72.6°F22.6°C 93% 6.3 mph ENE10.1 kmh ENE 11.4 mph18.3 kmh 29.88 in1011.9 mb 0.63 in16.0 mm 0.00 in0.0 mm 1.60 in40.6 mm
07:12 PM 74.8°F23.8°C 72.6°F22.6°C 93% 6.3 mph NE10.1 kmh NE 11.4 mph18.3 kmh 29.88 in1011.9 mb 0.63 in16.0 mm 0.00 in0.0 mm 1.60 in40.6 mm
07:11 PM 74.8°F23.8°C 72.6°F22.6°C 93% 11.4 mph ENE18.3 kmh ENE 11.4 mph18.3 kmh 29.88 in1011.9 mb 0.63 in16.0 mm 0.00 in0.0 mm 1.60 in40.6 mm
07:10 PM 74.8°F23.8°C 72.6°F22.6°C 93% 6.8 mph ESE10.9 kmh ESE 9.4 mph15.1 kmh 29.88 in1011.9 mb 0.63 in16.0 mm 0.00 in0.0 mm 1.60 in40.6 mm
07:09 PM 74.8°F23.8°C 72.6°F22.6°C 93% 5.3 mph NE8.5 kmh NE 7.3 mph11.7 kmh 29.88 in1011.9 mb 0.63 in16.0 mm 0.00 in0.0 mm 1.60 in40.6 mm
07:08 PM 74.8°F23.8°C 72.6°F22.6°C 93% 6.8 mph ENE10.9 kmh ENE 7.3 mph11.7 kmh 29.88 in1011.9 mb 0.63 in16.0 mm 0.00 in0.0 mm 1.60 in40.6 mm
07:07 PM 74.8°F23.8°C 72.6°F22.6°C 93% 3.7 mph ESE6.0 kmh ESE 5.8 mph9.3 kmh 29.88 in1011.9 mb 0.63 in16.0 mm 0.00 in0.0 mm 1.60 in40.6 mm
07:06 PM 74.8°F23.8°C 72.6°F22.6°C 93% 3.2 mph E5.1 kmh E 5.8 mph9.3 kmh 29.88 in1011.9 mb 0.63 in16.0 mm 0.00 in0.0 mm 1.60 in40.6 mm
07:05 PM 74.8°F23.8°C 72.6°F22.6°C 93% 4.7 mph ESE7.6 kmh ESE 6.3 mph10.1 kmh 29.88 in1011.9 mb 0.63 in16.0 mm 0.00 in0.0 mm 1.60 in40.6 mm
07:04 PM 74.8°F23.8°C 72.6°F22.6°C 93% 3.7 mph E6.0 kmh E 6.3 mph10.1 kmh 29.88 in1011.9 mb 0.63 in16.0 mm 0.00 in0.0 mm 1.60 in40.6 mm
07:03 PM 74.8°F23.8°C 72.6°F22.6°C 93% 3.2 mph ENE5.1 kmh ENE 6.3 mph10.1 kmh 29.88 in1011.9 mb 0.63 in16.0 mm 0.60 in15.2 mm 1.60 in40.6 mm
07:02 PM 74.7°F23.7°C 72.5°F22.5°C 93% 3.7 mph NNE6.0 kmh NNE 6.3 mph10.1 kmh 29.88 in1011.9 mb 0.62 in15.7 mm 0.00 in0.0 mm 1.59 in40.4 mm
07:01 PM 74.7°F23.7°C 72.5°F22.5°C 93% 2.2 mph NNE3.5 kmh NNE 6.3 mph10.1 kmh 29.88 in1011.9 mb 0.62 in15.7 mm 1.20 in30.5 mm 1.59 in40.4 mm
07:00 PM 74.7°F23.7°C 72.5°F22.5°C 93% 1.7 mph SSE2.7 kmh SSE 10.9 mph17.5 kmh 29.88 in1011.9 mb 0.60 in15.2 mm 0.03 in0.8 mm 1.57 in39.9 mm
06:59 PM 74.7°F23.7°C 72.5°F22.5°C 93% 5.8 mph ESE9.3 kmh ESE 10.9 mph17.5 kmh 29.88 in1011.9 mb 0.57 in14.5 mm 3.00 in76.2 mm 1.54 in39.1 mm
06:58 PM 74.7°F23.7°C 72.5°F22.5°C 93% 3.7 mph S6.0 kmh S 10.9 mph17.5 kmh 29.88 in1011.9 mb 0.52 in13.2 mm 2.40 in61.0 mm 1.49 in37.8 mm
06:57 PM 74.7°F23.7°C 72.2°F22.3°C 92% 2.7 mph ESE4.3 kmh ESE 10.9 mph17.5 kmh 29.88 in1011.9 mb 0.48 in12.2 mm 0.60 in15.2 mm 1.45 in36.8 mm
06:56 PM 74.7°F23.7°C 72.2°F22.3°C 92% 2.7 mph N4.3 kmh N 10.9 mph17.5 kmh 29.88 in1011.9 mb 0.47 in11.9 mm 1.80 in45.7 mm 1.44 in36.6 mm
06:55 PM 74.8°F23.8°C 72.3°F22.4°C 92% 5.3 mph NW8.5 kmh NW 10.9 mph17.5 kmh 29.88 in1011.9 mb 0.44 in11.2 mm 0.00 in0.0 mm 1.41 in35.8 mm
06:54 PM 74.8°F23.8°C 72.3°F22.4°C 92% 2.7 mph NW4.3 kmh NW 10.9 mph17.5 kmh 29.88 in1011.9 mb 0.44 in11.2 mm 0.60 in15.2 mm 1.41 in35.8 mm
06:53 PM 74.8°F23.8°C 72.3°F22.4°C 92% 3.7 mph NNE6.0 kmh NNE 10.9 mph17.5 kmh 29.88 in1011.9 mb 0.43 in10.9 mm 1.20 in30.5 mm 1.40 in35.6 mm
06:52 PM 74.8°F23.8°C 72.0°F22.2°C 91% 4.7 mph WNW7.6 kmh WNW 15.0 mph24.1 kmh 29.88 in1011.9 mb 0.41 in10.4 mm 4.20 in106.7 mm 1.38 in35.1 mm
06:51 PM 74.8°F23.8°C 72.0°F22.2°C 91% 4.7 mph N7.6 kmh N 15.0 mph24.1 kmh 29.88 in1011.9 mb 0.34 in8.6 mm 0.00 in0.0 mm 1.31 in33.3 mm
06:50 PM 75.0°F23.9°C 72.2°F22.3°C 91% 9.9 mph E15.9 kmh E 15.0 mph24.1 kmh 29.88 in1011.9 mb 0.34 in8.6 mm 1.20 in30.5 mm 1.31 in33.3 mm
06:49 PM 75.0°F23.9°C 72.2°F22.3°C 91% 7.8 mph NNW12.6 kmh NNW 15.0 mph24.1 kmh 29.86 in1011.2 mb 0.32 in8.1 mm 3.60 in91.4 mm 1.29 in32.8 mm
06:48 PM 75.4°F24.1°C 72.6°F22.6°C 91% 6.3 mph W10.1 kmh W 15.0 mph24.1 kmh 29.86 in1011.2 mb 0.26 in6.6 mm 2.40 in61.0 mm 1.23 in31.2 mm
06:47 PM 75.4°F24.1°C 72.6°F22.6°C 91% 6.8 mph W10.9 kmh W 15.0 mph24.1 kmh 29.86 in1011.2 mb 0.22 in5.6 mm 0.00 in0.0 mm 1.19 in30.2 mm
06:46 PM 75.4°F24.1°C 72.3°F22.4°C 90% 6.8 mph W10.9 kmh W 15.0 mph24.1 kmh 29.86 in1011.2 mb 0.22 in5.6 mm 1.80 in45.7 mm 1.19 in30.2 mm
06:45 PM 75.7°F24.3°C 72.2°F22.3°C 89% 5.3 mph NNE8.5 kmh NNE 15.0 mph24.1 kmh 29.86 in1011.2 mb 0.19 in4.8 mm 2.40 in61.0 mm 1.16 in29.5 mm
06:44 PM 75.7°F24.3°C 72.2°F22.3°C 89% 9.9 mph NNW15.9 kmh NNW 15.0 mph24.1 kmh 29.86 in1011.2 mb 0.15 in3.8 mm 0.60 in15.2 mm 1.12 in28.4 mm
06:43 PM 75.9°F24.4°C 72.1°F22.3°C 88% 5.8 mph WNW9.3 kmh WNW 15.0 mph24.1 kmh 29.86 in1011.2 mb 0.14 in3.6 mm 0.60 in15.2 mm 1.11 in28.2 mm
06:42 PM 76.3°F24.6°C 72.5°F22.5°C 88% 7.3 mph NW11.7 kmh NW 10.4 mph16.7 kmh 29.86 in1011.2 mb 0.13 in3.3 mm 1.20 in30.5 mm 1.10 in27.9 mm
06:41 PM 76.8°F24.9°C 72.6°F22.6°C 87% 5.8 mph WNW9.3 kmh WNW 9.4 mph15.1 kmh 29.86 in1011.2 mb 0.11 in2.8 mm 2.40 in61.0 mm 1.08 in27.4 mm
06:40 PM 77.4°F25.2°C 72.9°F22.7°C 86% 5.8 mph N9.3 kmh N 9.4 mph15.1 kmh 29.86 in1011.2 mb 0.07 in1.8 mm 1.20 in30.5 mm 1.04 in26.4 mm
06:39 PM 77.5°F25.3°C 73.0°F22.8°C 86% 2.2 mph NNW3.5 kmh NNW 10.4 mph16.7 kmh 29.86 in1011.2 mb 0.05 in1.3 mm 0.60 in15.2 mm 1.02 in25.9 mm
06:38 PM 78.3°F25.7°C 73.8°F23.2°C 86% 9.4 mph WNW15.1 kmh WNW 10.4 mph16.7 kmh 29.86 in1011.2 mb 0.04 in1.0 mm 0.60 in15.2 mm 1.01 in25.7 mm
06:37 PM 78.3°F25.7°C 73.8°F23.2°C 86% 6.8 mph ENE10.9 kmh ENE 10.4 mph16.7 kmh 29.86 in1011.2 mb 0.03 in0.8 mm 0.00 in0.0 mm 1.00 in25.4 mm
06:36 PM 78.8°F26.0°C 73.9°F23.3°C 85% 7.3 mph NE11.7 kmh NE 10.4 mph16.7 kmh 29.86 in1011.2 mb 0.03 in0.8 mm 0.60 in15.2 mm 1.00 in25.4 mm
06:35 PM 79.3°F26.3°C 74.0°F23.3°C 84% 3.2 mph SSW5.1 kmh SSW 10.4 mph16.7 kmh 29.86 in1011.2 mb 0.02 in0.5 mm 0.00 in0.0 mm 0.99 in25.1 mm
06:34 PM 79.3°F26.3°C 74.0°F23.3°C 84% 1.7 mph W2.7 kmh W 10.4 mph16.7 kmh 29.86 in1011.2 mb 0.02 in0.5 mm 0.00 in0.0 mm 0.99 in25.1 mm
06:33 PM 79.5°F26.4°C 74.2°F23.4°C 84% 1.1 mph SW1.8 kmh SW 10.4 mph16.7 kmh 29.86 in1011.2 mb 0.02 in0.5 mm 0.00 in0.0 mm 0.99 in25.1 mm
06:32 PM 79.5°F26.4°C 74.2°F23.4°C 84% Calm Calm 10.4 mph16.7 kmh 29.86 in1011.2 mb 0.02 in0.5 mm 0.00 in0.0 mm 0.99 in25.1 mm
06:31 PM 79.9°F26.6°C 73.9°F23.3°C 82% 5.8 mph NW9.3 kmh NW 10.4 mph16.7 kmh 29.86 in1011.2 mb 0.02 in0.5 mm 0.00 in0.0 mm 0.99 in25.1 mm
06:30 PM 80.1°F26.7°C 74.1°F23.4°C 82% 3.2 mph NE5.1 kmh NE 11.4 mph18.3 kmh 29.86 in1011.2 mb 0.02 in0.5 mm 0.60 in15.2 mm 0.99 in25.1 mm
06:29 PM 80.6°F27.0°C 74.6°F23.7°C 82% 2.2 mph WNW3.5 kmh WNW 11.4 mph18.3 kmh 29.86 in1011.2 mb 0.01 in0.3 mm 0.00 in0.0 mm 0.98 in24.9 mm
06:28 PM 81.3°F27.4°C 74.9°F23.8°C 81% 5.8 mph NNW9.3 kmh NNW 11.4 mph18.3 kmh 29.86 in1011.2 mb 0.01 in0.3 mm 0.00 in0.0 mm 0.98 in24.9 mm
06:27 PM 81.3°F27.4°C 74.9°F23.8°C 81% 4.7 mph ESE7.6 kmh ESE 11.4 mph18.3 kmh 29.83 in1010.2 mb 0.01 in0.3 mm 0.00 in0.0 mm 0.98 in24.9 mm
06:26 PM 81.7°F27.6°C 74.9°F23.8°C 80% 5.8 mph NNW9.3 kmh NNW 11.4 mph18.3 kmh 29.83 in1010.2 mb 0.01 in0.3 mm 0.60 in15.2 mm 0.98 in24.9 mm
06:25 PM 82.4°F28.0°C 75.2°F24.0°C 79% 6.8 mph N10.9 kmh N 11.4 mph18.3 kmh 29.83 in1010.2 mb 0.00 in0.0 mm 0.00 in0.0 mm 0.97 in24.6 mm
06:24 PM 82.6°F28.1°C 75.4°F24.1°C 79% 5.8 mph WNW9.3 kmh WNW 11.4 mph18.3 kmh 29.83 in1010.2 mb 0.00 in0.0 mm 0.00 in0.0 mm 0.97 in24.6 mm
06:23 PM 84.2°F29.0°C 76.6°F24.8°C 78% 5.8 mph WNW9.3 kmh WNW 11.4 mph18.3 kmh 29.83 in1010.2 mb 0.00 in0.0 mm 0.00 in0.0 mm 0.97 in24.6 mm
06:22 PM 84.2°F29.0°C 76.6°F24.8°C 78% 9.4 mph NNW15.1 kmh NNW 11.4 mph18.3 kmh 29.83 in1010.2 mb 0.00 in0.0 mm 0.00 in0.0 mm 0.97 in24.6 mm
06:21 PM 85.5°F29.7°C 78.2°F25.7°C 79% 8.3 mph W13.4 kmh W 11.4 mph18.3 kmh 29.83 in1010.2 mb 0.00 in0.0 mm 0.00 in0.0 mm 0.97 in24.6 mm
06:20 PM 85.6°F29.8°C 78.7°F25.9°C 80% 6.3 mph NW10.1 kmh NW 8.3 mph13.4 kmh 29.83 in1010.2 mb 0.00 in0.0 mm 0.00 in0.0 mm 0.97 in24.6 mm
06:19 PM 85.8°F29.9°C 78.5°F25.8°C 79% 7.3 mph NW11.7 kmh NW 7.3 mph11.7 kmh 29.83 in1010.2 mb 0.00 in0.0 mm 0.00 in0.0 mm 0.97 in24.6 mm
06:18 PM 85.8°F29.9°C 78.5°F25.8°C 79% 1.1 mph NW1.8 kmh NW 5.3 mph8.5 kmh 29.83 in1010.2 mb 0.00 in0.0 mm 0.00 in0.0 mm 0.97 in24.6 mm
06:17 PM 85.8°F29.9°C 78.5°F25.8°C 79% 1.1 mph SE1.8 kmh SE 5.3 mph8.5 kmh 29.83 in1010.2 mb 0.00 in0.0 mm 0.00 in0.0 mm 0.97 in24.6 mm
06:16 PM 85.8°F29.9°C 78.5°F25.8°C 79% Calm Calm 5.3 mph8.5 kmh 29.83 in1010.2 mb 0.00 in0.0 mm 0.00 in0.0 mm 0.97 in24.6 mm
06:15 PM 85.8°F29.9°C 78.5°F25.8°C 79% 2.2 mph ESE3.5 kmh ESE 5.3 mph8.5 kmh 29.83 in1010.2 mb 0.00 in0.0 mm 0.00 in0.0 mm 0.97 in24.6 mm
06:14 PM 85.8°F29.9°C 78.5°F25.8°C 79% Calm Calm 5.3 mph8.5 kmh 29.82 in1009.8 mb 0.00 in0.0 mm 0.00 in0.0 mm 0.97 in24.6 mm
06:13 PM 86.0°F30.0°C 78.7°F25.9°C 79% 2.2 mph S3.5 kmh S 5.3 mph8.5 kmh 29.82 in1009.8 mb 0.00 in0.0 mm 0.00 in0.0 mm 0.97 in24.6 mm
06:12 PM 86.2°F30.1°C 78.9°F26.1°C 79% 2.7 mph SE4.3 kmh SE 3.7 mph6.0 kmh 29.82 in1009.8 mb 0.00 in0.0 mm 0.00 in0.0 mm 0.97 in24.6 mm
06:11 PM 86.4°F30.2°C 79.1°F26.2°C 79% 1.7 mph ESE2.7 kmh ESE 3.7 mph6.0 kmh 29.82 in1009.8 mb 0.00 in0.0 mm 0.00 in0.0 mm 0.97 in24.6 mm
06:10 PM 86.5°F30.3°C 79.2°F26.2°C 79% 1.7 mph SE2.7 kmh SE 3.7 mph6.0 kmh 29.82 in1009.8 mb 0.00 in0.0 mm 0.00 in0.0 mm 0.97 in24.6 mm
06:09 PM 86.5°F30.3°C 79.2°F26.2°C 79% 3.2 mph SE5.1 kmh SE 5.3 mph8.5 kmh 29.82 in1009.8 mb 0.00 in0.0 mm 0.00 in0.0 mm 0.97 in24.6 mm
06:08 PM 86.5°F30.3°C 79.2°F26.2°C 79% 1.1 mph ESE1.8 kmh ESE 5.3 mph8.5 kmh 29.82 in1009.8 mb 0.00 in0.0 mm 0.00 in0.0 mm 0.97 in24.6 mm
06:07 PM 86.5°F30.3°C 78.8°F26.0°C 78% 1.7 mph SSE2.7 kmh SSE 5.3 mph8.5 kmh 29.82 in1009.8 mb 0.00 in0.0 mm 0.00 in0.0 mm 0.97 in24.6 mm
06:06 PM 86.7°F30.4°C 79.0°F26.1°C 78% 3.2 mph SSE5.1 kmh SSE 5.3 mph8.5 kmh 29.82 in1009.8 mb 0.00 in0.0 mm 0.00 in0.0 mm 0.97 in24.6 mm
06:05 PM 86.7°F30.4°C 79.0°F26.1°C 78% Calm Calm 5.3 mph8.5 kmh 29.82 in1009.8 mb 0.00 in0.0 mm 0.00 in0.0 mm 0.97 in24.6 mm
06:04 PM 86.9°F30.5°C 79.2°F26.2°C 78% Calm Calm 5.3 mph8.5 kmh 29.82 in1009.8 mb 0.00 in0.0 mm 0.00 in0.0 mm 0.97 in24.6 mm
06:03 PM 87.1°F30.6°C 79.4°F26.3°C 78% 1.7 mph SE2.7 kmh SE 5.3 mph8.5 kmh 29.82 in1009.8 mb 0.00 in0.0 mm 0.00 in0.0 mm 0.97 in24.6 mm
06:02 PM 87.1°F30.6°C 79.4°F26.3°C 78% 2.2 mph SSW3.5 kmh SSW 5.3 mph8.5 kmh 29.82 in1009.8 mb 0.00 in0.0 mm 0.00 in0.0 mm 0.97 in24.6 mm
06:01 PM 87.3°F30.7°C 79.6°F26.4°C 78% Calm Calm 5.3 mph8.5 kmh 29.83 in1010.2 mb 0.00 in0.0 mm 0.00 in0.0 mm 0.97 in24.6 mm
06:00 PM 87.4°F30.8°C 79.3°F26.3°C 77% 2.7 mph W4.3 kmh W 5.3 mph8.5 kmh 29.83 in1010.2 mb 0.00 in0.0 mm 0.00 in0.0 mm 0.97 in24.6 mm
05:59 PM 87.6°F30.9°C 79.5°F26.4°C 77% Calm Calm 3.7 mph6.0 kmh 29.83 in1010.2 mb 0.00 in0.0 mm 0.00 in0.0 mm 0.97 in24.6 mm
05:58 PM 87.6°F30.9°C 79.5°F26.4°C 77% Calm Calm 3.7 mph6.0 kmh 29.83 in1010.2 mb 0.00 in0.0 mm 0.00 in0.0 mm 0.97 in24.6 mm
05:57 PM 87.6°F30.9°C 79.5°F26.4°C 77% Calm Calm 3.7 mph6.0 kmh 29.83 in1010.2 mb 0.00 in0.0 mm 0.00 in0.0 mm 0.97 in24.6 mm
05:56 PM 87.6°F30.9°C 79.5°F26.4°C 77% Calm Calm 3.7 mph6.0 kmh 29.83 in1010.2 mb 0.00 in0.0 mm 0.00 in0.0 mm 0.97 in24.6 mm
05:55 PM 87.8°F31.0°C 79.7°F26.5°C 77% Calm Calm 3.7 mph6.0 kmh 29.83 in1010.2 mb 0.00 in0.0 mm 0.00 in0.0 mm 0.97 in24.6 mm
05:54 PM 87.8°F31.0°C 79.7°F26.5°C 77% Calm Calm 3.7 mph6.0 kmh 29.83 in1010.2 mb 0.00 in0.0 mm 0.00 in0.0 mm 0.97 in24.6 mm
05:53 PM 87.8°F31.0°C 79.7°F26.5°C 77% Calm Calm 3.7 mph6.0 kmh 29.83 in1010.2 mb 0.00 in0.0 mm 0.00 in0.0 mm 0.97 in24.6 mm
05:52 PM 88.0°F31.1°C 79.5°F26.4°C 76% 3.7 mph SSE6.0 kmh SSE 3.7 mph6.0 kmh 29.83 in1010.2 mb 0.00 in0.0 mm 0.00 in0.0 mm 0.97 in24.6 mm
05:51 PM 88.0°F31.1°C 79.5°F26.4°C 76% 2.2 mph NNW3.5 kmh NNW 3.2 mph5.1 kmh 29.83 in1010.2 mb 0.00 in0.0 mm 0.00 in0.0 mm 0.97 in24.6 mm
05:50 PM 88.0°F31.1°C 79.5°F26.4°C 76% 2.7 mph SE4.3 kmh SE 3.2 mph5.1 kmh 29.83 in1010.2 mb 0.00 in0.0 mm 0.00 in0.0 mm 0.97 in24.6 mm
05:49 PM 88.0°F31.1°C 79.5°F26.4°C 76% 3.2 mph S5.1 kmh S 3.2 mph5.1 kmh 29.83 in1010.2 mb 0.00 in0.0 mm 0.00 in0.0 mm 0.97 in24.6 mm
05:48 PM 88.0°F31.1°C 79.5°F26.4°C 76% Calm Calm 3.2 mph5.1 kmh 29.83 in1010.2 mb 0.00 in0.0 mm 0.00 in0.0 mm 0.97 in24.6 mm
05:47 PM 88.2°F31.2°C 79.7°F26.5°C 76% Calm Calm 3.2 mph5.1 kmh 29.83 in1010.2 mb 0.00 in0.0 mm 0.00 in0.0 mm 0.97 in24.6 mm
05:46 PM 88.2°F31.2°C 79.7°F26.5°C 76% 1.7 mph SE2.7 kmh SE 3.2 mph5.1 kmh 29.83 in1010.2 mb 0.00 in0.0 mm 0.00 in0.0 mm 0.97 in24.6 mm
05:45 PM 88.2°F31.2°C 79.7°F26.5°C 76% 1.7 mph SW2.7 kmh SW 3.2 mph5.1 kmh 29.83 in1010.2 mb 0.00 in0.0 mm 0.00 in0.0 mm 0.97 in24.6 mm
05:44 PM 88.2°F31.2°C 79.7°F26.5°C 76% Calm Calm 3.2 mph5.1 kmh 29.83 in1010.2 mb 0.00 in0.0 mm 0.00 in0.0 mm 0.97 in24.6 mm
05:43 PM 88.3°F31.3°C 79.7°F26.5°C 76% Calm Calm 3.2 mph5.1 kmh 29.83 in1010.2 mb 0.00 in0.0 mm 0.00 in0.0 mm 0.97 in24.6 mm
05:42 PM 88.3°F31.3°C 79.7°F26.5°C 76% Calm Calm 2.7 mph4.3 kmh 29.83 in1010.2 mb 0.00 in0.0 mm 0.00 in0.0 mm 0.97 in24.6 mm
05:41 PM 88.5°F31.4°C 79.9°F26.6°C 76% Calm Calm 2.7 mph4.3 kmh 29.83 in1010.2 mb 0.00 in0.0 mm 0.00 in0.0 mm 0.97 in24.6 mm
05:40 PM 88.5°F31.4°C 79.5°F26.4°C 75% 1.7 mph ESE2.7 kmh ESE 2.7 mph4.3 kmh 29.83 in1010.2 mb 0.00 in0.0 mm 0.00 in0.0 mm 0.97 in24.6 mm
05:39 PM 88.5°F31.4°C 79.5°F26.4°C 75% 2.2 mph SSW3.5 kmh SSW 2.7 mph4.3 kmh 29.83 in1010.2 mb 0.00 in0.0 mm 0.00 in0.0 mm 0.97 in24.6 mm
05:38 PM 88.5°F31.4°C 79.5°F26.4°C 75% 2.2 mph S3.5 kmh S 2.7 mph4.3 kmh 29.83 in1010.2 mb 0.00 in0.0 mm 0.00 in0.0 mm 0.97 in24.6 mm
05:37 PM 88.5°F31.4°C 79.5°F26.4°C 75% 1.7 mph SSW2.7 kmh SSW 2.7 mph4.3 kmh 29.82 in1009.8 mb 0.00 in0.0 mm 0.00 in0.0 mm 0.97 in24.6 mm
05:36 PM 88.5°F31.4°C 79.5°F26.4°C 75% Calm Calm 2.7 mph4.3 kmh 29.82 in1009.8 mb 0.00 in0.0 mm 0.00 in0.0 mm 0.97 in24.6 mm
05:35 PM 88.5°F31.4°C 79.5°F26.4°C 75% 2.7 mph SSE4.3 kmh SSE 2.7 mph4.3 kmh 29.82 in1009.8 mb 0.00 in0.0 mm 0.00 in0.0 mm 0.97 in24.6 mm
05:34 PM 88.5°F31.4°C 79.5°F26.4°C 75% Calm Calm 3.2 mph5.1 kmh 29.82 in1009.8 mb 0.00 in0.0 mm 0.00 in0.0 mm 0.97 in24.6 mm
05:33 PM 88.7°F31.5°C 79.7°F26.5°C 75% Calm Calm 3.2 mph5.1 kmh 29.82 in1009.8 mb 0.00 in0.0 mm 0.00 in0.0 mm 0.97 in24.6 mm
05:32 PM 88.7°F31.5°C 79.7°F26.5°C 75% 1.7 mph SSW2.7 kmh SSW 3.2 mph5.1 kmh 29.82 in1009.8 mb 0.00 in0.0 mm 0.00 in0.0 mm 0.97 in24.6 mm
05:31 PM 88.7°F31.5°C 79.7°F26.5°C 75% 2.2 mph SSW3.5 kmh SSW 3.2 mph5.1 kmh 29.82 in1009.8 mb 0.00 in0.0 mm 0.00 in0.0 mm 0.97 in24.6 mm
05:30 PM 88.7°F31.5°C 79.7°F26.5°C 75% Calm Calm 4.2 mph6.8 kmh 29.82 in1009.8 mb 0.00 in0.0 mm 0.00 in0.0 mm 0.97 in24.6 mm
05:29 PM 88.7°F31.5°C 79.7°F26.5°C 75% 1.7 mph W2.7 kmh W 4.2 mph6.8 kmh 29.82 in1009.8 mb 0.00 in0.0 mm 0.00 in0.0 mm 0.97 in24.6 mm
05:28 PM 88.7°F31.5°C 79.7°F26.5°C 75% Calm Calm 4.2 mph6.8 kmh 29.82 in1009.8 mb 0.00 in0.0 mm 0.00 in0.0 mm 0.97 in24.6 mm
05:27 PM 88.9°F31.6°C 79.9°F26.6°C 75% 1.7 mph SW2.7 kmh SW 4.2 mph6.8 kmh 29.82 in1009.8 mb 0.00 in0.0 mm 0.00 in0.0 mm 0.97 in24.6 mm
05:26 PM 89.1°F31.7°C 80.1°F26.7°C 75% 2.7 mph SSE4.3 kmh SSE 4.2 mph6.8 kmh 29.83 in1010.2 mb 0.00 in0.0 mm 0.00 in0.0 mm 0.97 in24.6 mm
05:25 PM 89.1°F31.7°C 80.1°F26.7°C 75% 3.2 mph SSE5.1 kmh SSE 4.2 mph6.8 kmh 29.83 in1010.2 mb 0.00 in0.0 mm 0.00 in0.0 mm 0.97 in24.6 mm
05:24 PM 89.1°F31.7°C 80.1°F26.7°C 75% 1.1 mph ESE1.8 kmh ESE 4.2 mph6.8 kmh 29.83 in1010.2 mb 0.00 in0.0 mm 0.00 in0.0 mm 0.97 in24.6 mm
05:23 PM 89.1°F31.7°C 80.1°F26.7°C 75% 2.7 mph SSW4.3 kmh SSW 4.2 mph6.8 kmh 29.83 in1010.2 mb 0.00 in0.0 mm 0.00 in0.0 mm 0.97 in24.6 mm
05:22 PM 89.1°F31.7°C 80.1°F26.7°C 75% Calm Calm 4.2 mph6.8 kmh 29.83 in1010.2 mb 0.00 in0.0 mm 0.00 in0.0 mm 0.97 in24.6 mm
05:21 PM 89.4°F31.9°C 80.0°F26.7°C 74% 2.7 mph SSE4.3 kmh SSE 4.2 mph6.8 kmh 29.83 in1010.2 mb 0.00 in0.0 mm 0.00 in0.0 mm 0.97 in24.6 mm
05:20 PM 89.4°F31.9°C 80.0°F26.7°C 74% 4.2 mph NE6.8 kmh NE 4.7 mph7.6 kmh 29.83 in1010.2 mb 0.00 in0.0 mm 0.00 in0.0 mm 0.97 in24.6 mm
05:19 PM 89.6°F32.0°C 80.2°F26.8°C 74% 2.2 mph SSW3.5 kmh SSW 4.7 mph7.6 kmh 29.83 in1010.2 mb 0.00 in0.0 mm 0.00 in0.0 mm 0.97 in24.6 mm
05:18 PM 89.8°F32.1°C 80.4°F26.9°C 74% Calm Calm 4.7 mph7.6 kmh 29.83 in1010.2 mb 0.00 in0.0 mm 0.00 in0.0 mm 0.97 in24.6 mm
05:17 PM 89.8°F32.1°C 80.4°F26.9°C 74% Calm Calm 4.7 mph7.6 kmh 29.83 in1010.2 mb 0.00 in0.0 mm 0.00 in0.0 mm 0.97 in24.6 mm
05:16 PM 90.0°F32.2°C 80.6°F27.0°C 74% Calm Calm 4.7 mph7.6 kmh 29.83 in1010.2 mb 0.00 in0.0 mm 0.00 in0.0 mm 0.97 in24.6 mm
05:15 PM 90.0°F32.2°C 80.6°F27.0°C 74% Calm Calm 4.7 mph7.6 kmh 29.83 in1010.2 mb 0.00 in0.0 mm 0.00 in0.0 mm 0.97 in24.6 mm
05:14 PM 90.0°F32.2°C 80.6°F27.0°C 74% 1.1 mph WSW1.8 kmh WSW 4.7 mph7.6 kmh 29.82 in1009.8 mb 0.00 in0.0 mm 0.00 in0.0 mm 0.97 in24.6 mm
05:13 PM 89.8°F32.1°C 80.4°F26.9°C 74% Calm Calm 4.7 mph7.6 kmh 29.82 in1009.8 mb 0.00 in0.0 mm 0.00 in0.0 mm 0.97 in24.6 mm
05:12 PM 89.8°F32.1°C 80.4°F26.9°C 74% Calm Calm 5.8 mph9.3 kmh 29.82 in1009.8 mb 0.00 in0.0 mm 0.00 in0.0 mm 0.97 in24.6 mm
05:11 PM 90.0°F32.2°C 80.6°F27.0°C 74% 4.7 mph SSW7.6 kmh SSW 5.8 mph9.3 kmh 29.82 in1009.8 mb 0.00 in0.0 mm 0.00 in0.0 mm 0.97 in24.6 mm
05:10 PM 90.0°F32.2°C 80.6°F27.0°C 74% Calm Calm 5.8 mph9.3 kmh 29.82 in1009.8 mb 0.00 in0.0 mm 0.00 in0.0 mm 0.97 in24.6 mm
05:09 PM 90.0°F32.2°C 80.6°F27.0°C 74% Calm Calm 5.8 mph9.3 kmh 29.82 in1009.8 mb 0.00 in0.0 mm 0.00 in0.0 mm 0.97 in24.6 mm
05:08 PM 90.0°F32.2°C 80.6°F27.0°C 74% 3.2 mph SSE5.1 kmh SSE 5.8 mph9.3 kmh 29.82 in1009.8 mb 0.00 in0.0 mm 0.00 in0.0 mm 0.97 in24.6 mm
05:07 PM 90.1°F32.3°C 80.7°F27.1°C 74% Calm Calm 5.8 mph9.3 kmh 29.82 in1009.8 mb 0.00 in0.0 mm 0.00 in0.0 mm 0.97 in24.6 mm
05:06 PM 90.3°F32.4°C 80.4°F26.9°C 73% Calm Calm 5.8 mph9.3 kmh 29.82 in1009.8 mb 0.00 in0.0 mm 0.00 in0.0 mm 0.97 in24.6 mm
05:05 PM 90.3°F32.4°C 80.4°F26.9°C 73% Calm Calm 5.8 mph9.3 kmh 29.82 in1009.8 mb 0.00 in0.0 mm 0.00 in0.0 mm 0.97 in24.6 mm
05:04 PM 90.3°F32.4°C 80.4°F26.9°C 73% 2.7 mph SE4.3 kmh SE 5.8 mph9.3 kmh 29.82 in1009.8 mb 0.00 in0.0 mm 0.00 in0.0 mm 0.97 in24.6 mm
05:03 PM 90.3°F32.4°C 80.4°F26.9°C 73% 3.2 mph ESE5.1 kmh ESE 5.8 mph9.3 kmh 29.82 in1009.8 mb 0.00 in0.0 mm 0.00 in0.0 mm 0.97 in24.6 mm
05:02 PM 90.3°F32.4°C 80.4°F26.9°C 73% 5.8 mph SE9.3 kmh SE 5.8 mph9.3 kmh 29.82 in1009.8 mb 0.00 in0.0 mm 0.00 in0.0 mm 0.97 in24.6 mm
05:01 PM 90.3°F32.4°C 80.4°F26.9°C 73% Calm Calm 3.7 mph6.0 kmh 29.82 in1009.8 mb 0.00 in0.0 mm 0.00 in0.0 mm 0.97 in24.6 mm
05:00 PM 90.3°F32.4°C 80.4°F26.9°C 73% Calm Calm 3.7 mph6.0 kmh 29.82 in1009.8 mb 0.00 in0.0 mm 0.00 in0.0 mm 0.97 in24.6 mm
04:59 PM 90.5°F32.5°C 80.6°F27.0°C 73% Calm Calm 5.8 mph9.3 kmh 29.82 in1009.8 mb 0.00 in0.0 mm 0.00 in0.0 mm 0.97 in24.6 mm
04:58 PM 90.5°F32.5°C 80.6°F27.0°C 73% 1.7 mph WNW2.7 kmh WNW 6.8 mph10.9 kmh 29.82 in1009.8 mb 0.00 in0.0 mm 0.00 in0.0 mm 0.97 in24.6 mm
04:57 PM 90.5°F32.5°C 80.6°F27.0°C 73% 1.7 mph SSE2.7 kmh SSE 6.8 mph10.9 kmh 29.82 in1009.8 mb 0.00 in0.0 mm 0.00 in0.0 mm 0.97 in24.6 mm
04:56 PM 90.3°F32.4°C 80.4°F26.9°C 73% Calm Calm 6.8 mph10.9 kmh 29.82 in1009.8 mb 0.00 in0.0 mm 0.00 in0.0 mm 0.97 in24.6 mm
04:55 PM 90.5°F32.5°C 80.6°F27.0°C 73% 1.1 mph S1.8 kmh S 6.8 mph10.9 kmh 29.82 in1009.8 mb 0.00 in0.0 mm 0.00 in0.0 mm 0.97 in24.6 mm
04:54 PM 90.5°F32.5°C 80.6°F27.0°C 73% Calm Calm 6.8 mph10.9 kmh 29.82 in1009.8 mb 0.00 in0.0 mm 0.00 in0.0 mm 0.97 in24.6 mm
04:53 PM 90.7°F32.6°C 80.8°F27.1°C 73% 1.7 mph ESE2.7 kmh ESE 6.8 mph10.9 kmh 29.82 in1009.8 mb 0.00 in0.0 mm 0.00 in0.0 mm 0.97 in24.6 mm
04:52 PM 90.7°F32.6°C 80.4°F26.9°C 72% 3.2 mph SSE5.1 kmh SSE 6.8 mph10.9 kmh 29.82 in1009.8 mb 0.00 in0.0 mm 0.00 in0.0 mm 0.97 in24.6 mm
04:51 PM 95.2°F35.1°C 84.7°F29.3°C 72% Calm Calm 6.8 mph10.9 kmh 29.82 in1009.8 mb 0.00 in0.0 mm 0.00 in0.0 mm 0.97 in24.6 mm
04:50 PM 90.5°F32.5°C 80.2°F26.8°C 72% Calm Calm 6.8 mph10.9 kmh 29.82 in1009.8 mb 0.00 in0.0 mm 0.00 in0.0 mm 0.97 in24.6 mm
04:49 PM 90.7°F32.6°C 80.4°F26.9°C 72% 6.8 mph SE10.9 kmh SE 6.8 mph10.9 kmh 29.82 in1009.8 mb 0.00 in0.0 mm 0.00 in0.0 mm 0.97 in24.6 mm
04:48 PM 90.7°F32.6°C 80.4°F26.9°C 72% 3.7 mph E6.0 kmh E 5.8 mph9.3 kmh 29.82 in1009.8 mb 0.00 in0.0 mm 0.00 in0.0 mm 0.97 in24.6 mm
04:47 PM 90.9°F32.7°C 80.6°F27.0°C 72% 2.7 mph SE4.3 kmh SE 5.8 mph9.3 kmh 29.82 in1009.8 mb 0.00 in0.0 mm 0.00 in0.0 mm 0.97 in24.6 mm
04:46 PM 91.0°F32.8°C 80.7°F27.1°C 72% Calm Calm 5.8 mph9.3 kmh 29.82 in1009.8 mb 0.00 in0.0 mm 0.00 in0.0 mm 0.97 in24.6 mm
04:45 PM 90.7°F32.6°C 80.4°F26.9°C 72% Calm Calm 5.8 mph9.3 kmh 29.82 in1009.8 mb 0.00 in0.0 mm 0.00 in0.0 mm 0.97 in24.6 mm
04:44 PM 90.5°F32.5°C 80.2°F26.8°C 72% Calm Calm 5.8 mph9.3 kmh 29.82 in1009.8 mb 0.00 in0.0 mm 0.00 in0.0 mm 0.97 in24.6 mm
04:43 PM 90.5°F32.5°C 80.2°F26.8°C 72% 2.7 mph S4.3 kmh S 5.8 mph9.3 kmh 29.82 in1009.8 mb 0.00 in0.0 mm 0.00 in0.0 mm 0.97 in24.6 mm
04:42 PM 90.7°F32.6°C 80.4°F26.9°C 72% 3.7 mph ESE6.0 kmh ESE 5.8 mph9.3 kmh 29.82 in1009.8 mb 0.00 in0.0 mm 0.00 in0.0 mm 0.97 in24.6 mm
04:41 PM 90.7°F32.6°C 80.4°F26.9°C 72% 4.2 mph SSE6.8 kmh SSE 5.3 mph8.5 kmh 29.82 in1009.8 mb 0.00 in0.0 mm 0.00 in0.0 mm 0.97 in24.6 mm
04:40 PM 90.7°F32.6°C 80.4°F26.9°C 72% 2.2 mph SSE3.5 kmh SSE 5.3 mph8.5 kmh 29.82 in1009.8 mb 0.00 in0.0 mm 0.00 in0.0 mm 0.97 in24.6 mm
04:39 PM 90.9°F32.7°C 80.6°F27.0°C 72% 2.2 mph SSE3.5 kmh SSE 5.3 mph8.5 kmh 29.82 in1009.8 mb 0.00 in0.0 mm 0.00 in0.0 mm 0.97 in24.6 mm
04:38 PM 90.9°F32.7°C 80.6°F27.0°C 72% 2.2 mph N3.5 kmh N 5.3 mph8.5 kmh 29.83 in1010.2 mb 0.00 in0.0 mm 0.00 in0.0 mm 0.97 in24.6 mm
04:37 PM 90.7°F32.6°C 80.4°F26.9°C 72% 1.1 mph E1.8 kmh E 5.3 mph8.5 kmh 29.83 in1010.2 mb 0.00 in0.0 mm 0.00 in0.0 mm 0.97 in24.6 mm
04:36 PM 90.7°F32.6°C 80.4°F26.9°C 72% 2.2 mph SSW3.5 kmh SSW 5.3 mph8.5 kmh 29.83 in1010.2 mb 0.00 in0.0 mm 0.00 in0.0 mm 0.97 in24.6 mm
04:35 PM 90.7°F32.6°C 80.4°F26.9°C 72% 1.7 mph S2.7 kmh S 5.3 mph8.5 kmh 29.83 in1010.2 mb 0.00 in0.0 mm 0.00 in0.0 mm 0.97 in24.6 mm
04:34 PM 90.7°F32.6°C 80.4°F26.9°C 72% 3.7 mph SSW6.0 kmh SSW 5.3 mph8.5 kmh 29.83 in1010.2 mb 0.00 in0.0 mm 0.00 in0.0 mm 0.97 in24.6 mm
04:33 PM 90.9°F32.7°C 80.6°F27.0°C 72% 1.1 mph N1.8 kmh N 4.2 mph6.8 kmh 29.83 in1010.2 mb 0.00 in0.0 mm 0.00 in0.0 mm 0.97 in24.6 mm
04:32 PM 90.7°F32.6°C 80.4°F26.9°C 72% 1.7 mph ESE2.7 kmh ESE 4.2 mph6.8 kmh 29.83 in1010.2 mb 0.00 in0.0 mm 0.00 in0.0 mm 0.97 in24.6 mm
04:31 PM 90.7°F32.6°C 80.4°F26.9°C 72% Calm Calm 4.2 mph6.8 kmh 29.83 in1010.2 mb 0.00 in0.0 mm 0.00 in0.0 mm 0.97 in24.6 mm
04:30 PM 90.7°F32.6°C 80.0°F26.7°C 71% 2.7 mph S4.3 kmh S 4.2 mph6.8 kmh 29.83 in1010.2 mb 0.00 in0.0 mm 0.00 in0.0 mm 0.97 in24.6 mm
04:29 PM 90.7°F32.6°C 80.0°F26.7°C 71% 2.2 mph WNW3.5 kmh WNW 4.2 mph6.8 kmh 29.83 in1010.2 mb 0.00 in0.0 mm 0.00 in0.0 mm 0.97 in24.6 mm
04:28 PM 90.7°F32.6°C 80.0°F26.7°C 71% 3.2 mph S5.1 kmh S 6.8 mph10.9 kmh 29.83 in1010.2 mb 0.00 in0.0 mm 0.00 in0.0 mm 0.97 in24.6 mm
04:27 PM 90.9°F32.7°C 80.2°F26.8°C 71% 2.2 mph S3.5 kmh S 6.8 mph10.9 kmh 29.83 in1010.2 mb 0.00 in0.0 mm 0.00 in0.0 mm 0.97 in24.6 mm
04:26 PM 90.9°F32.7°C 80.2°F26.8°C 71% Calm Calm 6.8 mph10.9 kmh 29.83 in1010.2 mb 0.00 in0.0 mm 0.00 in0.0 mm 0.97 in24.6 mm
04:25 PM 90.9°F32.7°C 80.2°F26.8°C 71% 2.7 mph SSE4.3 kmh SSE 6.8 mph10.9 kmh 29.83 in1010.2 mb 0.00 in0.0 mm 0.00 in0.0 mm 0.97 in24.6 mm
04:24 PM 90.9°F32.7°C 80.2°F26.8°C 71% 2.2 mph N3.5 kmh N 6.8 mph10.9 kmh 29.83 in1010.2 mb 0.00 in0.0 mm 0.00 in0.0 mm 0.97 in24.6 mm
04:23 PM 90.9°F32.7°C 80.2°F26.8°C 71% Calm Calm 6.8 mph10.9 kmh 29.83 in1010.2 mb 0.00 in0.0 mm 0.00 in0.0 mm 0.97 in24.6 mm
04:22 PM 90.9°F32.7°C 80.2°F26.8°C 71% 2.7 mph SE4.3 kmh SE 6.8 mph10.9 kmh 29.83 in1010.2 mb 0.00 in0.0 mm 0.00 in0.0 mm 0.97 in24.6 mm
04:21 PM 91.0°F32.8°C 80.3°F26.8°C 71% 1.7 mph SSW2.7 kmh SSW 6.8 mph10.9 kmh 29.83 in1010.2 mb 0.00 in0.0 mm 0.00 in0.0 mm 0.97 in24.6 mm
04:20 PM 91.0°F32.8°C 80.3°F26.8°C 71% 2.7 mph SW4.3 kmh SW 6.8 mph10.9 kmh 29.83 in1010.2 mb 0.00 in0.0 mm 0.00 in0.0 mm 0.97 in24.6 mm
04:19 PM 91.2°F32.9°C 80.4°F26.9°C 71% 3.7 mph SSW6.0 kmh SSW 6.8 mph10.9 kmh 29.83 in1010.2 mb 0.00 in0.0 mm 0.00 in0.0 mm 0.97 in24.6 mm
04:18 PM 91.4°F33.0°C 80.6°F27.0°C 71% 2.7 mph ESE4.3 kmh ESE 6.8 mph10.9 kmh 29.83 in1010.2 mb 0.00 in0.0 mm 0.00 in0.0 mm 0.97 in24.6 mm
04:17 PM 91.4°F33.0°C 80.6°F27.0°C 71% 6.8 mph S10.9 kmh S 6.8 mph10.9 kmh 29.83 in1010.2 mb 0.00 in0.0 mm 0.00 in0.0 mm 0.97 in24.6 mm
04:16 PM 91.4°F33.0°C 80.2°F26.8°C 70% 3.2 mph SW5.1 kmh SW 6.8 mph10.9 kmh 29.83 in1010.2 mb 0.00 in0.0 mm 0.00 in0.0 mm 0.97 in24.6 mm
04:15 PM 91.4°F33.0°C 80.2°F26.8°C 70% 2.2 mph WSW3.5 kmh WSW 6.8 mph10.9 kmh 29.83 in1010.2 mb 0.00 in0.0 mm 0.00 in0.0 mm 0.97 in24.6 mm
04:14 PM 91.4°F33.0°C 80.2°F26.8°C 70% 3.7 mph ESE6.0 kmh ESE 7.3 mph11.7 kmh 29.83 in1010.2 mb 0.00 in0.0 mm 0.00 in0.0 mm 0.97 in24.6 mm
04:13 PM 91.4°F33.0°C 80.2°F26.8°C 70% 4.7 mph SSE7.6 kmh SSE 7.3 mph11.7 kmh 29.83 in1010.2 mb 0.00 in0.0 mm 0.00 in0.0 mm 0.97 in24.6 mm
04:12 PM 91.4°F33.0°C 80.2°F26.8°C 70% 1.7 mph W2.7 kmh W 7.3 mph11.7 kmh 29.83 in1010.2 mb 0.00 in0.0 mm 0.00 in0.0 mm 0.97 in24.6 mm
04:11 PM 91.6°F33.1°C 80.4°F26.9°C 70% Calm Calm 7.3 mph11.7 kmh 29.83 in1010.2 mb 0.00 in0.0 mm 0.00 in0.0 mm 0.97 in24.6 mm
04:10 PM 91.6°F33.1°C 80.4°F26.9°C 70% 2.7 mph SSE4.3 kmh SSE 7.3 mph11.7 kmh 29.83 in1010.2 mb 0.00 in0.0 mm 0.00 in0.0 mm 0.97 in24.6 mm
04:09 PM 91.4°F33.0°C 80.2°F26.8°C 70% 6.8 mph S10.9 kmh S 7.3 mph11.7 kmh 29.83 in1010.2 mb 0.00 in0.0 mm 0.00 in0.0 mm 0.97 in24.6 mm
04:08 PM 91.2°F32.9°C 80.0°F26.7°C 70% Calm Calm 7.3 mph11.7 kmh 29.83 in1010.2 mb 0.00 in0.0 mm 0.00 in0.0 mm 0.97 in24.6 mm
04:07 PM 91.4°F33.0°C 80.2°F26.8°C 70% 2.7 mph WSW4.3 kmh WSW 7.3 mph11.7 kmh 29.83 in1010.2 mb 0.00 in0.0 mm 0.00 in0.0 mm 0.97 in24.6 mm
04:06 PM 91.6°F33.1°C 80.4°F26.9°C 70% 3.7 mph ESE6.0 kmh ESE 7.3 mph11.7 kmh 29.83 in1010.2 mb 0.00 in0.0 mm 0.00 in0.0 mm 0.97 in24.6 mm
04:05 PM 91.8°F33.2°C 80.1°F26.7°C 69% 5.3 mph ESE8.5 kmh ESE 7.8 mph12.6 kmh 29.83 in1010.2 mb 0.00 in0.0 mm 0.00 in0.0 mm 0.97 in24.6 mm
04:04 PM 91.8°F33.2°C 80.1°F26.7°C 69% 7.3 mph SSE11.7 kmh SSE 7.8 mph12.6 kmh 29.83 in1010.2 mb 0.00 in0.0 mm 0.00 in0.0 mm 0.97 in24.6 mm
04:03 PM 92.1°F33.4°C 80.4°F26.9°C 69% 7.3 mph S11.7 kmh S 7.8 mph12.6 kmh 29.83 in1010.2 mb 0.00 in0.0 mm 0.00 in0.0 mm 0.97 in24.6 mm
04:02 PM 92.3°F33.5°C 80.6°F27.0°C 69% 4.7 mph S7.6 kmh S 7.8 mph12.6 kmh 29.84 in1010.5 mb 0.00 in0.0 mm 0.00 in0.0 mm 0.97 in24.6 mm
04:01 PM 92.1°F33.4°C 80.4°F26.9°C 69% Calm Calm 7.8 mph12.6 kmh 29.84 in1010.5 mb 0.00 in0.0 mm 0.00 in0.0 mm 0.97 in24.6 mm
04:00 PM 91.9°F33.3°C 80.2°F26.8°C 69% 3.7 mph ESE6.0 kmh ESE 7.8 mph12.6 kmh 29.84 in1010.5 mb 0.00 in0.0 mm 0.00 in0.0 mm 0.97 in24.6 mm
03:59 PM 91.9°F33.3°C 80.2°F26.8°C 69% 2.2 mph SW3.5 kmh SW 7.8 mph12.6 kmh 29.84 in1010.5 mb 0.00 in0.0 mm 0.00 in0.0 mm 0.97 in24.6 mm
03:58 PM 92.5°F33.6°C 80.4°F26.9°C 68% 2.7 mph S4.3 kmh S 7.8 mph12.6 kmh 29.84 in1010.5 mb 0.00 in0.0 mm 0.00 in0.0 mm 0.97 in24.6 mm
03:57 PM 92.8°F33.8°C 80.6°F27.0°C 68% 5.3 mph S8.5 kmh S 7.8 mph12.6 kmh 29.84 in1010.5 mb 0.00 in0.0 mm 0.00 in0.0 mm 0.97 in24.6 mm
03:56 PM 93.0°F33.9°C 80.8°F27.1°C 68% 7.8 mph ESE12.6 kmh ESE 7.8 mph12.6 kmh 29.84 in1010.5 mb 0.00 in0.0 mm 0.00 in0.0 mm 0.97 in24.6 mm
03:55 PM 93.0°F33.9°C 80.8°F27.1°C 68% Calm Calm 4.7 mph7.6 kmh 29.84 in1010.5 mb 0.00 in0.0 mm 0.00 in0.0 mm 0.97 in24.6 mm
03:54 PM 93.2°F34.0°C 81.0°F27.2°C 68% Calm Calm 4.7 mph7.6 kmh 29.84 in1010.5 mb 0.00 in0.0 mm 0.00 in0.0 mm 0.97 in24.6 mm
03:53 PM 93.2°F34.0°C 81.0°F27.2°C 68% 3.2 mph S5.1 kmh S 4.7 mph7.6 kmh 29.84 in1010.5 mb 0.00 in0.0 mm 0.00 in0.0 mm 0.97 in24.6 mm
03:52 PM 93.2°F34.0°C 81.0°F27.2°C 68% 3.2 mph N5.1 kmh N 5.3 mph8.5 kmh 29.84 in1010.5 mb 0.00 in0.0 mm 0.00 in0.0 mm 0.97 in24.6 mm
03:51 PM 93.2°F34.0°C 81.0°F27.2°C 68% 4.7 mph ESE7.6 kmh ESE 5.8 mph9.3 kmh 29.84 in1010.5 mb 0.00 in0.0 mm 0.00 in0.0 mm 0.97 in24.6 mm
03:50 PM 93.2°F34.0°C 81.0°F27.2°C 68% 3.7 mph S6.0 kmh S 6.3 mph10.1 kmh 29.85 in1010.8 mb 0.00 in0.0 mm 0.00 in0.0 mm 0.97 in24.6 mm
03:49 PM 93.4°F34.1°C 80.8°F27.1°C 67% 2.2 mph ESE3.5 kmh ESE 9.4 mph15.1 kmh 29.85 in1010.8 mb 0.00 in0.0 mm 0.00 in0.0 mm 0.97 in24.6 mm
03:48 PM 93.4°F34.1°C 80.8°F27.1°C 67% 2.7 mph SE4.3 kmh SE 9.4 mph15.1 kmh 29.85 in1010.8 mb 0.00 in0.0 mm 0.00 in0.0 mm 0.97 in24.6 mm
03:47 PM 93.6°F34.2°C 81.0°F27.2°C 67% 1.1 mph SE1.8 kmh SE 9.4 mph15.1 kmh 29.85 in1010.8 mb 0.00 in0.0 mm 0.00 in0.0 mm 0.97 in24.6 mm
03:46 PM 93.7°F34.3°C 81.0°F27.2°C 67% 3.7 mph ESE6.0 kmh ESE 9.4 mph15.1 kmh 29.85 in1010.8 mb 0.00 in0.0 mm 0.00 in0.0 mm 0.97 in24.6 mm
03:45 PM 93.6°F34.2°C 81.0°F27.2°C 67% 3.7 mph SSW6.0 kmh SSW 9.4 mph15.1 kmh 29.85 in1010.8 mb 0.00 in0.0 mm 0.00 in0.0 mm 0.97 in24.6 mm
03:44 PM 93.4°F34.1°C 80.8°F27.1°C 67% 3.7 mph SSE6.0 kmh SSE 9.4 mph15.1 kmh 29.85 in1010.8 mb 0.00 in0.0 mm 0.00 in0.0 mm 0.97 in24.6 mm
03:43 PM 93.0°F33.9°C 80.4°F26.9°C 67% 5.3 mph SSE8.5 kmh SSE 9.4 mph15.1 kmh 29.85 in1010.8 mb 0.00 in0.0 mm 0.00 in0.0 mm 0.97 in24.6 mm
03:42 PM 93.0°F33.9°C 80.4°F26.9°C 67% 5.8 mph SE9.3 kmh SE 9.4 mph15.1 kmh 29.85 in1010.8 mb 0.00 in0.0 mm 0.00 in0.0 mm 0.97 in24.6 mm
03:41 PM 93.0°F33.9°C 80.4°F26.9°C 67% 5.8 mph SSE9.3 kmh SSE 9.4 mph15.1 kmh 29.85 in1010.8 mb 0.00 in0.0 mm 0.00 in0.0 mm 0.97 in24.6 mm
03:40 PM 93.2°F34.0°C 80.6°F27.0°C 67% 6.8 mph S10.9 kmh S 9.4 mph15.1 kmh 29.85 in1010.8 mb 0.00 in0.0 mm 0.00 in0.0 mm 0.97 in24.6 mm
03:39 PM 93.2°F34.0°C 80.1°F26.7°C 66% 5.3 mph SSE8.5 kmh SSE 8.9 mph14.3 kmh 29.85 in1010.8 mb 0.00 in0.0 mm 0.00 in0.0 mm 0.97 in24.6 mm
03:38 PM 93.4°F34.1°C 80.3°F26.8°C 66% 2.7 mph NNE4.3 kmh NNE 8.9 mph14.3 kmh 29.86 in1011.2 mb 0.00 in0.0 mm 0.00 in0.0 mm 0.97 in24.6 mm
03:37 PM 93.4°F34.1°C 80.3°F26.8°C 66% 2.7 mph SSE4.3 kmh SSE 8.9 mph14.3 kmh 29.86 in1011.2 mb 0.00 in0.0 mm 0.00 in0.0 mm 0.97 in24.6 mm
03:36 PM 93.6°F34.2°C 80.5°F26.9°C 66% 8.9 mph ESE14.3 kmh ESE 8.9 mph14.3 kmh 29.86 in1011.2 mb 0.00 in0.0 mm 0.00 in0.0 mm 0.97 in24.6 mm
03:35 PM 93.7°F34.3°C 80.1°F26.7°C 65% 8.9 mph N14.3 kmh N 8.9 mph14.3 kmh 29.86 in1011.2 mb 0.00 in0.0 mm 0.00 in0.0 mm 0.97 in24.6 mm
03:34 PM 94.3°F34.6°C 80.7°F27.1°C 65% 3.7 mph SSW6.0 kmh SSW 7.3 mph11.7 kmh 29.86 in1011.2 mb 0.00 in0.0 mm 0.00 in0.0 mm 0.97 in24.6 mm
03:33 PM 94.5°F34.7°C 80.4°F26.9°C 64% 3.7 mph S6.0 kmh S 7.3 mph11.7 kmh 29.86 in1011.2 mb 0.00 in0.0 mm 0.00 in0.0 mm 0.97 in24.6 mm
03:32 PM 94.4°F34.7°C 80.3°F26.8°C 64% 3.2 mph SW5.1 kmh SW 7.3 mph11.7 kmh 29.86 in1011.2 mb 0.00 in0.0 mm 0.00 in0.0 mm 0.97 in24.6 mm
03:31 PM 95.0°F35.0°C 80.4°F26.9°C 63% 3.2 mph ESE5.1 kmh ESE 7.3 mph11.7 kmh 29.86 in1011.2 mb 0.00 in0.0 mm 0.00 in0.0 mm 0.97 in24.6 mm
03:30 PM 95.2°F35.1°C 80.6°F27.0°C 63% 5.8 mph SSE9.3 kmh SSE 7.3 mph11.7 kmh 29.86 in1011.2 mb 0.00 in0.0 mm 0.00 in0.0 mm 0.97 in24.6 mm
03:29 PM 95.2°F35.1°C 80.6°F27.0°C 63% 4.7 mph S7.6 kmh S 7.3 mph11.7 kmh 29.86 in1011.2 mb 0.00 in0.0 mm 0.00 in0.0 mm 0.97 in24.6 mm
03:28 PM 95.4°F35.2°C 80.8°F27.1°C 63% Calm Calm 7.3 mph11.7 kmh 29.86 in1011.2 mb 0.00 in0.0 mm 0.00 in0.0 mm 0.97 in24.6 mm
03:27 PM 95.7°F35.4°C 81.0°F27.2°C 63% 7.3 mph SSE11.7 kmh SSE 7.8 mph12.6 kmh 29.86 in1011.2 mb 0.00 in0.0 mm 0.00 in0.0 mm 0.97 in24.6 mm
03:26 PM 95.7°F35.4°C 81.0°F27.2°C 63% Calm Calm 9.9 mph15.9 kmh 29.86 in1011.2 mb 0.00 in0.0 mm 0.00 in0.0 mm 0.97 in24.6 mm
03:25 PM 95.5°F35.3°C 80.9°F27.2°C 63% Calm Calm 9.9 mph15.9 kmh 29.86 in1011.2 mb 0.00 in0.0 mm 0.00 in0.0 mm 0.97 in24.6 mm
03:24 PM 95.2°F35.1°C 80.6°F27.0°C 63% 3.2 mph E5.1 kmh E 9.9 mph15.9 kmh 29.86 in1011.2 mb 0.00 in0.0 mm 0.00 in0.0 mm 0.97 in24.6 mm
03:23 PM 95.4°F35.2°C 80.8°F27.1°C 63% 5.3 mph S8.5 kmh S 9.9 mph15.9 kmh 29.86 in1011.2 mb 0.00 in0.0 mm 0.00 in0.0 mm 0.97 in24.6 mm
03:22 PM 95.7°F35.4°C 81.0°F27.2°C 63% 2.2 mph SW3.5 kmh SW 9.9 mph15.9 kmh 29.86 in1011.2 mb 0.00 in0.0 mm 0.00 in0.0 mm 0.97 in24.6 mm
03:21 PM 95.2°F35.1°C 80.6°F27.0°C 63% 2.7 mph SSW4.3 kmh SSW 9.9 mph15.9 kmh 29.86 in1011.2 mb 0.00 in0.0 mm 0.00 in0.0 mm 0.97 in24.6 mm
03:20 PM 95.7°F35.4°C 80.6°F27.0°C 62% 5.3 mph SSE8.5 kmh SSE 9.9 mph15.9 kmh 29.86 in1011.2 mb 0.00 in0.0 mm 0.00 in0.0 mm 0.97 in24.6 mm
03:19 PM 95.9°F35.5°C 80.7°F27.1°C 62% 2.7 mph SSW4.3 kmh SSW 9.9 mph15.9 kmh 29.86 in1011.2 mb 0.00 in0.0 mm 0.00 in0.0 mm 0.97 in24.6 mm
03:18 PM 95.9°F35.5°C 80.7°F27.1°C 62% 4.2 mph WSW6.8 kmh WSW 9.9 mph15.9 kmh 29.86 in1011.2 mb 0.00 in0.0 mm 0.00 in0.0 mm 0.97 in24.6 mm
03:17 PM 96.4°F35.8°C 80.7°F27.1°C 61% 9.9 mph S15.9 kmh S 9.9 mph15.9 kmh 29.86 in1011.2 mb 0.00 in0.0 mm 0.00 in0.0 mm 0.97 in24.6 mm
03:16 PM 96.1°F35.6°C 80.9°F27.2°C 62% 2.2 mph E3.5 kmh E 9.9 mph15.9 kmh 29.86 in1011.2 mb 0.00 in0.0 mm 0.00 in0.0 mm 0.97 in24.6 mm
03:15 PM 95.5°F35.3°C 80.9°F27.2°C 63% 4.7 mph SSE7.6 kmh SSE 9.9 mph15.9 kmh 29.86 in1011.2 mb 0.00 in0.0 mm 0.00 in0.0 mm 0.97 in24.6 mm
03:14 PM 94.3°F34.6°C 79.7°F26.5°C 63% 1.1 mph SSW1.8 kmh SSW 9.9 mph15.9 kmh 29.86 in1011.2 mb 0.00 in0.0 mm 0.00 in0.0 mm 0.97 in24.6 mm
03:13 PM 95.0°F35.0°C 80.4°F26.9°C 63% 3.7 mph S6.0 kmh S 9.9 mph15.9 kmh 29.87 in1011.5 mb 0.00 in0.0 mm 0.00 in0.0 mm 0.97 in24.6 mm
03:12 PM 95.4°F35.2°C 80.3°F26.8°C 62% 3.2 mph S5.1 kmh S 9.9 mph15.9 kmh 29.87 in1011.5 mb 0.00 in0.0 mm 0.00 in0.0 mm 0.97 in24.6 mm
03:11 PM 95.7°F35.4°C 80.6°F27.0°C 62% 4.2 mph SSE6.8 kmh SSE 9.9 mph15.9 kmh 29.87 in1011.5 mb 0.00 in0.0 mm 0.00 in0.0 mm 0.97 in24.6 mm
03:10 PM 96.1°F35.6°C 80.9°F27.2°C 62% 7.3 mph SSE11.7 kmh SSE 9.9 mph15.9 kmh 29.87 in1011.5 mb 0.00 in0.0 mm 0.00 in0.0 mm 0.97 in24.6 mm
03:09 PM 96.4°F35.8°C 80.7°F27.1°C 61% 3.2 mph SW5.1 kmh SW 9.9 mph15.9 kmh 29.87 in1011.5 mb 0.00 in0.0 mm 0.00 in0.0 mm 0.97 in24.6 mm
03:08 PM 96.4°F35.8°C 80.7°F27.1°C 61% Calm Calm 9.9 mph15.9 kmh 29.87 in1011.5 mb 0.00 in0.0 mm 0.00 in0.0 mm 0.97 in24.6 mm
03:07 PM 97.7°F36.5°C 80.9°F27.2°C 59% 7.3 mph WNW11.7 kmh WNW 9.9 mph15.9 kmh 29.87 in1011.5 mb 0.00 in0.0 mm 0.00 in0.0 mm 0.97 in24.6 mm
03:06 PM 98.1°F36.7°C 80.7°F27.1°C 58% 2.7 mph S4.3 kmh S 8.3 mph13.4 kmh 29.87 in1011.5 mb 0.00 in0.0 mm 0.00 in0.0 mm 0.97 in24.6 mm
03:05 PM 98.4°F36.9°C 81.0°F27.2°C 58% 8.3 mph SSE13.4 kmh SSE 8.3 mph13.4 kmh 29.87 in1011.5 mb 0.00 in0.0 mm 0.00 in0.0 mm 0.97 in24.6 mm
03:04 PM 98.8°F37.1°C 81.4°F27.4°C 58% Calm Calm 6.8 mph10.9 kmh 29.87 in1011.5 mb 0.00 in0.0 mm 0.00 in0.0 mm 0.97 in24.6 mm
03:03 PM 99.1°F37.3°C 81.1°F27.3°C 57% Calm Calm 6.8 mph10.9 kmh 29.87 in1011.5 mb 0.00 in0.0 mm 0.00 in0.0 mm 0.97 in24.6 mm
03:02 PM 99.3°F37.4°C 81.3°F27.4°C 57% Calm Calm 6.8 mph10.9 kmh 29.87 in1011.5 mb 0.00 in0.0 mm 0.00 in0.0 mm 0.97 in24.6 mm
03:01 PM 98.2°F36.8°C 81.4°F27.4°C 59% 2.7 mph N4.3 kmh N 6.8 mph10.9 kmh 29.87 in1011.5 mb 0.00 in0.0 mm 0.00 in0.0 mm 0.97 in24.6 mm
03:00 PM 97.9°F36.6°C 81.1°F27.3°C 59% Calm Calm 6.8 mph10.9 kmh 29.87 in1011.5 mb 0.00 in0.0 mm 0.00 in0.0 mm 0.97 in24.6 mm
02:59 PM 98.2°F36.8°C 80.8°F27.1°C 58% 3.7 mph S6.0 kmh S 6.8 mph10.9 kmh 29.87 in1011.5 mb 0.00 in0.0 mm 0.00 in0.0 mm 0.97 in24.6 mm
02:58 PM 98.2°F36.8°C 80.8°F27.1°C 58% Calm Calm 5.3 mph8.5 kmh 29.87 in1011.5 mb 0.00 in0.0 mm 0.00 in0.0 mm 0.97 in24.6 mm
02:57 PM 98.4°F36.9°C 81.0°F27.2°C 58% 3.7 mph W6.0 kmh W 5.3 mph8.5 kmh 29.87 in1011.5 mb 0.00 in0.0 mm 0.00 in0.0 mm 0.97 in24.6 mm
02:56 PM 98.6°F37.0°C 80.7°F27.1°C 57% 5.3 mph SSE8.5 kmh SSE 8.3 mph13.4 kmh 29.87 in1011.5 mb 0.00 in0.0 mm 0.00 in0.0 mm 0.97 in24.6 mm
02:55 PM 99.0°F37.2°C 81.0°F27.2°C 57% 4.7 mph SSE7.6 kmh SSE 8.3 mph13.4 kmh 29.87 in1011.5 mb 0.00 in0.0 mm 0.00 in0.0 mm 0.97 in24.6 mm
02:54 PM 99.3°F37.4°C 81.3°F27.4°C 57% 3.7 mph S6.0 kmh S 8.3 mph13.4 kmh 29.87 in1011.5 mb 0.00 in0.0 mm 0.00 in0.0 mm 0.97 in24.6 mm
02:53 PM 99.1°F37.3°C 81.1°F27.3°C 57% Calm Calm 8.3 mph13.4 kmh 29.87 in1011.5 mb 0.00 in0.0 mm 0.00 in0.0 mm 0.97 in24.6 mm
02:52 PM 99.3°F37.4°C 80.8°F27.1°C 56% 2.7 mph ESE4.3 kmh ESE 8.3 mph13.4 kmh 29.87 in1011.5 mb 0.00 in0.0 mm 0.00 in0.0 mm 0.97 in24.6 mm
02:51 PM 99.3°F37.4°C 80.8°F27.1°C 56% 4.2 mph ESE6.8 kmh ESE 8.3 mph13.4 kmh 29.88 in1011.9 mb 0.00 in0.0 mm 0.00 in0.0 mm 0.97 in24.6 mm
02:50 PM 99.3°F37.4°C 80.8°F27.1°C 56% Calm Calm 8.3 mph13.4 kmh 29.88 in1011.9 mb 0.00 in0.0 mm 0.00 in0.0 mm 0.97 in24.6 mm
02:49 PM 99.7°F37.6°C 81.2°F27.3°C 56% 2.7 mph SSE4.3 kmh SSE 8.3 mph13.4 kmh 29.88 in1011.9 mb 0.00 in0.0 mm 0.00 in0.0 mm 0.97 in24.6 mm
02:48 PM 99.7°F37.6°C 81.2°F27.3°C 56% Calm Calm 8.3 mph13.4 kmh 29.88 in1011.9 mb 0.00 in0.0 mm 0.00 in0.0 mm 0.97 in24.6 mm
02:47 PM 99.7°F37.6°C 81.2°F27.3°C 56% 4.2 mph ESE6.8 kmh ESE 8.3 mph13.4 kmh 29.88 in1011.9 mb 0.00 in0.0 mm 0.00 in0.0 mm 0.97 in24.6 mm
02:46 PM 99.3°F37.4°C 81.3°F27.4°C 57% 2.2 mph S3.5 kmh S 4.2 mph6.8 kmh 29.88 in1011.9 mb 0.00 in0.0 mm 0.00 in0.0 mm 0.97 in24.6 mm
02:45 PM 99.3°F37.4°C 80.8°F27.1°C 56% Calm Calm 4.2 mph6.8 kmh 29.88 in1011.9 mb 0.00 in0.0 mm 0.00 in0.0 mm 0.97 in24.6 mm
02:44 PM 99.3°F37.4°C 80.8°F27.1°C 56% 4.2 mph SE6.8 kmh SE 4.2 mph6.8 kmh 29.88 in1011.9 mb 0.00 in0.0 mm 0.00 in0.0 mm 0.97 in24.6 mm
02:43 PM 99.1°F37.3°C 81.1°F27.3°C 57% 4.2 mph W6.8 kmh W 5.8 mph9.3 kmh 29.88 in1011.9 mb 0.00 in0.0 mm 0.00 in0.0 mm 0.97 in24.6 mm
02:42 PM 99.5°F37.5°C 81.0°F27.2°C 56% 1.7 mph W2.7 kmh W 5.8 mph9.3 kmh 29.88 in1011.9 mb 0.00 in0.0 mm 0.00 in0.0 mm 0.97 in24.6 mm
02:41 PM 99.9°F37.7°C 81.3°F27.4°C 56% 2.7 mph S4.3 kmh S 5.8 mph9.3 kmh 29.88 in1011.9 mb 0.00 in0.0 mm 0.00 in0.0 mm 0.97 in24.6 mm
02:40 PM 99.7°F37.6°C 81.2°F27.3°C 56% Calm Calm 8.3 mph13.4 kmh 29.88 in1011.9 mb 0.00 in0.0 mm 0.00 in0.0 mm 0.97 in24.6 mm
02:39 PM 99.5°F37.5°C 81.0°F27.2°C 56% Calm Calm 8.3 mph13.4 kmh 29.88 in1011.9 mb 0.00 in0.0 mm 0.00 in0.0 mm 0.97 in24.6 mm
02:38 PM 98.6°F37.0°C 80.7°F27.1°C 57% Calm Calm 8.3 mph13.4 kmh 29.89 in1012.2 mb 0.00 in0.0 mm 0.00 in0.0 mm 0.97 in24.6 mm
02:37 PM 98.4°F36.9°C 81.0°F27.2°C 58% Calm Calm 8.3 mph13.4 kmh 29.89 in1012.2 mb 0.00 in0.0 mm 0.00 in0.0 mm 0.97 in24.6 mm
02:36 PM 98.1°F36.7°C 80.7°F27.1°C 58% Calm Calm 8.3 mph13.4 kmh 29.89 in1012.2 mb 0.00 in0.0 mm 0.00 in0.0 mm 0.97 in24.6 mm
02:35 PM 97.7°F36.5°C 80.4°F26.9°C 58% Calm Calm 8.3 mph13.4 kmh 29.89 in1012.2 mb 0.00 in0.0 mm 0.00 in0.0 mm 0.97 in24.6 mm
02:34 PM 97.7°F36.5°C 80.4°F26.9°C 58% 5.8 mph S9.3 kmh S 8.3 mph13.4 kmh 29.89 in1012.2 mb 0.00 in0.0 mm 0.00 in0.0 mm 0.97 in24.6 mm
02:33 PM 97.7°F36.5°C 80.4°F26.9°C 58% 1.7 mph SSE2.7 kmh SSE 8.3 mph13.4 kmh 29.89 in1012.2 mb 0.00 in0.0 mm 0.00 in0.0 mm 0.97 in24.6 mm
02:32 PM 97.7°F36.5°C 80.4°F26.9°C 58% 3.2 mph SW5.1 kmh SW 8.3 mph13.4 kmh 29.89 in1012.2 mb 0.00 in0.0 mm 0.00 in0.0 mm 0.97 in24.6 mm
02:31 PM 98.2°F36.8°C 80.3°F26.8°C 57% 5.3 mph SW8.5 kmh SW 8.3 mph13.4 kmh 29.89 in1012.2 mb 0.00 in0.0 mm 0.00 in0.0 mm 0.97 in24.6 mm
02:30 PM 98.6°F37.0°C 80.1°F26.7°C 56% 7.8 mph ESE12.6 kmh ESE 7.8 mph12.6 kmh 29.89 in1012.2 mb 0.00 in0.0 mm 0.00 in0.0 mm 0.97 in24.6 mm
02:29 PM 98.6°F37.0°C 80.1°F26.7°C 56% Calm Calm 6.8 mph10.9 kmh 29.89 in1012.2 mb 0.00 in0.0 mm 0.00 in0.0 mm 0.97 in24.6 mm
02:28 PM 98.4°F36.9°C 80.5°F26.9°C 57% 6.3 mph ESE10.1 kmh ESE 6.8 mph10.9 kmh 29.89 in1012.2 mb 0.00 in0.0 mm 0.00 in0.0 mm 0.97 in24.6 mm
02:27 PM 98.1°F36.7°C 80.2°F26.8°C 57% 2.7 mph N4.3 kmh N 6.8 mph10.9 kmh 29.89 in1012.2 mb 0.00 in0.0 mm 0.00 in0.0 mm 0.97 in24.6 mm
02:26 PM 97.9°F36.6°C 80.0°F26.7°C 57% 4.7 mph SSE7.6 kmh SSE 6.8 mph10.9 kmh 29.89 in1012.2 mb 0.00 in0.0 mm 0.00 in0.0 mm 0.97 in24.6 mm
02:25 PM 97.9°F36.6°C 80.0°F26.7°C 57% 2.2 mph SSE3.5 kmh SSE 6.8 mph10.9 kmh 29.89 in1012.2 mb 0.00 in0.0 mm 0.00 in0.0 mm 0.97 in24.6 mm
02:24 PM 97.9°F36.6°C 80.0°F26.7°C 57% 3.7 mph SSE6.0 kmh SSE 6.8 mph10.9 kmh 29.89 in1012.2 mb 0.00 in0.0 mm 0.00 in0.0 mm 0.97 in24.6 mm
02:23 PM 99.0°F37.2°C 80.5°F26.9°C 56% 4.2 mph SSE6.8 kmh SSE 6.8 mph10.9 kmh 29.89 in1012.2 mb 0.00 in0.0 mm 0.00 in0.0 mm 0.97 in24.6 mm
02:22 PM 99.3°F37.4°C 80.8°F27.1°C 56% 5.3 mph SSE8.5 kmh SSE 6.8 mph10.9 kmh 29.89 in1012.2 mb 0.00 in0.0 mm 0.00 in0.0 mm 0.97 in24.6 mm
02:21 PM 99.3°F37.4°C 80.8°F27.1°C 56% 3.7 mph SE6.0 kmh SE 6.8 mph10.9 kmh 29.89 in1012.2 mb 0.00 in0.0 mm 0.00 in0.0 mm 0.97 in24.6 mm
02:20 PM 99.1°F37.3°C 80.6°F27.0°C 56% Calm Calm 6.8 mph10.9 kmh 29.89 in1012.2 mb 0.00 in0.0 mm 0.00 in0.0 mm 0.97 in24.6 mm
02:19 PM 99.0°F37.2°C 80.5°F26.9°C 56% Calm Calm 6.8 mph10.9 kmh 29.89 in1012.2 mb 0.00 in0.0 mm 0.00 in0.0 mm 0.97 in24.6 mm
02:18 PM 99.3°F37.4°C 80.8°F27.1°C 56% 2.7 mph NW4.3 kmh NW 6.8 mph10.9 kmh 29.89 in1012.2 mb 0.00 in0.0 mm 0.00 in0.0 mm 0.97 in24.6 mm
02:17 PM 99.3°F37.4°C 80.8°F27.1°C 56% 3.2 mph S5.1 kmh S 6.8 mph10.9 kmh 29.89 in1012.2 mb 0.00 in0.0 mm 0.00 in0.0 mm 0.97 in24.6 mm
02:16 PM 98.2°F36.8°C 80.8°F27.1°C 58% Calm Calm 6.8 mph10.9 kmh 29.89 in1012.2 mb 0.00 in0.0 mm 0.00 in0.0 mm 0.97 in24.6 mm
02:15 PM 97.9°F36.6°C 80.6°F27.0°C 58% 3.7 mph SSE6.0 kmh SSE 6.8 mph10.9 kmh 29.89 in1012.2 mb 0.00 in0.0 mm 0.00 in0.0 mm 0.97 in24.6 mm
02:14 PM 98.2°F36.8°C 80.3°F26.8°C 57% 4.2 mph S6.8 kmh S 6.8 mph10.9 kmh 29.90 in1012.5 mb 0.00 in0.0 mm 0.00 in0.0 mm 0.97 in24.6 mm
02:13 PM 99.1°F37.3°C 80.6°F27.0°C 56% 6.3 mph ESE10.1 kmh ESE 6.3 mph10.1 kmh 29.90 in1012.5 mb 0.00 in0.0 mm 0.00 in0.0 mm 0.97 in24.6 mm
02:12 PM 99.0°F37.2°C 80.5°F26.9°C 56% 3.2 mph ESE5.1 kmh ESE 5.3 mph8.5 kmh 29.90 in1012.5 mb 0.00 in0.0 mm 0.00 in0.0 mm 0.97 in24.6 mm
02:11 PM 99.1°F37.3°C 80.6°F27.0°C 56% 3.7 mph ESE6.0 kmh ESE 5.3 mph8.5 kmh 29.90 in1012.5 mb 0.00 in0.0 mm 0.00 in0.0 mm 0.97 in24.6 mm
02:10 PM 98.4°F36.9°C 80.5°F26.9°C 57% 4.2 mph SE6.8 kmh SE 5.3 mph8.5 kmh 29.90 in1012.5 mb 0.00 in0.0 mm 0.00 in0.0 mm 0.97 in24.6 mm
02:09 PM 98.8°F37.1°C 80.9°F27.2°C 57% 1.1 mph SE1.8 kmh SE 5.8 mph9.3 kmh 29.90 in1012.5 mb 0.00 in0.0 mm 0.00 in0.0 mm 0.97 in24.6 mm
02:08 PM 98.4°F36.9°C 80.5°F26.9°C 57% 2.7 mph S4.3 kmh S 5.8 mph9.3 kmh 29.90 in1012.5 mb 0.00 in0.0 mm 0.00 in0.0 mm 0.97 in24.6 mm
02:07 PM 98.4°F36.9°C 80.5°F26.9°C 57% Calm Calm 5.8 mph9.3 kmh 29.90 in1012.5 mb 0.00 in0.0 mm 0.00 in0.0 mm 0.97 in24.6 mm
02:06 PM 98.6°F37.0°C 80.7°F27.1°C 57% Calm Calm 5.8 mph9.3 kmh 29.90 in1012.5 mb 0.00 in0.0 mm 0.00 in0.0 mm 0.97 in24.6 mm
02:05 PM 97.7°F36.5°C 80.4°F26.9°C 58% Calm Calm 5.8 mph9.3 kmh 29.90 in1012.5 mb 0.00 in0.0 mm 0.00 in0.0 mm 0.97 in24.6 mm
02:04 PM 97.7°F36.5°C 80.4°F26.9°C 58% 3.2 mph S5.1 kmh S 7.3 mph11.7 kmh 29.90 in1012.5 mb 0.00 in0.0 mm 0.00 in0.0 mm 0.97 in24.6 mm
02:03 PM 97.5°F36.4°C 80.2°F26.8°C 58% Calm Calm 7.3 mph11.7 kmh 29.90 in1012.5 mb 0.00 in0.0 mm 0.00 in0.0 mm 0.97 in24.6 mm
02:02 PM 97.7°F36.5°C 80.4°F26.9°C 58% 5.3 mph S8.5 kmh S 7.3 mph11.7 kmh 29.89 in1012.2 mb 0.00 in0.0 mm 0.00 in0.0 mm 0.97 in24.6 mm
02:01 PM 97.5°F36.4°C 80.2°F26.8°C 58% Calm Calm 7.3 mph11.7 kmh 29.89 in1012.2 mb 0.00 in0.0 mm 0.00 in0.0 mm 0.97 in24.6 mm
02:00 PM 97.3°F36.3°C 80.5°F26.9°C 59% 2.2 mph WNW3.5 kmh WNW 7.3 mph11.7 kmh 29.89 in1012.2 mb 0.00 in0.0 mm 0.00 in0.0 mm 0.97 in24.6 mm
01:59 PM 97.9°F36.6°C 80.6°F27.0°C 58% 5.8 mph SSE9.3 kmh SSE 7.3 mph11.7 kmh 29.89 in1012.2 mb 0.00 in0.0 mm 0.00 in0.0 mm 0.97 in24.6 mm
01:58 PM 98.4°F36.9°C 79.9°F26.6°C 56% 1.7 mph ESE2.7 kmh ESE 7.3 mph11.7 kmh 29.89 in1012.2 mb 0.00 in0.0 mm 0.00 in0.0 mm 0.97 in24.6 mm
01:57 PM 98.6°F37.0°C 80.1°F26.7°C 56% 3.2 mph ESE5.1 kmh ESE 7.3 mph11.7 kmh 29.89 in1012.2 mb 0.00 in0.0 mm 0.00 in0.0 mm 0.97 in24.6 mm
01:56 PM 98.6°F37.0°C 80.1°F26.7°C 56% 3.2 mph S5.1 kmh S 7.3 mph11.7 kmh 29.89 in1012.2 mb 0.00 in0.0 mm 0.00 in0.0 mm 0.97 in24.6 mm
01:55 PM 98.6°F37.0°C 80.1°F26.7°C 56% 4.7 mph SSE7.6 kmh SSE 7.3 mph11.7 kmh 29.89 in1012.2 mb 0.00 in0.0 mm 0.00 in0.0 mm 0.97 in24.6 mm
01:54 PM 98.6°F37.0°C 80.1°F26.7°C 56% 2.7 mph W4.3 kmh W 7.3 mph11.7 kmh 29.89 in1012.2 mb 0.00 in0.0 mm 0.00 in0.0 mm 0.97 in24.6 mm
01:53 PM 100.2°F37.9°C 81.1°F27.3°C 55% 2.7 mph SE4.3 kmh SE 7.3 mph11.7 kmh 29.89 in1012.2 mb 0.00 in0.0 mm 0.00 in0.0 mm 0.97 in24.6 mm
01:52 PM 100.2°F37.9°C 81.6°F27.6°C 56% 3.2 mph S5.1 kmh S 7.3 mph11.7 kmh 29.89 in1012.2 mb 0.00 in0.0 mm 0.00 in0.0 mm 0.97 in24.6 mm
01:51 PM 99.9°F37.7°C 81.3°F27.4°C 56% 1.1 mph SSW1.8 kmh SSW 4.7 mph7.6 kmh 29.89 in1012.2 mb 0.00 in0.0 mm 0.00 in0.0 mm 0.97 in24.6 mm
01:50 PM 100.0°F37.8°C 80.9°F27.2°C 55% 2.2 mph SE3.5 kmh SE 4.7 mph7.6 kmh 29.89 in1012.2 mb 0.00 in0.0 mm 0.00 in0.0 mm 0.97 in24.6 mm
01:49 PM 100.4°F38.0°C 80.7°F27.1°C 54% Calm Calm 4.7 mph7.6 kmh 29.90 in1012.5 mb 0.00 in0.0 mm 0.00 in0.0 mm 0.97 in24.6 mm
01:48 PM 99.9°F37.7°C 80.2°F26.8°C 54% Calm Calm 5.8 mph9.3 kmh 29.90 in1012.5 mb 0.00 in0.0 mm 0.00 in0.0 mm 0.97 in24.6 mm
01:47 PM 99.7°F37.6°C 80.6°F27.0°C 55% 1.7 mph SW2.7 kmh SW 6.8 mph10.9 kmh 29.90 in1012.5 mb 0.00 in0.0 mm 0.00 in0.0 mm 0.97 in24.6 mm
01:46 PM 100.0°F37.8°C 80.9°F27.2°C 55% Calm Calm 6.8 mph10.9 kmh 29.90 in1012.5 mb 0.00 in0.0 mm 0.00 in0.0 mm 0.97 in24.6 mm
01:45 PM 100.4°F38.0°C 80.7°F27.1°C 54% 2.7 mph NE4.3 kmh NE 6.8 mph10.9 kmh 29.90 in1012.5 mb 0.00 in0.0 mm 0.00 in0.0 mm 0.97 in24.6 mm
01:44 PM 100.6°F38.1°C 80.9°F27.2°C 54% 3.2 mph SSW5.1 kmh SSW 6.8 mph10.9 kmh 29.90 in1012.5 mb 0.00 in0.0 mm 0.00 in0.0 mm 0.97 in24.6 mm
01:43 PM 100.4°F38.0°C 80.7°F27.1°C 54% Calm Calm 6.8 mph10.9 kmh 29.90 in1012.5 mb 0.00 in0.0 mm 0.00 in0.0 mm 0.97 in24.6 mm
01:42 PM 100.6°F38.1°C 80.9°F27.2°C 54% 2.7 mph S4.3 kmh S 6.8 mph10.9 kmh 29.90 in1012.5 mb 0.00 in0.0 mm 0.00 in0.0 mm 0.97 in24.6 mm
01:41 PM 100.8°F38.2°C 80.5°F26.9°C 53% 4.7 mph SE7.6 kmh SE 6.8 mph10.9 kmh 29.90 in1012.5 mb 0.00 in0.0 mm 0.00 in0.0 mm 0.97 in24.6 mm
01:40 PM 100.8°F38.2°C 80.5°F26.9°C 53% 2.7 mph ESE4.3 kmh ESE 6.8 mph10.9 kmh 29.90 in1012.5 mb 0.00 in0.0 mm 0.00 in0.0 mm 0.97 in24.6 mm
01:39 PM 100.4°F38.0°C 80.7°F27.1°C 54% Calm Calm 6.8 mph10.9 kmh 29.90 in1012.5 mb 0.00 in0.0 mm 0.00 in0.0 mm 0.97 in24.6 mm
01:38 PM 100.0°F37.8°C 80.3°F26.8°C 54% 5.8 mph W9.3 kmh W 6.8 mph10.9 kmh 29.90 in1012.5 mb 0.00 in0.0 mm 0.00 in0.0 mm 0.97 in24.6 mm
01:37 PM 99.7°F37.6°C 80.6°F27.0°C 55% Calm Calm 3.2 mph5.1 kmh 29.91 in1012.9 mb 0.00 in0.0 mm 0.00 in0.0 mm 0.97 in24.6 mm
01:36 PM 99.3°F37.4°C 80.2°F26.8°C 55% Calm Calm 3.2 mph5.1 kmh 29.91 in1012.9 mb 0.00 in0.0 mm 0.00 in0.0 mm 0.97 in24.6 mm
01:35 PM 98.8°F37.1°C 79.8°F26.6°C 55% Calm Calm 3.2 mph5.1 kmh 29.91 in1012.9 mb 0.00 in0.0 mm 0.00 in0.0 mm 0.97 in24.6 mm
01:34 PM 100.2°F37.9°C 78.7°F25.9°C 51% 2.2 mph SW3.5 kmh SW 3.2 mph5.1 kmh 29.91 in1012.9 mb 0.00 in0.0 mm 0.00 in0.0 mm 0.97 in24.6 mm
01:33 PM 101.1°F38.4°C 77.7°F25.4°C 48% 3.2 mph SW5.1 kmh SW 3.2 mph5.1 kmh 29.91 in1012.9 mb 0.00 in0.0 mm 0.00 in0.0 mm 0.97 in24.6 mm
01:32 PM 101.3°F38.5°C 77.9°F25.5°C 48% Calm Calm 2.7 mph4.3 kmh 29.91 in1012.9 mb 0.00 in0.0 mm 0.00 in0.0 mm 0.97 in24.6 mm
01:31 PM 101.3°F38.5°C 77.9°F25.5°C 48% Calm Calm 3.2 mph5.1 kmh 29.91 in1012.9 mb 0.00 in0.0 mm 0.00 in0.0 mm 0.97 in24.6 mm
01:30 PM 101.3°F38.5°C 77.9°F25.5°C 48% Calm Calm 3.7 mph6.0 kmh 29.91 in1012.9 mb 0.00 in0.0 mm 0.00 in0.0 mm 0.97 in24.6 mm
01:29 PM 101.5°F38.6°C 78.1°F25.6°C 48% Calm Calm 3.7 mph6.0 kmh 29.91 in1012.9 mb 0.00 in0.0 mm 0.00 in0.0 mm 0.97 in24.6 mm
01:28 PM 101.5°F38.6°C 78.7°F25.9°C 49% Calm Calm 3.7 mph6.0 kmh 29.91 in1012.9 mb 0.00 in0.0 mm 0.00 in0.0 mm 0.97 in24.6 mm
01:27 PM 101.1°F38.4°C 78.4°F25.8°C 49% Calm Calm 3.7 mph6.0 kmh 29.91 in1012.9 mb 0.00 in0.0 mm 0.00 in0.0 mm 0.97 in24.6 mm
01:26 PM 100.8°F38.2°C 78.1°F25.6°C 49% 2.7 mph W4.3 kmh W 3.7 mph6.0 kmh 29.91 in1012.9 mb 0.00 in0.0 mm 0.00 in0.0 mm 0.97 in24.6 mm
01:25 PM 100.9°F38.3°C 78.2°F25.7°C 49% Calm Calm 3.7 mph6.0 kmh 29.91 in1012.9 mb 0.00 in0.0 mm 0.00 in0.0 mm 0.97 in24.6 mm
01:24 PM 101.1°F38.4°C 78.4°F25.8°C 49% Calm Calm 3.7 mph6.0 kmh 29.91 in1012.9 mb 0.00 in0.0 mm 0.00 in0.0 mm 0.97 in24.6 mm
01:23 PM 101.5°F38.6°C 78.1°F25.6°C 48% Calm Calm 3.7 mph6.0 kmh 29.91 in1012.9 mb 0.00 in0.0 mm 0.00 in0.0 mm 0.97 in24.6 mm
01:22 PM 100.9°F38.3°C 78.2°F25.7°C 49% Calm Calm 3.7 mph6.0 kmh 29.91 in1012.9 mb 0.00 in0.0 mm 0.00 in0.0 mm 0.97 in24.6 mm
01:21 PM 100.4°F38.0°C 78.3°F25.7°C 50% 3.2 mph ESE5.1 kmh ESE 3.7 mph6.0 kmh 29.91 in1012.9 mb 0.00 in0.0 mm 0.00 in0.0 mm 0.97 in24.6 mm
01:20 PM 100.2°F37.9°C 78.7°F25.9°C 51% Calm Calm 2.7 mph4.3 kmh 29.91 in1012.9 mb 0.00 in0.0 mm 0.00 in0.0 mm 0.97 in24.6 mm
01:19 PM 100.4°F38.0°C 78.9°F26.1°C 51% Calm Calm 2.7 mph4.3 kmh 29.91 in1012.9 mb 0.00 in0.0 mm 0.00 in0.0 mm 0.97 in24.6 mm
01:18 PM 100.2°F37.9°C 78.1°F25.6°C 50% Calm Calm 2.7 mph4.3 kmh 29.91 in1012.9 mb 0.00 in0.0 mm 0.00 in0.0 mm 0.97 in24.6 mm
01:17 PM 100.2°F37.9°C 77.5°F25.3°C 49% Calm Calm -- 29.91 in1012.9 mb 0.00 in0.0 mm 0.00 in0.0 mm 0.97 in24.6 mm
01:16 PM 100.6°F38.1°C 77.9°F25.5°C 49% Calm Calm -- 29.91 in1012.9 mb 0.00 in0.0 mm 0.00 in0.0 mm 0.97 in24.6 mm
01:15 PM 100.6°F38.1°C 77.9°F25.5°C 49% Calm Calm -- 29.91 in1012.9 mb 0.00 in0.0 mm 0.00 in0.0 mm 0.97 in24.6 mm
01:14 PM 100.0°F37.8°C 77.3°F25.2°C 49% Calm Calm -- 29.91 in1012.9 mb 0.00 in0.0 mm 0.00 in0.0 mm 0.97 in24.6 mm
01:13 PM 100.0°F37.8°C 78.0°F25.6°C 50% Calm Calm 3.2 mph5.1 kmh 29.91 in1012.9 mb 0.00 in0.0 mm 0.00 in0.0 mm 0.97 in24.6 mm
01:12 PM 100.0°F37.8°C 78.0°F25.6°C 50% Calm Calm 5.3 mph8.5 kmh 29.91 in1012.9 mb 0.00 in0.0 mm 0.00 in0.0 mm 0.97 in24.6 mm
01:11 PM 99.7°F37.6°C 78.3°F25.7°C 51% Calm Calm 5.3 mph8.5 kmh 29.91 in1012.9 mb 0.00 in0.0 mm 0.00 in0.0 mm 0.97 in24.6 mm
01:10 PM 99.1°F37.3°C 77.7°F25.4°C 51% Calm Calm 5.3 mph8.5 kmh 29.91 in1012.9 mb 0.00 in0.0 mm 0.00 in0.0 mm 0.97 in24.6 mm
01:09 PM 99.3°F37.4°C 77.9°F25.5°C 51% Calm Calm 5.3 mph8.5 kmh 29.91 in1012.9 mb 0.00 in0.0 mm 0.00 in0.0 mm 0.97 in24.6 mm
01:08 PM 99.0°F37.2°C 77.6°F25.3°C 51% Calm Calm 5.3 mph8.5 kmh 29.91 in1012.9 mb 0.00 in0.0 mm 0.00 in0.0 mm 0.97 in24.6 mm
01:07 PM 98.6°F37.0°C 77.3°F25.2°C 51% Calm Calm 5.3 mph8.5 kmh 29.91 in1012.9 mb 0.00 in0.0 mm 0.00 in0.0 mm 0.97 in24.6 mm
01:06 PM 98.4°F36.9°C 77.1°F25.1°C 51% Calm Calm 5.3 mph8.5 kmh 29.91 in1012.9 mb 0.00 in0.0 mm 0.00 in0.0 mm 0.97 in24.6 mm
01:05 PM 98.4°F36.9°C 77.1°F25.1°C 51% Calm Calm 5.3 mph8.5 kmh 29.91 in1012.9 mb 0.00 in0.0 mm 0.00 in0.0 mm 0.97 in24.6 mm
01:04 PM 98.2°F36.8°C 76.9°F24.9°C 51% Calm Calm 5.3 mph8.5 kmh 29.91 in1012.9 mb 0.00 in0.0 mm 0.00 in0.0 mm 0.97 in24.6 mm
01:03 PM 98.4°F36.9°C 77.1°F25.1°C 51% 3.2 mph N5.1 kmh N 5.3 mph8.5 kmh 29.91 in1012.9 mb 0.00 in0.0 mm 0.00 in0.0 mm 0.97 in24.6 mm
01:02 PM 98.4°F36.9°C 77.7°F25.4°C 52% 1.7 mph W2.7 kmh W 5.3 mph8.5 kmh 29.91 in1012.9 mb 0.00 in0.0 mm 0.00 in0.0 mm 0.97 in24.6 mm
01:01 PM 98.4°F36.9°C 77.7°F25.4°C 52% Calm Calm 5.3 mph8.5 kmh 29.91 in1012.9 mb 0.00 in0.0 mm 0.00 in0.0 mm 0.97 in24.6 mm
01:00 PM 98.4°F36.9°C 77.7°F25.4°C 52% Calm Calm 5.3 mph8.5 kmh 29.91 in1012.9 mb 0.00 in0.0 mm 0.00 in0.0 mm 0.97 in24.6 mm
12:59 PM 98.8°F37.1°C 77.5°F25.3°C 51% 2.7 mph WSW4.3 kmh WSW 5.3 mph8.5 kmh 29.91 in1012.9 mb 0.00 in0.0 mm 0.00 in0.0 mm 0.97 in24.6 mm
12:58 PM 98.6°F37.0°C 78.5°F25.8°C 53% 5.3 mph SW8.5 kmh SW 5.3 mph8.5 kmh 29.91 in1012.9 mb 0.00 in0.0 mm 0.00 in0.0 mm 0.97 in24.6 mm
12:57 PM 98.2°F36.8°C 77.5°F25.3°C 52% Calm Calm -- 29.91 in1012.9 mb 0.00 in0.0 mm 0.00 in0.0 mm 0.97 in24.6 mm
12:56 PM 98.4°F36.9°C 78.3°F25.7°C 53% Calm Calm 4.2 mph6.8 kmh 29.91 in1012.9 mb 0.00 in0.0 mm 0.00 in0.0 mm 0.97 in24.6 mm
12:55 PM 98.4°F36.9°C 78.3°F25.7°C 53% Calm Calm 4.2 mph6.8 kmh 29.91 in1012.9 mb 0.00 in0.0 mm 0.00 in0.0 mm 0.97 in24.6 mm
12:54 PM 98.4°F36.9°C 78.3°F25.7°C 53% Calm Calm 4.2 mph6.8 kmh 29.91 in1012.9 mb 0.00 in0.0 mm 0.00 in0.0 mm 0.97 in24.6 mm
12:53 PM 98.6°F37.0°C 78.5°F25.8°C 53% Calm Calm 6.8 mph10.9 kmh 29.91 in1012.9 mb 0.00 in0.0 mm 0.00 in0.0 mm 0.97 in24.6 mm
12:52 PM 98.4°F36.9°C 78.3°F25.7°C 53% Calm Calm 6.8 mph10.9 kmh 29.91 in1012.9 mb 0.00 in0.0 mm 0.00 in0.0 mm 0.97 in24.6 mm
12:51 PM 97.9°F36.6°C 78.4°F25.8°C 54% Calm Calm 6.8 mph10.9 kmh 29.91 in1012.9 mb 0.00 in0.0 mm 0.00 in0.0 mm 0.97 in24.6 mm
12:50 PM 97.7°F36.5°C 78.2°F25.7°C 54% Calm Calm 6.8 mph10.9 kmh 29.92 in1013.2 mb 0.00 in0.0 mm 0.00 in0.0 mm 0.97 in24.6 mm
12:49 PM 98.2°F36.8°C 78.7°F25.9°C 54% Calm Calm 6.8 mph10.9 kmh 29.92 in1013.2 mb 0.00 in0.0 mm 0.00 in0.0 mm 0.97 in24.6 mm
12:48 PM 99.0°F37.2°C 79.4°F26.3°C 54% Calm Calm 6.8 mph10.9 kmh 29.92 in1013.2 mb 0.00 in0.0 mm 0.00 in0.0 mm 0.97 in24.6 mm
12:47 PM 99.3°F37.4°C 79.7°F26.5°C 54% Calm Calm 6.8 mph10.9 kmh 29.92 in1013.2 mb 0.00 in0.0 mm 0.00 in0.0 mm 0.97 in24.6 mm
12:46 PM 99.0°F37.2°C 79.4°F26.3°C 54% Calm Calm 6.8 mph10.9 kmh 29.92 in1013.2 mb 0.00 in0.0 mm 0.00 in0.0 mm 0.97 in24.6 mm
12:45 PM 98.8°F37.1°C 78.6°F25.9°C 53% Calm Calm 6.8 mph10.9 kmh 29.92 in1013.2 mb 0.00 in0.0 mm 0.00 in0.0 mm 0.97 in24.6 mm
12:44 PM 98.2°F36.8°C 78.7°F25.9°C 54% Calm Calm 6.8 mph10.9 kmh 29.92 in1013.2 mb 0.00 in0.0 mm 0.00 in0.0 mm 0.97 in24.6 mm
12:43 PM 97.7°F36.5°C 78.7°F25.9°C 55% 6.8 mph N10.9 kmh N 6.8 mph10.9 kmh 29.92 in1013.2 mb 0.00 in0.0 mm 0.00 in0.0 mm 0.97 in24.6 mm
12:42 PM 97.7°F36.5°C 78.7°F25.9°C 55% Calm Calm -- 29.92 in1013.2 mb 0.00 in0.0 mm 0.00 in0.0 mm 0.97 in24.6 mm
12:41 PM 97.0°F36.1°C 78.6°F25.9°C 56% Calm Calm -- 29.92 in1013.2 mb 0.00 in0.0 mm 0.00 in0.0 mm 0.97 in24.6 mm
12:40 PM 97.0°F36.1°C 79.2°F26.2°C 57% Calm Calm -- 29.92 in1013.2 mb 0.00 in0.0 mm 0.00 in0.0 mm 0.97 in24.6 mm
12:39 PM 97.3°F36.3°C 79.5°F26.4°C 57% Calm Calm -- 29.92 in1013.2 mb 0.00 in0.0 mm 0.00 in0.0 mm 0.97 in24.6 mm
12:38 PM 97.0°F36.1°C 79.2°F26.2°C 57% Calm Calm -- 29.92 in1013.2 mb 0.00 in0.0 mm 0.00 in0.0 mm 0.97 in24.6 mm
12:37 PM 97.0°F36.1°C 78.6°F25.9°C 56% Calm Calm -- 29.92 in1013.2 mb 0.00 in0.0 mm 0.00 in0.0 mm 0.97 in24.6 mm
12:36 PM 97.0°F36.1°C 78.6°F25.9°C 56% Calm Calm -- 29.92 in1013.2 mb 0.00 in0.0 mm 0.00 in0.0 mm 0.97 in24.6 mm
12:35 PM 96.4°F35.8°C 79.2°F26.2°C 58% Calm Calm -- 29.92 in1013.2 mb 0.00 in0.0 mm 0.00 in0.0 mm 0.97 in24.6 mm
12:34 PM 96.4°F35.8°C 79.2°F26.2°C 58% Calm Calm 1.7 mph2.7 kmh 29.92 in1013.2 mb 0.00 in0.0 mm 0.00 in0.0 mm 0.97 in24.6 mm
12:33 PM 96.3°F35.7°C 79.1°F26.2°C 58% Calm Calm 4.2 mph6.8 kmh 29.92 in1013.2 mb 0.00 in0.0 mm 0.00 in0.0 mm 0.97 in24.6 mm
12:32 PM 96.1°F35.6°C 78.9°F26.1°C 58% Calm Calm 4.2 mph6.8 kmh 29.92 in1013.2 mb 0.00 in0.0 mm 0.00 in0.0 mm 0.97 in24.6 mm
12:31 PM 95.7°F35.4°C 79.5°F26.4°C 60% Calm Calm 4.2 mph6.8 kmh 29.92 in1013.2 mb 0.00 in0.0 mm 0.00 in0.0 mm 0.97 in24.6 mm
12:30 PM 95.4°F35.2°C 79.3°F26.3°C 60% Calm Calm 4.2 mph6.8 kmh 29.92 in1013.2 mb 0.00 in0.0 mm 0.00 in0.0 mm 0.97 in24.6 mm
12:29 PM 94.6°F34.8°C 78.5°F25.8°C 60% Calm Calm 4.2 mph6.8 kmh 29.92 in1013.2 mb 0.00 in0.0 mm 0.00 in0.0 mm 0.97 in24.6 mm
12:28 PM 95.0°F35.0°C 79.9°F26.6°C 62% Calm Calm 4.2 mph6.8 kmh 29.92 in1013.2 mb 0.00 in0.0 mm 0.00 in0.0 mm 0.97 in24.6 mm
12:27 PM 95.2°F35.1°C 80.1°F26.7°C 62% Calm Calm 4.2 mph6.8 kmh 29.92 in1013.2 mb 0.00 in0.0 mm 0.00 in0.0 mm 0.97 in24.6 mm
12:26 PM 94.6°F34.8°C 79.5°F26.4°C 62% Calm Calm 4.2 mph6.8 kmh 29.92 in1013.2 mb 0.00 in0.0 mm 0.00 in0.0 mm 0.97 in24.6 mm
12:25 PM 94.6°F34.8°C 79.5°F26.4°C 62% Calm Calm 4.2 mph6.8 kmh 29.93 in1013.5 mb 0.00 in0.0 mm 0.00 in0.0 mm 0.97 in24.6 mm
12:24 PM 94.3°F34.6°C 79.2°F26.2°C 62% 2.7 mph WNW4.3 kmh WNW 4.2 mph6.8 kmh 29.93 in1013.5 mb 0.00 in0.0 mm 0.00 in0.0 mm 0.97 in24.6 mm
12:23 PM 94.3°F34.6°C 79.2°F26.2°C 62% 4.2 mph WNW6.8 kmh WNW 4.2 mph6.8 kmh 29.93 in1013.5 mb 0.00 in0.0 mm 0.00 in0.0 mm 0.97 in24.6 mm
12:22 PM 94.6°F34.8°C 79.5°F26.4°C 62% 3.2 mph NW5.1 kmh NW 4.2 mph6.8 kmh 29.93 in1013.5 mb 0.00 in0.0 mm 0.00 in0.0 mm 0.97 in24.6 mm
12:21 PM 94.8°F34.9°C 79.7°F26.5°C 62% Calm Calm 3.7 mph6.0 kmh 29.93 in1013.5 mb 0.00 in0.0 mm 0.00 in0.0 mm 0.97 in24.6 mm
12:20 PM 94.3°F34.6°C 79.7°F26.5°C 63% 2.7 mph WNW4.3 kmh WNW 5.3 mph8.5 kmh 29.93 in1013.5 mb 0.00 in0.0 mm 0.00 in0.0 mm 0.97 in24.6 mm
12:19 PM 94.3°F34.6°C 79.7°F26.5°C 63% Calm Calm 5.3 mph8.5 kmh 29.93 in1013.5 mb 0.00 in0.0 mm 0.00 in0.0 mm 0.97 in24.6 mm
12:18 PM 94.1°F34.5°C 79.5°F26.4°C 63% Calm Calm 5.3 mph8.5 kmh 29.93 in1013.5 mb 0.00 in0.0 mm 0.00 in0.0 mm 0.97 in24.6 mm
12:17 PM 93.9°F34.4°C 79.3°F26.3°C 63% Calm Calm 5.3 mph8.5 kmh 29.93 in1013.5 mb 0.00 in0.0 mm 0.00 in0.0 mm 0.97 in24.6 mm
12:16 PM 93.7°F34.3°C 79.2°F26.2°C 63% 2.7 mph N4.3 kmh N 5.3 mph8.5 kmh 29.93 in1013.5 mb 0.00 in0.0 mm 0.00 in0.0 mm 0.97 in24.6 mm
12:15 PM 93.7°F34.3°C 79.2°F26.2°C 63% 2.2 mph NW3.5 kmh NW 5.3 mph8.5 kmh 29.93 in1013.5 mb 0.00 in0.0 mm 0.00 in0.0 mm 0.97 in24.6 mm
12:14 PM 93.9°F34.4°C 79.8°F26.6°C 64% Calm Calm 5.3 mph8.5 kmh 29.93 in1013.5 mb 0.00 in0.0 mm 0.00 in0.0 mm 0.97 in24.6 mm
12:13 PM 94.3°F34.6°C 79.7°F26.5°C 63% Calm Calm 5.3 mph8.5 kmh 29.93 in1013.5 mb 0.00 in0.0 mm 0.00 in0.0 mm 0.97 in24.6 mm
12:12 PM 94.3°F34.6°C 79.7°F26.5°C 63% 2.7 mph W4.3 kmh W 5.3 mph8.5 kmh 29.93 in1013.5 mb 0.00 in0.0 mm 0.00 in0.0 mm 0.97 in24.6 mm
12:11 PM 94.6°F34.8°C 79.5°F26.4°C 62% 3.2 mph NNE5.1 kmh NNE 5.3 mph8.5 kmh 29.93 in1013.5 mb 0.00 in0.0 mm 0.00 in0.0 mm 0.97 in24.6 mm
12:10 PM 94.5°F34.7°C 79.9°F26.6°C 63% Calm Calm 3.7 mph6.0 kmh 29.93 in1013.5 mb 0.00 in0.0 mm 0.00 in0.0 mm 0.97 in24.6 mm
12:09 PM 94.5°F34.7°C 79.9°F26.6°C 63% Calm Calm 3.7 mph6.0 kmh 29.93 in1013.5 mb 0.00 in0.0 mm 0.00 in0.0 mm 0.97 in24.6 mm
12:08 PM 94.5°F34.7°C 79.4°F26.3°C 62% Calm Calm 3.7 mph6.0 kmh 29.93 in1013.5 mb 0.00 in0.0 mm 0.00 in0.0 mm 0.97 in24.6 mm
12:07 PM 94.5°F34.7°C 79.9°F26.6°C 63% Calm Calm 3.7 mph6.0 kmh 29.93 in1013.5 mb 0.00 in0.0 mm 0.00 in0.0 mm 0.97 in24.6 mm
12:06 PM 93.7°F34.3°C 79.6°F26.4°C 64% 2.2 mph W3.5 kmh W 3.7 mph6.0 kmh 29.93 in1013.5 mb 0.00 in0.0 mm 0.00 in0.0 mm 0.97 in24.6 mm
12:05 PM 92.7°F33.7°C 79.6°F26.4°C 66% Calm Calm -- 29.93 in1013.5 mb 0.00 in0.0 mm 0.00 in0.0 mm 0.97 in24.6 mm
12:04 PM 92.7°F33.7°C 79.6°F26.4°C 66% Calm Calm -- 29.93 in1013.5 mb 0.00 in0.0 mm 0.00 in0.0 mm 0.97 in24.6 mm
12:03 PM 92.1°F33.4°C 79.1°F26.2°C 66% Calm Calm -- 29.93 in1013.5 mb 0.00 in0.0 mm 0.00 in0.0 mm 0.97 in24.6 mm
12:02 PM 92.1°F33.4°C 79.1°F26.2°C 66% Calm Calm -- 29.93 in1013.5 mb 0.00 in0.0 mm 0.00 in0.0 mm 0.97 in24.6 mm
12:01 PM 92.5°F33.6°C 79.4°F26.3°C 66% Calm Calm -- 29.93 in1013.5 mb 0.00 in0.0 mm 0.00 in0.0 mm 0.97 in24.6 mm
12:00 PM 92.3°F33.5°C 79.3°F26.3°C 66% Calm Calm -- 29.93 in1013.5 mb 0.00 in0.0 mm 0.00 in0.0 mm 0.97 in24.6 mm
11:59 AM 92.3°F33.5°C 79.3°F26.3°C 66% Calm Calm -- 29.93 in1013.5 mb 0.00 in0.0 mm 0.00 in0.0 mm 0.97 in24.6 mm
11:58 AM 92.3°F33.5°C 79.3°F26.3°C 66% Calm Calm -- 29.93 in1013.5 mb 0.00 in0.0 mm 0.00 in0.0 mm 0.97 in24.6 mm
11:57 AM 92.1°F33.4°C 79.1°F26.2°C 66% Calm Calm -- 29.93 in1013.5 mb 0.00 in0.0 mm 0.00 in0.0 mm 0.97 in24.6 mm
11:56 AM 92.1°F33.4°C 79.1°F26.2°C 66% Calm Calm -- 29.93 in1013.5 mb 0.00 in0.0 mm 0.00 in0.0 mm 0.97 in24.6 mm
11:55 AM 92.1°F33.4°C 79.1°F26.2°C 66% Calm Calm -- 29.93 in1013.5 mb 0.00 in0.0 mm 0.00 in0.0 mm 0.97 in24.6 mm
11:54 AM 92.3°F33.5°C 79.3°F26.3°C 66% Calm Calm 1.7 mph2.7 kmh 29.93 in1013.5 mb 0.00 in0.0 mm 0.00 in0.0 mm 0.97 in24.6 mm
11:53 AM 92.5°F33.6°C 79.0°F26.1°C 65% Calm Calm 3.7 mph6.0 kmh 29.93 in1013.5 mb 0.00 in0.0 mm 0.00 in0.0 mm 0.97 in24.6 mm
11:52 AM 92.5°F33.6°C 79.4°F26.3°C 66% Calm Calm 3.7 mph6.0 kmh 29.93 in1013.5 mb 0.00 in0.0 mm 0.00 in0.0 mm 0.97 in24.6 mm
11:51 AM 92.1°F33.4°C 79.1°F26.2°C 66% Calm Calm 3.7 mph6.0 kmh 29.93 in1013.5 mb 0.00 in0.0 mm 0.00 in0.0 mm 0.97 in24.6 mm
11:50 AM 92.3°F33.5°C 79.3°F26.3°C 66% Calm Calm 3.7 mph6.0 kmh 29.93 in1013.5 mb 0.00 in0.0 mm 0.00 in0.0 mm 0.97 in24.6 mm
11:49 AM 91.9°F33.3°C 79.3°F26.3°C 67% Calm Calm 3.7 mph6.0 kmh 29.93 in1013.5 mb 0.00 in0.0 mm 0.00 in0.0 mm 0.97 in24.6 mm
11:48 AM 91.6°F33.1°C 79.5°F26.4°C 68% Calm Calm 3.7 mph6.0 kmh 29.93 in1013.5 mb 0.00 in0.0 mm 0.00 in0.0 mm 0.97 in24.6 mm
11:47 AM 91.6°F33.1°C 79.5°F26.4°C 68% Calm Calm 3.7 mph6.0 kmh 29.93 in1013.5 mb 0.00 in0.0 mm 0.00 in0.0 mm 0.97 in24.6 mm
11:46 AM 91.2°F32.9°C 78.7°F25.9°C 67% Calm Calm 3.7 mph6.0 kmh 29.93 in1013.5 mb 0.00 in0.0 mm 0.00 in0.0 mm 0.97 in24.6 mm
11:45 AM 91.6°F33.1°C 78.6°F25.9°C 66% Calm Calm 3.7 mph6.0 kmh 29.93 in1013.5 mb 0.00 in0.0 mm 0.00 in0.0 mm 0.97 in24.6 mm
11:44 AM 92.7°F33.7°C 78.7°F25.9°C 64% 3.2 mph S5.1 kmh S 3.7 mph6.0 kmh 29.93 in1013.5 mb 0.00 in0.0 mm 0.00 in0.0 mm 0.97 in24.6 mm
11:43 AM 91.6°F33.1°C 79.1°F26.2°C 67% Calm Calm -- 29.93 in1013.5 mb 0.00 in0.0 mm 0.00 in0.0 mm 0.97 in24.6 mm
11:42 AM 91.4°F33.0°C 78.9°F26.1°C 67% Calm Calm -- 29.93 in1013.5 mb 0.00 in0.0 mm 0.00 in0.0 mm 0.97 in24.6 mm
11:41 AM 91.2°F32.9°C 79.1°F26.2°C 68% Calm Calm -- 29.93 in1013.5 mb 0.00 in0.0 mm 0.00 in0.0 mm 0.97 in24.6 mm
11:40 AM 91.2°F32.9°C 79.1°F26.2°C 68% Calm Calm -- 29.93 in1013.5 mb 0.00 in0.0 mm 0.00 in0.0 mm 0.97 in24.6 mm
11:39 AM 91.0°F32.8°C 79.4°F26.3°C 69% Calm Calm 3.2 mph5.1 kmh 29.93 in1013.5 mb 0.00 in0.0 mm 0.00 in0.0 mm 0.97 in24.6 mm
11:38 AM 90.9°F32.7°C 79.3°F26.3°C 69% Calm Calm 4.7 mph7.6 kmh 29.94 in1013.9 mb 0.00 in0.0 mm 0.00 in0.0 mm 0.97 in24.6 mm
11:37 AM 90.9°F32.7°C 78.8°F26.0°C 68% Calm Calm 4.7 mph7.6 kmh 29.94 in1013.9 mb 0.00 in0.0 mm 0.00 in0.0 mm 0.97 in24.6 mm
11:36 AM 91.2°F32.9°C 78.7°F25.9°C 67% Calm Calm 4.7 mph7.6 kmh 29.94 in1013.9 mb 0.00 in0.0 mm 0.00 in0.0 mm 0.97 in24.6 mm
11:35 AM 91.2°F32.9°C 78.7°F25.9°C 67% Calm Calm 4.7 mph7.6 kmh 29.94 in1013.9 mb 0.00 in0.0 mm 0.00 in0.0 mm 0.97 in24.6 mm
11:34 AM 91.2°F32.9°C 78.7°F25.9°C 67% Calm Calm 4.7 mph7.6 kmh 29.94 in1013.9 mb 0.00 in0.0 mm 0.00 in0.0 mm 0.97 in24.6 mm
11:33 AM 90.1°F32.3°C 78.1°F25.6°C 68% Calm Calm 4.7 mph7.6 kmh 29.94 in1013.9 mb 0.00 in0.0 mm 0.00 in0.0 mm 0.97 in24.6 mm
11:32 AM 89.8°F32.1°C 77.8°F25.4°C 68% Calm Calm 4.7 mph7.6 kmh 29.94 in1013.9 mb 0.00 in0.0 mm 0.00 in0.0 mm 0.97 in24.6 mm
11:31 AM 89.2°F31.8°C 77.7°F25.4°C 69% Calm Calm 4.7 mph7.6 kmh 29.94 in1013.9 mb 0.00 in0.0 mm 0.00 in0.0 mm 0.97 in24.6 mm
11:30 AM 88.7°F31.5°C 77.6°F25.3°C 70% Calm Calm 4.7 mph7.6 kmh 29.94 in1013.9 mb 0.00 in0.0 mm 0.00 in0.0 mm 0.97 in24.6 mm
11:29 AM 88.9°F31.6°C 77.4°F25.2°C 69% 2.7 mph N4.3 kmh N 4.7 mph7.6 kmh 29.94 in1013.9 mb 0.00 in0.0 mm 0.00 in0.0 mm 0.97 in24.6 mm
11:28 AM 88.9°F31.6°C 77.8°F25.4°C 70% 3.2 mph W5.1 kmh W 4.7 mph7.6 kmh 29.94 in1013.9 mb 0.00 in0.0 mm 0.00 in0.0 mm 0.97 in24.6 mm
11:27 AM 88.5°F31.4°C 77.4°F25.2°C 70% Calm Calm 3.2 mph5.1 kmh 29.94 in1013.9 mb 0.00 in0.0 mm 0.00 in0.0 mm 0.97 in24.6 mm
11:26 AM 88.9°F31.6°C 77.4°F25.2°C 69% Calm Calm 3.7 mph6.0 kmh 29.94 in1013.9 mb 0.00 in0.0 mm 0.00 in0.0 mm 0.97 in24.6 mm
11:25 AM 88.7°F31.5°C 77.2°F25.1°C 69% Calm Calm 3.7 mph6.0 kmh 29.94 in1013.9 mb 0.00 in0.0 mm 0.00 in0.0 mm 0.97 in24.6 mm
11:24 AM 88.5°F31.4°C 77.0°F25.0°C 69% Calm Calm 3.7 mph6.0 kmh 29.94 in1013.9 mb 0.00 in0.0 mm 0.00 in0.0 mm 0.97 in24.6 mm
11:23 AM 88.7°F31.5°C 77.2°F25.1°C 69% 1.1 mph SW1.8 kmh SW 3.7 mph6.0 kmh 29.94 in1013.9 mb 0.00 in0.0 mm 0.00 in0.0 mm 0.97 in24.6 mm
11:22 AM 88.3°F31.3°C 77.2°F25.1°C 70% Calm Calm 3.7 mph6.0 kmh 29.94 in1013.9 mb 0.00 in0.0 mm 0.00 in0.0 mm 0.97 in24.6 mm
11:21 AM 88.5°F31.4°C 77.0°F25.0°C 69% Calm Calm 3.7 mph6.0 kmh 29.94 in1013.9 mb 0.00 in0.0 mm 0.00 in0.0 mm 0.97 in24.6 mm
11:20 AM 88.2°F31.2°C 77.1°F25.1°C 70% Calm Calm 3.7 mph6.0 kmh 29.94 in1013.9 mb 0.00 in0.0 mm 0.00 in0.0 mm 0.97 in24.6 mm
11:19 AM 87.8°F31.0°C 76.8°F24.9°C 70% Calm Calm 3.7 mph6.0 kmh 29.94 in1013.9 mb 0.00 in0.0 mm 0.00 in0.0 mm 0.97 in24.6 mm
11:18 AM 88.0°F31.1°C 77.8°F25.4°C 72% Calm Calm 3.7 mph6.0 kmh 29.94 in1013.9 mb 0.00 in0.0 mm 0.00 in0.0 mm 0.97 in24.6 mm
11:17 AM 88.0°F31.1°C 77.4°F25.2°C 71% 3.7 mph SW6.0 kmh SW 3.7 mph6.0 kmh 29.94 in1013.9 mb 0.00 in0.0 mm 0.00 in0.0 mm 0.97 in24.6 mm
11:16 AM 87.8°F31.0°C 77.6°F25.3°C 72% Calm Calm 2.2 mph3.5 kmh 29.94 in1013.9 mb 0.00 in0.0 mm 0.00 in0.0 mm 0.97 in24.6 mm
11:15 AM 86.9°F30.5°C 76.8°F24.9°C 72% Calm Calm 2.2 mph3.5 kmh 29.94 in1013.9 mb 0.00 in0.0 mm 0.00 in0.0 mm 0.97 in24.6 mm
11:14 AM 86.4°F30.2°C 76.7°F24.8°C 73% Calm Calm 2.2 mph3.5 kmh 29.94 in1013.9 mb 0.00 in0.0 mm 0.00 in0.0 mm 0.97 in24.6 mm
11:13 AM 86.0°F30.0°C 76.3°F24.6°C 73% Calm Calm 4.7 mph7.6 kmh 29.94 in1013.9 mb 0.00 in0.0 mm 0.00 in0.0 mm 0.97 in24.6 mm
11:12 AM 85.8°F29.9°C 76.5°F24.7°C 74% Calm Calm 4.7 mph7.6 kmh 29.94 in1013.9 mb 0.00 in0.0 mm 0.00 in0.0 mm 0.97 in24.6 mm
11:11 AM 85.8°F29.9°C 76.1°F24.5°C 73% Calm Calm 4.7 mph7.6 kmh 29.94 in1013.9 mb 0.00 in0.0 mm 0.00 in0.0 mm 0.97 in24.6 mm
11:10 AM 86.5°F30.3°C 76.4°F24.7°C 72% Calm Calm 4.7 mph7.6 kmh 29.94 in1013.9 mb 0.00 in0.0 mm 0.00 in0.0 mm 0.97 in24.6 mm
11:09 AM 86.4°F30.2°C 76.7°F24.8°C 73% Calm Calm 4.7 mph7.6 kmh 29.94 in1013.9 mb 0.00 in0.0 mm 0.00 in0.0 mm 0.97 in24.6 mm
11:08 AM 86.0°F30.0°C 76.3°F24.6°C 73% Calm Calm 4.7 mph7.6 kmh 29.94 in1013.9 mb 0.00 in0.0 mm 0.00 in0.0 mm 0.97 in24.6 mm
11:07 AM 85.6°F29.8°C 75.9°F24.4°C 73% 2.2 mph W3.5 kmh W 4.7 mph7.6 kmh 29.94 in1013.9 mb 0.00 in0.0 mm 0.00 in0.0 mm 0.97 in24.6 mm
11:06 AM 85.3°F29.6°C 76.0°F24.4°C 74% Calm Calm 4.7 mph7.6 kmh 29.94 in1013.9 mb 0.00 in0.0 mm 0.00 in0.0 mm 0.97 in24.6 mm
11:05 AM 84.9°F29.4°C 75.7°F24.3°C 74% Calm Calm 4.7 mph7.6 kmh 29.94 in1013.9 mb 0.00 in0.0 mm 0.00 in0.0 mm 0.97 in24.6 mm
11:04 AM 84.9°F29.4°C 75.7°F24.3°C 74% 1.7 mph S2.7 kmh S 4.7 mph7.6 kmh 29.94 in1013.9 mb 0.00 in0.0 mm 0.00 in0.0 mm 0.97 in24.6 mm
11:03 AM 84.6°F29.2°C 75.8°F24.3°C 75% 1.7 mph SSW2.7 kmh SSW 3.2 mph5.1 kmh 29.95 in1014.2 mb 0.00 in0.0 mm 0.00 in0.0 mm 0.97 in24.6 mm
11:02 AM 84.4°F29.1°C 75.6°F24.2°C 75% Calm Calm 3.2 mph5.1 kmh 29.95 in1014.2 mb 0.00 in0.0 mm 0.00 in0.0 mm 0.97 in24.6 mm
11:01 AM 84.2°F29.0°C 75.4°F24.1°C 75% 3.2 mph SSW5.1 kmh SSW 3.2 mph5.1 kmh 29.95 in1014.2 mb 0.00 in0.0 mm 0.00 in0.0 mm 0.97 in24.6 mm
11:00 AM 84.0°F28.9°C 75.6°F24.2°C 76% 3.2 mph S5.1 kmh S 3.7 mph6.0 kmh 29.95 in1014.2 mb 0.00 in0.0 mm 0.00 in0.0 mm 0.97 in24.6 mm
10:59 AM 83.8°F28.8°C 75.8°F24.3°C 77% Calm Calm 3.7 mph6.0 kmh 29.95 in1014.2 mb 0.00 in0.0 mm 0.00 in0.0 mm 0.97 in24.6 mm
10:58 AM 83.3°F28.5°C 75.7°F24.3°C 78% Calm Calm 3.7 mph6.0 kmh 29.95 in1014.2 mb 0.00 in0.0 mm 0.00 in0.0 mm 0.97 in24.6 mm
10:57 AM 82.9°F28.3°C 75.7°F24.3°C 79% 3.2 mph SSE5.1 kmh SSE 3.7 mph6.0 kmh 29.95 in1014.2 mb 0.00 in0.0 mm 0.00 in0.0 mm 0.97 in24.6 mm
10:56 AM 82.2°F27.9°C 75.4°F24.1°C 80% Calm Calm 3.7 mph6.0 kmh 29.95 in1014.2 mb 0.00 in0.0 mm 0.00 in0.0 mm 0.97 in24.6 mm
10:55 AM 82.0°F27.8°C 75.2°F24.0°C 80% Calm Calm 3.7 mph6.0 kmh 29.95 in1014.2 mb 0.00 in0.0 mm 0.00 in0.0 mm 0.97 in24.6 mm
10:54 AM 81.5°F27.5°C 75.1°F23.9°C 81% Calm Calm 3.7 mph6.0 kmh 29.95 in1014.2 mb 0.00 in0.0 mm 0.00 in0.0 mm 0.97 in24.6 mm
10:53 AM 81.0°F27.2°C 74.6°F23.7°C 81% Calm Calm 3.7 mph6.0 kmh 29.95 in1014.2 mb 0.00 in0.0 mm 0.00 in0.0 mm 0.97 in24.6 mm
10:52 AM 80.6°F27.0°C 74.6°F23.7°C 82% Calm Calm 3.7 mph6.0 kmh 29.95 in1014.2 mb 0.00 in0.0 mm 0.00 in0.0 mm 0.97 in24.6 mm
10:51 AM 80.4°F26.9°C 74.4°F23.6°C 82% 1.1 mph W1.8 kmh W 3.7 mph6.0 kmh 29.95 in1014.2 mb 0.00 in0.0 mm 0.00 in0.0 mm 0.97 in24.6 mm
10:50 AM 80.2°F26.8°C 74.9°F23.8°C 84% 1.7 mph SSW2.7 kmh SSW 2.7 mph4.3 kmh 29.95 in1014.2 mb 0.00 in0.0 mm 0.00 in0.0 mm 0.97 in24.6 mm
10:49 AM 79.9°F26.6°C 74.6°F23.7°C 84% 1.7 mph S2.7 kmh S 2.7 mph4.3 kmh 29.95 in1014.2 mb 0.00 in0.0 mm 0.00 in0.0 mm 0.97 in24.6 mm
10:48 AM 79.9°F26.6°C 74.6°F23.7°C 84% 1.1 mph SSW1.8 kmh SSW 2.7 mph4.3 kmh 29.95 in1014.2 mb 0.00 in0.0 mm 0.00 in0.0 mm 0.97 in24.6 mm
10:47 AM 80.1°F26.7°C 74.8°F23.8°C 84% Calm Calm 2.2 mph3.5 kmh 29.95 in1014.2 mb 0.00 in0.0 mm 0.00 in0.0 mm 0.97 in24.6 mm
10:46 AM 80.1°F26.7°C 74.8°F23.8°C 84% Calm Calm 2.2 mph3.5 kmh 29.95 in1014.2 mb 0.00 in0.0 mm 0.00 in0.0 mm 0.97 in24.6 mm
10:45 AM 79.9°F26.6°C 74.3°F23.5°C 83% Calm Calm 2.2 mph3.5 kmh 29.95 in1014.2 mb 0.00 in0.0 mm 0.00 in0.0 mm 0.97 in24.6 mm
10:44 AM 79.9°F26.6°C 74.3°F23.5°C 83% Calm Calm 2.2 mph3.5 kmh 29.95 in1014.2 mb 0.00 in0.0 mm 0.00 in0.0 mm 0.97 in24.6 mm
10:43 AM 79.9°F26.6°C 74.3°F23.5°C 83% Calm Calm 2.2 mph3.5 kmh 29.95 in1014.2 mb 0.00 in0.0 mm 0.00 in0.0 mm 0.97 in24.6 mm
10:42 AM 79.9°F26.6°C 74.3°F23.5°C 83% 2.2 mph S3.5 kmh S 2.2 mph3.5 kmh 29.95 in1014.2 mb 0.00 in0.0 mm 0.00 in0.0 mm 0.97 in24.6 mm
10:41 AM 79.9°F26.6°C 74.3°F23.5°C 83% Calm Calm 2.2 mph3.5 kmh 29.95 in1014.2 mb 0.00 in0.0 mm 0.00 in0.0 mm 0.97 in24.6 mm
10:40 AM 79.7°F26.5°C 74.1°F23.4°C 83% 1.1 mph S1.8 kmh S 2.7 mph4.3 kmh 29.95 in1014.2 mb 0.00 in0.0 mm 0.00 in0.0 mm 0.97 in24.6 mm
10:39 AM 79.7°F26.5°C 74.1°F23.4°C 83% Calm Calm 2.7 mph4.3 kmh 29.95 in1014.2 mb 0.00 in0.0 mm 0.00 in0.0 mm 0.97 in24.6 mm
10:38 AM 79.5°F26.4°C 74.2°F23.4°C 84% 1.7 mph ENE2.7 kmh ENE 2.7 mph4.3 kmh 29.95 in1014.2 mb 0.00 in0.0 mm 0.00 in0.0 mm 0.97 in24.6 mm
10:37 AM 79.5°F26.4°C 74.6°F23.7°C 85% Calm Calm 2.7 mph4.3 kmh 29.95 in1014.2 mb 0.00 in0.0 mm 0.00 in0.0 mm 0.97 in24.6 mm
10:36 AM 79.3°F26.3°C 74.4°F23.6°C 85% Calm Calm 2.7 mph4.3 kmh 29.95 in1014.2 mb 0.00 in0.0 mm 0.00 in0.0 mm 0.97 in24.6 mm
10:35 AM 79.3°F26.3°C 74.4°F23.6°C 85% Calm Calm 2.7 mph4.3 kmh 29.95 in1014.2 mb 0.00 in0.0 mm 0.00 in0.0 mm 0.97 in24.6 mm
10:34 AM 79.2°F26.2°C 74.3°F23.5°C 85% 1.1 mph W1.8 kmh W 2.7 mph4.3 kmh 29.95 in1014.2 mb 0.00 in0.0 mm 0.00 in0.0 mm 0.97 in24.6 mm
10:33 AM 79.2°F26.2°C 74.3°F23.5°C 85% 2.2 mph NNE3.5 kmh NNE 2.7 mph4.3 kmh 29.95 in1014.2 mb 0.00 in0.0 mm 0.00 in0.0 mm 0.97 in24.6 mm
10:32 AM 79.0°F26.1°C 74.1°F23.4°C 85% 1.7 mph S2.7 kmh S 2.7 mph4.3 kmh 29.95 in1014.2 mb 0.00 in0.0 mm 0.00 in0.0 mm 0.97 in24.6 mm
10:31 AM 78.8°F26.0°C 74.2°F23.4°C 86% 2.2 mph N3.5 kmh N 2.7 mph4.3 kmh 29.95 in1014.2 mb 0.00 in0.0 mm 0.00 in0.0 mm 0.97 in24.6 mm
10:30 AM 78.8°F26.0°C 74.2°F23.4°C 86% 2.2 mph WNW3.5 kmh WNW 2.7 mph4.3 kmh 29.95 in1014.2 mb 0.00 in0.0 mm 0.00 in0.0 mm 0.97 in24.6 mm
10:29 AM 78.6°F25.9°C 74.4°F23.6°C 87% 1.1 mph WNW1.8 kmh WNW 3.2 mph5.1 kmh 29.95 in1014.2 mb 0.00 in0.0 mm 0.00 in0.0 mm 0.97 in24.6 mm
10:28 AM 78.4°F25.8°C 74.5°F23.6°C 88% Calm Calm 3.2 mph5.1 kmh 29.95 in1014.2 mb 0.00 in0.0 mm 0.00 in0.0 mm 0.97 in24.6 mm
10:27 AM 78.4°F25.8°C 74.5°F23.6°C 88% Calm Calm 3.2 mph5.1 kmh 29.95 in1014.2 mb 0.00 in0.0 mm 0.00 in0.0 mm 0.97 in24.6 mm
10:26 AM 78.3°F25.7°C 74.4°F23.6°C 88% Calm Calm 3.2 mph5.1 kmh 29.95 in1014.2 mb 0.00 in0.0 mm 0.00 in0.0 mm 0.97 in24.6 mm
10:25 AM 78.1°F25.6°C 74.2°F23.4°C 88% Calm Calm 3.2 mph5.1 kmh 29.95 in1014.2 mb 0.00 in0.0 mm 0.00 in0.0 mm 0.97 in24.6 mm
10:24 AM 77.9°F25.5°C 73.7°F23.2°C 87% Calm Calm 3.2 mph5.1 kmh 29.95 in1014.2 mb 0.00 in0.0 mm 0.00 in0.0 mm 0.97 in24.6 mm
10:23 AM 77.9°F25.5°C 74.0°F23.3°C 88% 2.2 mph NE3.5 kmh NE 3.2 mph5.1 kmh 29.95 in1014.2 mb 0.00 in0.0 mm 0.00 in0.0 mm 0.97 in24.6 mm
10:22 AM 77.7°F25.4°C 73.9°F23.3°C 88% 2.2 mph NW3.5 kmh NW 3.2 mph5.1 kmh 29.95 in1014.2 mb 0.00 in0.0 mm 0.00 in0.0 mm 0.97 in24.6 mm
10:21 AM 77.5°F25.3°C 73.7°F23.2°C 88% Calm Calm 3.2 mph5.1 kmh 29.95 in1014.2 mb 0.00 in0.0 mm 0.00 in0.0 mm 0.97 in24.6 mm
10:20 AM 77.5°F25.3°C 74.0°F23.3°C 89% 3.2 mph SSW5.1 kmh SSW 3.2 mph5.1 kmh 29.95 in1014.2 mb 0.00 in0.0 mm 0.00 in0.0 mm 0.97 in24.6 mm
10:19 AM 77.4°F25.2°C 73.9°F23.3°C 89% 1.7 mph SSW2.7 kmh SSW 3.2 mph5.1 kmh 29.95 in1014.2 mb 0.00 in0.0 mm 0.00 in0.0 mm 0.97 in24.6 mm
10:18 AM 77.2°F25.1°C 73.7°F23.2°C 89% 2.7 mph N4.3 kmh N 3.2 mph5.1 kmh 29.95 in1014.2 mb 0.00 in0.0 mm 0.00 in0.0 mm 0.97 in24.6 mm
10:17 AM 77.2°F25.1°C 73.7°F23.2°C 89% 2.2 mph W3.5 kmh W 3.2 mph5.1 kmh 29.95 in1014.2 mb 0.00 in0.0 mm 0.00 in0.0 mm 0.97 in24.6 mm
10:16 AM 77.0°F25.0°C 73.5°F23.1°C 89% Calm Calm 4.2 mph6.8 kmh 29.95 in1014.2 mb 0.00 in0.0 mm 0.00 in0.0 mm 0.97 in24.6 mm
10:15 AM 77.0°F25.0°C 73.8°F23.2°C 90% Calm Calm 4.2 mph6.8 kmh 29.95 in1014.2 mb 0.00 in0.0 mm 0.00 in0.0 mm 0.97 in24.6 mm
10:14 AM 76.8°F24.9°C 73.6°F23.1°C 90% Calm Calm 4.2 mph6.8 kmh 29.96 in1014.6 mb 0.00 in0.0 mm 0.00 in0.0 mm 0.97 in24.6 mm
10:13 AM 76.6°F24.8°C 73.4°F23.0°C 90% Calm Calm 4.2 mph6.8 kmh 29.96 in1014.6 mb 0.00 in0.0 mm 0.00 in0.0 mm 0.97 in24.6 mm
10:12 AM 76.6°F24.8°C 73.4°F23.0°C 90% 1.7 mph SW2.7 kmh SW 4.2 mph6.8 kmh 29.96 in1014.6 mb 0.00 in0.0 mm 0.00 in0.0 mm 0.97 in24.6 mm
10:11 AM 76.5°F24.7°C 73.3°F22.9°C 90% Calm Calm 4.2 mph6.8 kmh 29.96 in1014.6 mb 0.00 in0.0 mm 0.00 in0.0 mm 0.97 in24.6 mm
10:10 AM 76.5°F24.7°C 73.3°F22.9°C 90% 2.7 mph N4.3 kmh N 4.2 mph6.8 kmh 29.96 in1014.6 mb 0.00 in0.0 mm 0.00 in0.0 mm 0.97 in24.6 mm
10:09 AM 76.3°F24.6°C 73.1°F22.8°C 90% 1.7 mph WSW2.7 kmh WSW 4.2 mph6.8 kmh 29.96 in1014.6 mb 0.00 in0.0 mm 0.00 in0.0 mm 0.97 in24.6 mm
10:08 AM 75.9°F24.4°C 73.1°F22.8°C 91% Calm Calm 4.2 mph6.8 kmh 29.96 in1014.6 mb 0.00 in0.0 mm 0.00 in0.0 mm 0.97 in24.6 mm
10:07 AM 75.9°F24.4°C 73.1°F22.8°C 91% 2.2 mph WSW3.5 kmh WSW 4.2 mph6.8 kmh 29.96 in1014.6 mb 0.00 in0.0 mm 0.00 in0.0 mm 0.97 in24.6 mm
10:06 AM 75.9°F24.4°C 73.1°F22.8°C 91% 1.1 mph SW1.8 kmh SW 1.7 mph2.7 kmh 29.96 in1014.6 mb 0.00 in0.0 mm 0.00 in0.0 mm 0.97 in24.6 mm
10:05 AM 75.9°F24.4°C 73.1°F22.8°C 91% 1.7 mph NNW2.7 kmh NNW 1.7 mph2.7 kmh 29.96 in1014.6 mb 0.00 in0.0 mm 0.00 in0.0 mm 0.97 in24.6 mm
10:04 AM 75.9°F24.4°C 73.1°F22.8°C 91% Calm Calm 1.1 mph1.8 kmh 29.96 in1014.6 mb 0.00 in0.0 mm 0.00 in0.0 mm 0.97 in24.6 mm
10:03 AM 75.7°F24.3°C 72.9°F22.7°C 91% Calm Calm 2.2 mph3.5 kmh 29.96 in1014.6 mb 0.00 in0.0 mm 0.00 in0.0 mm 0.97 in24.6 mm
10:02 AM 75.7°F24.3°C 72.9°F22.7°C 91% Calm Calm 2.2 mph3.5 kmh 29.96 in1014.6 mb 0.00 in0.0 mm 0.00 in0.0 mm 0.97 in24.6 mm
10:01 AM 75.7°F24.3°C 72.9°F22.7°C 91% Calm Calm 3.7 mph6.0 kmh 29.96 in1014.6 mb 0.00 in0.0 mm 0.00 in0.0 mm 0.97 in24.6 mm
10:00 AM 75.6°F24.2°C 72.8°F22.7°C 91% Calm Calm 3.7 mph6.0 kmh 29.96 in1014.6 mb 0.00 in0.0 mm 0.00 in0.0 mm 0.97 in24.6 mm
09:59 AM 75.6°F24.2°C 72.8°F22.7°C 91% Calm Calm 3.7 mph6.0 kmh 29.96 in1014.6 mb 0.00 in0.0 mm 0.00 in0.0 mm 0.97 in24.6 mm
09:58 AM 75.4°F24.1°C 72.6°F22.6°C 91% Calm Calm 3.7 mph6.0 kmh 29.96 in1014.6 mb 0.00 in0.0 mm 0.00 in0.0 mm 0.97 in24.6 mm
09:57 AM 75.4°F24.1°C 72.6°F22.6°C 91% Calm Calm 3.7 mph6.0 kmh 29.96 in1014.6 mb 0.00 in0.0 mm 0.00 in0.0 mm 0.97 in24.6 mm
09:56 AM 75.2°F24.0°C 72.4°F22.4°C 91% Calm Calm 3.7 mph6.0 kmh 29.96 in1014.6 mb 0.00 in0.0 mm 0.00 in0.0 mm 0.97 in24.6 mm
09:55 AM 75.0°F23.9°C 72.2°F22.3°C 91% Calm Calm 3.7 mph6.0 kmh 29.96 in1014.6 mb 0.00 in0.0 mm 0.00 in0.0 mm 0.97 in24.6 mm
09:54 AM 74.8°F23.8°C 72.0°F22.2°C 91% Calm Calm 4.2 mph6.8 kmh 29.96 in1014.6 mb 0.00 in0.0 mm 0.00 in0.0 mm 0.97 in24.6 mm
09:53 AM 74.8°F23.8°C 72.0°F22.2°C 91% 1.1 mph W1.8 kmh W 4.2 mph6.8 kmh 29.96 in1014.6 mb 0.00 in0.0 mm 0.00 in0.0 mm 0.97 in24.6 mm
09:52 AM 74.8°F23.8°C 72.0°F22.2°C 91% 1.1 mph W1.8 kmh W 4.2 mph6.8 kmh 29.96 in1014.6 mb 0.00 in0.0 mm 0.00 in0.0 mm 0.97 in24.6 mm
09:51 AM 74.8°F23.8°C 72.0°F22.2°C 91% 1.1 mph SE1.8 kmh SE 4.2 mph6.8 kmh 29.96 in1014.6 mb 0.00 in0.0 mm 0.00 in0.0 mm 0.97 in24.6 mm
09:50 AM 74.8°F23.8°C 72.0°F22.2°C 91% 2.2 mph ESE3.5 kmh ESE 4.2 mph6.8 kmh 29.96 in1014.6 mb 0.00 in0.0 mm 0.00 in0.0 mm 0.97 in24.6 mm
09:49 AM 74.8°F23.8°C 72.0°F22.2°C 91% 2.2 mph W3.5 kmh W 4.2 mph6.8 kmh 29.97 in1014.9 mb 0.00 in0.0 mm 0.00 in0.0 mm 0.97 in24.6 mm
09:48 AM 74.8°F23.8°C 72.0°F22.2°C 91% Calm Calm 4.2 mph6.8 kmh 29.97 in1014.9 mb 0.00 in0.0 mm 0.00 in0.0 mm 0.97 in24.6 mm
09:47 AM 74.8°F23.8°C 71.7°F22.1°C 90% Calm Calm 4.2 mph6.8 kmh 29.97 in1014.9 mb 0.00 in0.0 mm 0.00 in0.0 mm 0.97 in24.6 mm
09:46 AM 74.7°F23.7°C 71.6°F22.0°C 90% 1.1 mph WNW1.8 kmh WNW 4.2 mph6.8 kmh 29.97 in1014.9 mb 0.00 in0.0 mm 0.00 in0.0 mm 0.97 in24.6 mm
09:45 AM 74.7°F23.7°C 71.6°F22.0°C 90% 2.2 mph SE3.5 kmh SE 4.2 mph6.8 kmh 29.97 in1014.9 mb 0.00 in0.0 mm 0.00 in0.0 mm 0.97 in24.6 mm
09:44 AM 74.7°F23.7°C 71.6°F22.0°C 90% 1.1 mph SSE1.8 kmh SSE 4.2 mph6.8 kmh 29.97 in1014.9 mb 0.00 in0.0 mm 0.00 in0.0 mm 0.97 in24.6 mm
09:43 AM 74.5°F23.6°C 71.4°F21.9°C 90% Calm Calm 4.2 mph6.8 kmh 29.97 in1014.9 mb 0.00 in0.0 mm 0.00 in0.0 mm 0.97 in24.6 mm
09:42 AM 74.5°F23.6°C 71.4°F21.9°C 90% 4.2 mph SSE6.8 kmh SSE 4.2 mph6.8 kmh 29.97 in1014.9 mb 0.00 in0.0 mm 0.00 in0.0 mm 0.97 in24.6 mm
09:41 AM 74.5°F23.6°C 71.4°F21.9°C 90% Calm Calm 3.2 mph5.1 kmh 29.97 in1014.9 mb 0.00 in0.0 mm 0.00 in0.0 mm 0.97 in24.6 mm
09:40 AM 74.5°F23.6°C 71.7°F22.1°C 91% Calm Calm 3.2 mph5.1 kmh 29.97 in1014.9 mb 0.00 in0.0 mm 0.00 in0.0 mm 0.97 in24.6 mm
09:39 AM 74.5°F23.6°C 71.7°F22.1°C 91% Calm Calm 4.2 mph6.8 kmh 29.97 in1014.9 mb 0.00 in0.0 mm 0.00 in0.0 mm 0.97 in24.6 mm
09:38 AM 74.5°F23.6°C 71.7°F22.1°C 91% 1.7 mph WSW2.7 kmh WSW 4.2 mph6.8 kmh 29.97 in1014.9 mb 0.00 in0.0 mm 0.00 in0.0 mm 0.97 in24.6 mm
09:37 AM 74.5°F23.6°C 71.7°F22.1°C 91% Calm Calm 4.2 mph6.8 kmh 29.96 in1014.6 mb 0.00 in0.0 mm 0.00 in0.0 mm 0.97 in24.6 mm
09:36 AM 74.5°F23.6°C 71.7°F22.1°C 91% 3.2 mph E5.1 kmh E 4.2 mph6.8 kmh 29.96 in1014.6 mb 0.00 in0.0 mm 0.00 in0.0 mm 0.97 in24.6 mm
09:35 AM 74.5°F23.6°C 71.7°F22.1°C 91% Calm Calm 4.2 mph6.8 kmh 29.96 in1014.6 mb 0.00 in0.0 mm 0.00 in0.0 mm 0.97 in24.6 mm
09:34 AM 74.5°F23.6°C 71.7°F22.1°C 91% Calm Calm 4.2 mph6.8 kmh 29.96 in1014.6 mb 0.00 in0.0 mm 0.00 in0.0 mm 0.97 in24.6 mm
09:33 AM 74.5°F23.6°C 71.7°F22.1°C 91% Calm Calm 4.2 mph6.8 kmh 29.96 in1014.6 mb 0.00 in0.0 mm 0.00 in0.0 mm 0.97 in24.6 mm
09:32 AM 74.5°F23.6°C 71.7°F22.1°C 91% Calm Calm 4.2 mph6.8 kmh 29.96 in1014.6 mb 0.00 in0.0 mm 0.00 in0.0 mm 0.97 in24.6 mm
09:31 AM 74.5°F23.6°C 71.7°F22.1°C 91% Calm Calm 4.2 mph6.8 kmh 29.96 in1014.6 mb 0.00 in0.0 mm 0.00 in0.0 mm 0.97 in24.6 mm
09:30 AM 74.5°F23.6°C 71.7°F22.1°C 91% 4.2 mph W6.8 kmh W 4.2 mph6.8 kmh 29.96 in1014.6 mb 0.00 in0.0 mm 0.00 in0.0 mm 0.97 in24.6 mm
09:29 AM 74.5°F23.6°C 71.7°F22.1°C 91% Calm Calm 4.2 mph6.8 kmh 29.96 in1014.6 mb 0.00 in0.0 mm 0.00 in0.0 mm 0.97 in24.6 mm
09:28 AM 74.3°F23.5°C 71.5°F21.9°C 91% Calm Calm 4.2 mph6.8 kmh 29.96 in1014.6 mb 0.00 in0.0 mm 0.00 in0.0 mm 0.97 in24.6 mm
09:27 AM 74.5°F23.6°C 71.7°F22.1°C 91% 2.7 mph SSE4.3 kmh SSE 4.2 mph6.8 kmh 29.96 in1014.6 mb 0.00 in0.0 mm 0.00 in0.0 mm 0.97 in24.6 mm
09:26 AM 74.5°F23.6°C 71.7°F22.1°C 91% 2.2 mph S3.5 kmh S 4.2 mph6.8 kmh 29.96 in1014.6 mb 0.00 in0.0 mm 0.00 in0.0 mm 0.97 in24.6 mm
09:25 AM 74.7°F23.7°C 71.9°F22.2°C 91% Calm Calm 4.2 mph6.8 kmh 29.96 in1014.6 mb 0.00 in0.0 mm 0.00 in0.0 mm 0.97 in24.6 mm
09:24 AM 74.7°F23.7°C 71.9°F22.2°C 91% 2.2 mph ENE3.5 kmh ENE 4.2 mph6.8 kmh 29.96 in1014.6 mb 0.00 in0.0 mm 0.00 in0.0 mm 0.97 in24.6 mm
09:23 AM 74.7°F23.7°C 71.9°F22.2°C 91% Calm Calm 4.2 mph6.8 kmh 29.96 in1014.6 mb 0.00 in0.0 mm 0.00 in0.0 mm 0.97 in24.6 mm
09:22 AM 74.7°F23.7°C 71.9°F22.2°C 91% Calm Calm 4.2 mph6.8 kmh 29.96 in1014.6 mb 0.00 in0.0 mm 0.00 in0.0 mm 0.97 in24.6 mm
09:21 AM 74.7°F23.7°C 71.9°F22.2°C 91% Calm Calm 5.3 mph8.5 kmh 29.96 in1014.6 mb 0.00 in0.0 mm 0.00 in0.0 mm 0.97 in24.6 mm
09:20 AM 74.7°F23.7°C 71.9°F22.2°C 91% 2.7 mph SSE4.3 kmh SSE 5.3 mph8.5 kmh 29.96 in1014.6 mb 0.00 in0.0 mm 0.00 in0.0 mm 0.97 in24.6 mm
09:19 AM 74.8°F23.8°C 72.0°F22.2°C 91% Calm Calm 5.3 mph8.5 kmh 29.96 in1014.6 mb 0.00 in0.0 mm 0.00 in0.0 mm 0.97 in24.6 mm
09:18 AM 74.8°F23.8°C 72.0°F22.2°C 91% Calm Calm 5.3 mph8.5 kmh 29.96 in1014.6 mb 0.00 in0.0 mm 0.00 in0.0 mm 0.97 in24.6 mm
09:17 AM 74.8°F23.8°C 72.0°F22.2°C 91% Calm Calm 5.3 mph8.5 kmh 29.96 in1014.6 mb 0.00 in0.0 mm 0.00 in0.0 mm 0.97 in24.6 mm
09:16 AM 74.8°F23.8°C 72.0°F22.2°C 91% Calm Calm 5.3 mph8.5 kmh 29.96 in1014.6 mb 0.00 in0.0 mm 0.00 in0.0 mm 0.97 in24.6 mm
09:15 AM 74.8°F23.8°C 72.0°F22.2°C 91% Calm Calm 5.3 mph8.5 kmh 29.96 in1014.6 mb 0.00 in0.0 mm 0.00 in0.0 mm 0.97 in24.6 mm
09:14 AM 74.8°F23.8°C 72.3°F22.4°C 92% Calm Calm 5.3 mph8.5 kmh 29.96 in1014.6 mb 0.00 in0.0 mm 0.00 in0.0 mm 0.97 in24.6 mm
09:13 AM 74.8°F23.8°C 72.3°F22.4°C 92% 2.2 mph SSW3.5 kmh SSW 5.3 mph8.5 kmh 29.96 in1014.6 mb 0.00 in0.0 mm 0.00 in0.0 mm 0.97 in24.6 mm
09:12 AM 74.8°F23.8°C 72.3°F22.4°C 92% 5.3 mph SE8.5 kmh SE 5.3 mph8.5 kmh 29.96 in1014.6 mb 0.00 in0.0 mm 0.00 in0.0 mm 0.97 in24.6 mm
09:11 AM 74.8°F23.8°C 72.6°F22.6°C 93% Calm Calm 4.2 mph6.8 kmh 29.96 in1014.6 mb 0.00 in0.0 mm 0.00 in0.0 mm 0.97 in24.6 mm
09:10 AM 74.7°F23.7°C 72.5°F22.5°C 93% Calm Calm 4.2 mph6.8 kmh 29.96 in1014.6 mb 0.00 in0.0 mm 0.00 in0.0 mm 0.97 in24.6 mm
09:09 AM 74.7°F23.7°C 72.5°F22.5°C 93% Calm Calm 4.2 mph6.8 kmh 29.96 in1014.6 mb 0.00 in0.0 mm 0.00 in0.0 mm 0.97 in24.6 mm
09:08 AM 74.7°F23.7°C 72.5°F22.5°C 93% Calm Calm 2.7 mph4.3 kmh 29.96 in1014.6 mb 0.00 in0.0 mm 0.00 in0.0 mm 0.97 in24.6 mm
09:07 AM 74.5°F23.6°C 72.3°F22.4°C 93% Calm Calm 3.2 mph5.1 kmh 29.96 in1014.6 mb 0.01 in0.3 mm 0.00 in0.0 mm 0.97 in24.6 mm
09:06 AM 74.3°F23.5°C 72.1°F22.3°C 93% Calm Calm 3.2 mph5.1 kmh 29.96 in1014.6 mb 0.01 in0.3 mm 0.00 in0.0 mm 0.97 in24.6 mm
09:05 AM 74.3°F23.5°C 72.1°F22.3°C 93% Calm Calm 3.2 mph5.1 kmh 29.96 in1014.6 mb 0.01 in0.3 mm 0.00 in0.0 mm 0.97 in24.6 mm
09:04 AM 74.3°F23.5°C 72.1°F22.3°C 93% Calm Calm 3.2 mph5.1 kmh 29.96 in1014.6 mb 0.01 in0.3 mm 0.00 in0.0 mm 0.97 in24.6 mm
09:03 AM 74.1°F23.4°C 71.9°F22.2°C 93% Calm Calm 3.2 mph5.1 kmh 29.96 in1014.6 mb 0.01 in0.3 mm 0.00 in0.0 mm 0.97 in24.6 mm
09:02 AM 74.1°F23.4°C 71.9°F22.2°C 93% Calm Calm 3.2 mph5.1 kmh 29.95 in1014.2 mb 0.01 in0.3 mm 0.00 in0.0 mm 0.97 in24.6 mm
09:01 AM 73.9°F23.3°C 71.7°F22.1°C 93% Calm Calm 3.2 mph5.1 kmh 29.95 in1014.2 mb 0.01 in0.3 mm 0.00 in0.0 mm 0.97 in24.6 mm
09:00 AM 71.7°F22.1°C 69.6°F20.9°C 93% Calm Calm 3.2 mph5.1 kmh 29.95 in1014.2 mb 0.01 in0.3 mm 0.00 in0.0 mm 0.97 in24.6 mm
08:59 AM 73.8°F23.2°C 72.0°F22.2°C 94% 1.1 mph S1.8 kmh S 3.2 mph5.1 kmh 29.95 in1014.2 mb 0.01 in0.3 mm 0.00 in0.0 mm 0.97 in24.6 mm
08:58 AM 73.8°F23.2°C 72.0°F22.2°C 94% 3.2 mph SE5.1 kmh SE 3.7 mph6.0 kmh 29.95 in1014.2 mb 0.02 in0.5 mm 0.00 in0.0 mm 0.97 in24.6 mm
08:57 AM 73.8°F23.2°C 72.0°F22.2°C 94% 1.7 mph SSE2.7 kmh SSE 3.7 mph6.0 kmh 29.95 in1014.2 mb 0.02 in0.5 mm 0.00 in0.0 mm 0.97 in24.6 mm
08:56 AM 73.6°F23.1°C 71.8°F22.1°C 94% Calm Calm 3.7 mph6.0 kmh 29.95 in1014.2 mb 0.02 in0.5 mm 0.00 in0.0 mm 0.97 in24.6 mm
08:55 AM 73.6°F23.1°C 71.8°F22.1°C 94% Calm Calm 3.7 mph6.0 kmh 29.95 in1014.2 mb 0.02 in0.5 mm 0.00 in0.0 mm 0.97 in24.6 mm
08:54 AM 73.6°F23.1°C 71.8°F22.1°C 94% Calm Calm 3.7 mph6.0 kmh 29.95 in1014.2 mb 0.03 in0.8 mm 0.00 in0.0 mm 0.97 in24.6 mm
08:53 AM 73.6°F23.1°C 71.8°F22.1°C 94% Calm Calm 3.7 mph6.0 kmh 29.95 in1014.2 mb 0.03 in0.8 mm 0.00 in0.0 mm 0.97 in24.6 mm
08:52 AM 73.6°F23.1°C 71.8°F22.1°C 94% Calm Calm 3.7 mph6.0 kmh 29.95 in1014.2 mb 0.03 in0.8 mm 0.00 in0.0 mm 0.97 in24.6 mm
08:51 AM 73.4°F23.0°C 71.6°F22.0°C 94% Calm Calm 3.7 mph6.0 kmh 29.95 in1014.2 mb 0.03 in0.8 mm 0.00 in0.0 mm 0.97 in24.6 mm
08:50 AM 73.4°F23.0°C 71.6°F22.0°C 94% Calm Calm 3.7 mph6.0 kmh 29.95 in1014.2 mb 0.03 in0.8 mm 0.00 in0.0 mm 0.97 in24.6 mm
08:49 AM 73.4°F23.0°C 71.6°F22.0°C 94% 3.7 mph E6.0 kmh E 3.7 mph6.0 kmh 29.95 in1014.2 mb 0.04 in1.0 mm 0.00 in0.0 mm 0.97 in24.6 mm
08:48 AM 73.4°F23.0°C 71.6°F22.0°C 94% Calm Calm 2.7 mph4.3 kmh 29.95 in1014.2 mb 0.04 in1.0 mm 0.00 in0.0 mm 0.97 in24.6 mm
08:47 AM 73.4°F23.0°C 71.6°F22.0°C 94% Calm Calm 2.7 mph4.3 kmh 29.95 in1014.2 mb 0.04 in1.0 mm 0.00 in0.0 mm 0.97 in24.6 mm
08:46 AM 73.2°F22.9°C 71.4°F21.9°C 94% Calm Calm 3.2 mph5.1 kmh 29.95 in1014.2 mb 0.05 in1.3 mm 0.00 in0.0 mm 0.97 in24.6 mm
08:45 AM 73.2°F22.9°C 71.4°F21.9°C 94% Calm Calm 3.2 mph5.1 kmh 29.95 in1014.2 mb 0.05 in1.3 mm 0.00 in0.0 mm 0.97 in24.6 mm
08:44 AM 73.2°F22.9°C 71.4°F21.9°C 94% 1.7 mph SE2.7 kmh SE 3.7 mph6.0 kmh 29.95 in1014.2 mb 0.05 in1.3 mm 0.00 in0.0 mm 0.97 in24.6 mm
08:43 AM 73.2°F22.9°C 71.4°F21.9°C 94% Calm Calm 3.7 mph6.0 kmh 29.95 in1014.2 mb 0.05 in1.3 mm 0.00 in0.0 mm 0.97 in24.6 mm
08:42 AM 73.0°F22.8°C 71.2°F21.8°C 94% Calm Calm 3.7 mph6.0 kmh 29.95 in1014.2 mb 0.06 in1.5 mm 0.00 in0.0 mm 0.97 in24.6 mm
08:41 AM 73.0°F22.8°C 71.2°F21.8°C 94% 2.7 mph N4.3 kmh N 3.7 mph6.0 kmh 29.95 in1014.2 mb 0.06 in1.5 mm 0.00 in0.0 mm 0.97 in24.6 mm
08:40 AM 73.0°F22.8°C 71.2°F21.8°C 94% 1.7 mph S2.7 kmh S 3.7 mph6.0 kmh 29.95 in1014.2 mb 0.06 in1.5 mm 0.00 in0.0 mm 0.97 in24.6 mm
08:39 AM 73.0°F22.8°C 71.2°F21.8°C 94% 2.7 mph ESE4.3 kmh ESE 3.7 mph6.0 kmh 29.95 in1014.2 mb 0.07 in1.8 mm 0.00 in0.0 mm 0.97 in24.6 mm
08:38 AM 73.0°F22.8°C 71.2°F21.8°C 94% Calm Calm 3.7 mph6.0 kmh 29.95 in1014.2 mb 0.07 in1.8 mm 0.00 in0.0 mm 0.97 in24.6 mm
08:37 AM 73.0°F22.8°C 71.2°F21.8°C 94% 1.1 mph SSE1.8 kmh SSE 3.7 mph6.0 kmh 29.95 in1014.2 mb 0.07 in1.8 mm 0.00 in0.0 mm 0.97 in24.6 mm
08:36 AM 73.0°F22.8°C 71.2°F21.8°C 94% 3.2 mph SSE5.1 kmh SSE 4.2 mph6.8 kmh 29.95 in1014.2 mb 0.07 in1.8 mm 0.00 in0.0 mm 0.97 in24.6 mm
08:35 AM 73.0°F22.8°C 71.2°F21.8°C 94% Calm Calm 5.3 mph8.5 kmh 29.95 in1014.2 mb 0.07 in1.8 mm 0.00 in0.0 mm 0.97 in24.6 mm
08:34 AM 73.0°F22.8°C 71.2°F21.8°C 94% 3.2 mph S5.1 kmh S 5.3 mph8.5 kmh 29.95 in1014.2 mb 0.07 in1.8 mm 0.00 in0.0 mm 0.97 in24.6 mm
08:33 AM 73.0°F22.8°C 71.2°F21.8°C 94% 1.7 mph SSE2.7 kmh SSE 5.3 mph8.5 kmh 29.95 in1014.2 mb 0.07 in1.8 mm 0.00 in0.0 mm 0.97 in24.6 mm
08:32 AM 73.0°F22.8°C 71.2°F21.8°C 94% 1.7 mph S2.7 kmh S 5.3 mph8.5 kmh 29.95 in1014.2 mb 0.08 in2.0 mm 0.00 in0.0 mm 0.97 in24.6 mm
08:31 AM 73.2°F22.9°C 71.4°F21.9°C 94% Calm Calm 5.3 mph8.5 kmh 29.95 in1014.2 mb 0.08 in2.0 mm 0.00 in0.0 mm 0.97 in24.6 mm
08:30 AM 73.2°F22.9°C 71.4°F21.9°C 94% Calm Calm 5.3 mph8.5 kmh 29.95 in1014.2 mb 0.08 in2.0 mm 0.00 in0.0 mm 0.97 in24.6 mm
08:29 AM 73.2°F22.9°C 71.4°F21.9°C 94% 3.2 mph ESE5.1 kmh ESE 5.3 mph8.5 kmh 29.95 in1014.2 mb 0.08 in2.0 mm 0.00 in0.0 mm 0.97 in24.6 mm
08:28 AM 73.2°F22.9°C 71.7°F22.1°C 95% Calm Calm 5.3 mph8.5 kmh 29.95 in1014.2 mb 0.08 in2.0 mm 0.00 in0.0 mm 0.97 in24.6 mm
08:27 AM 73.2°F22.9°C 71.7°F22.1°C 95% 1.7 mph SSE2.7 kmh SSE 5.3 mph8.5 kmh 29.95 in1014.2 mb 0.08 in2.0 mm 0.00 in0.0 mm 0.97 in24.6 mm
08:26 AM 73.2°F22.9°C 71.7°F22.1°C 95% 5.3 mph ESE8.5 kmh ESE 5.3 mph8.5 kmh 29.95 in1014.2 mb 0.08 in2.0 mm 0.00 in0.0 mm 0.97 in24.6 mm
08:25 AM 73.2°F22.9°C 71.7°F22.1°C 95% 3.7 mph SE6.0 kmh SE 4.2 mph6.8 kmh 29.95 in1014.2 mb 0.09 in2.3 mm 0.00 in0.0 mm 0.97 in24.6 mm
08:24 AM 73.2°F22.9°C 71.7°F22.1°C 95% 1.1 mph S1.8 kmh S 15.0 mph24.1 kmh 29.95 in1014.2 mb 0.09 in2.3 mm 0.00 in0.0 mm 0.97 in24.6 mm
08:23 AM 73.4°F23.0°C 71.9°F22.2°C 95% 2.2 mph S3.5 kmh S 15.0 mph24.1 kmh 29.95 in1014.2 mb 0.09 in2.3 mm 0.00 in0.0 mm 0.97 in24.6 mm
08:22 AM 73.4°F23.0°C 71.9°F22.2°C 95% Calm Calm 15.0 mph24.1 kmh 29.95 in1014.2 mb 0.09 in2.3 mm 0.00 in0.0 mm 0.97 in24.6 mm
08:21 AM 73.4°F23.0°C 71.9°F22.2°C 95% Calm Calm 15.0 mph24.1 kmh 29.95 in1014.2 mb 0.09 in2.3 mm 0.00 in0.0 mm 0.97 in24.6 mm
08:20 AM 73.4°F23.0°C 71.9°F22.2°C 95% Calm Calm 15.0 mph24.1 kmh 29.95 in1014.2 mb 0.09 in2.3 mm 0.00 in0.0 mm 0.97 in24.6 mm
08:19 AM 73.4°F23.0°C 71.9°F22.2°C 95% Calm Calm 15.0 mph24.1 kmh 29.95 in1014.2 mb 0.09 in2.3 mm 0.00 in0.0 mm 0.97 in24.6 mm
08:18 AM 73.4°F23.0°C 71.9°F22.2°C 95% Calm Calm 15.0 mph24.1 kmh 29.95 in1014.2 mb 0.09 in2.3 mm 0.00 in0.0 mm 0.97 in24.6 mm
08:17 AM 73.4°F23.0°C 71.9°F22.2°C 95% 1.1 mph SW1.8 kmh SW 15.0 mph24.1 kmh 29.95 in1014.2 mb 0.09 in2.3 mm 0.00 in0.0 mm 0.97 in24.6 mm
08:16 AM 73.4°F23.0°C 71.9°F22.2°C 95% 2.2 mph S3.5 kmh S 15.0 mph24.1 kmh 29.95 in1014.2 mb 0.10 in2.5 mm 0.00 in0.0 mm 0.97 in24.6 mm
08:15 AM 73.4°F23.0°C 71.9°F22.2°C 95% Calm Calm 15.0 mph24.1 kmh 29.95 in1014.2 mb 0.10 in2.5 mm 0.00 in0.0 mm 0.97 in24.6 mm
08:14 AM 73.4°F23.0°C 71.9°F22.2°C 95% Calm Calm 5.3 mph8.5 kmh 29.95 in1014.2 mb 0.11 in2.8 mm 0.00 in0.0 mm 0.97 in24.6 mm
08:13 AM 73.6°F23.1°C 72.1°F22.3°C 95% Calm Calm 5.3 mph8.5 kmh 29.96 in1014.6 mb 0.11 in2.8 mm 0.00 in0.0 mm 0.97 in24.6 mm
08:12 AM 73.6°F23.1°C 72.1°F22.3°C 95% Calm Calm 5.3 mph8.5 kmh 29.96 in1014.6 mb 0.11 in2.8 mm 0.00 in0.0 mm 0.97 in24.6 mm
08:11 AM 73.6°F23.1°C 72.1°F22.3°C 95% 1.1 mph SSW1.8 kmh SSW 5.3 mph8.5 kmh 29.96 in1014.6 mb 0.11 in2.8 mm 0.00 in0.0 mm 0.97 in24.6 mm
08:10 AM 73.6°F23.1°C 72.1°F22.3°C 95% 1.1 mph SE1.8 kmh SE 5.3 mph8.5 kmh 29.96 in1014.6 mb 0.11 in2.8 mm 0.00 in0.0 mm 0.97 in24.6 mm
08:09 AM 73.6°F23.1°C 72.1°F22.3°C 95% 4.2 mph ESE6.8 kmh ESE 5.3 mph8.5 kmh 29.96 in1014.6 mb 0.11 in2.8 mm 0.00 in0.0 mm 0.97 in24.6 mm
08:08 AM 73.6°F23.1°C 72.1°F22.3°C 95% 1.1 mph SSW1.8 kmh SSW 5.3 mph8.5 kmh 29.96 in1014.6 mb 0.12 in3.0 mm 0.60 in15.2 mm 0.97 in24.6 mm
08:07 AM 73.6°F23.1°C 72.1°F22.3°C 95% Calm Calm 5.3 mph8.5 kmh 29.96 in1014.6 mb 0.11 in2.8 mm 0.00 in0.0 mm 0.96 in24.4 mm
08:06 AM 73.6°F23.1°C 72.1°F22.3°C 95% 1.7 mph S2.7 kmh S 5.3 mph8.5 kmh 29.96 in1014.6 mb 0.11 in2.8 mm 0.00 in0.0 mm 0.96 in24.4 mm
08:05 AM 73.6°F23.1°C 72.1°F22.3°C 95% Calm Calm 2.7 mph4.3 kmh 29.96 in1014.6 mb 0.12 in3.0 mm 0.00 in0.0 mm 0.96 in24.4 mm
08:04 AM 73.6°F23.1°C 72.1°F22.3°C 95% 1.7 mph SE2.7 kmh SE 2.7 mph4.3 kmh 29.96 in1014.6 mb 0.12 in3.0 mm 0.00 in0.0 mm 0.96 in24.4 mm
08:03 AM 73.6°F23.1°C 72.1°F22.3°C 95% Calm Calm 2.7 mph4.3 kmh 29.96 in1014.6 mb 0.12 in3.0 mm 0.00 in0.0 mm 0.96 in24.4 mm
08:02 AM 73.6°F23.1°C 72.1°F22.3°C 95% 1.7 mph SSW2.7 kmh SSW 2.7 mph4.3 kmh 29.96 in1014.6 mb 0.12 in3.0 mm 0.00 in0.0 mm 0.96 in24.4 mm
08:01 AM 73.8°F23.2°C 72.3°F22.4°C 95% 2.7 mph ESE4.3 kmh ESE 2.7 mph4.3 kmh 29.97 in1014.9 mb 0.12 in3.0 mm 0.00 in0.0 mm 0.96 in24.4 mm
08:00 AM 73.8°F23.2°C 72.3°F22.4°C 95% Calm Calm 4.2 mph6.8 kmh 29.97 in1014.9 mb 0.12 in3.0 mm 0.00 in0.0 mm 0.96 in24.4 mm
07:59 AM 73.8°F23.2°C 72.3°F22.4°C 95% Calm Calm 4.2 mph6.8 kmh 29.97 in1014.9 mb 0.12 in3.0 mm 0.60 in15.2 mm 0.96 in24.4 mm
07:58 AM 73.8°F23.2°C 72.3°F22.4°C 95% Calm Calm 5.3 mph8.5 kmh 29.97 in1014.9 mb 0.11 in2.8 mm 0.00 in0.0 mm 0.95 in24.1 mm
07:57 AM 73.8°F23.2°C 72.3°F22.4°C 95% Calm Calm 5.3 mph8.5 kmh 29.97 in1014.9 mb 0.12 in3.0 mm 0.00 in0.0 mm 0.95 in24.1 mm
07:56 AM 73.8°F23.2°C 72.3°F22.4°C 95% Calm Calm 5.3 mph8.5 kmh 29.97 in1014.9 mb 0.12 in3.0 mm 0.00 in0.0 mm 0.95 in24.1 mm
07:55 AM 73.8°F23.2°C 72.3°F22.4°C 95% 1.1 mph ESE1.8 kmh ESE 5.3 mph8.5 kmh 29.97 in1014.9 mb 0.12 in3.0 mm 0.60 in15.2 mm 0.95 in24.1 mm
07:54 AM 73.8°F23.2°C 72.3°F22.4°C 95% Calm Calm 5.3 mph8.5 kmh 29.97 in1014.9 mb 0.11 in2.8 mm 0.00 in0.0 mm 0.94 in23.9 mm
07:53 AM 73.8°F23.2°C 72.3°F22.4°C 95% 2.7 mph ESE4.3 kmh ESE 5.3 mph8.5 kmh 29.97 in1014.9 mb 0.11 in2.8 mm 0.00 in0.0 mm 0.94 in23.9 mm
07:52 AM 73.8°F23.2°C 72.3°F22.4°C 95% 2.7 mph ESE4.3 kmh ESE 5.3 mph8.5 kmh 29.97 in1014.9 mb 0.12 in3.0 mm 0.00 in0.0 mm 0.94 in23.9 mm
07:51 AM 73.9°F23.3°C 72.4°F22.4°C 95% 4.2 mph S6.8 kmh S 5.3 mph8.5 kmh 29.97 in1014.9 mb 0.12 in3.0 mm 0.00 in0.0 mm 0.94 in23.9 mm
07:50 AM 73.9°F23.3°C 72.4°F22.4°C 95% Calm Calm 5.3 mph8.5 kmh 29.97 in1014.9 mb 0.12 in3.0 mm 0.60 in15.2 mm 0.94 in23.9 mm
07:49 AM 73.9°F23.3°C 72.4°F22.4°C 95% 1.1 mph W1.8 kmh W 5.3 mph8.5 kmh 29.97 in1014.9 mb 0.11 in2.8 mm 0.00 in0.0 mm 0.93 in23.6 mm
07:48 AM 73.9°F23.3°C 72.4°F22.4°C 95% 2.7 mph ESE4.3 kmh ESE 4.7 mph7.6 kmh 29.97 in1014.9 mb 0.11 in2.8 mm 0.00 in0.0 mm 0.93 in23.6 mm
07:47 AM 73.9°F23.3°C 72.4°F22.4°C 95% Calm Calm 3.2 mph5.1 kmh 29.97 in1014.9 mb 0.12 in3.0 mm 0.00 in0.0 mm 0.93 in23.6 mm
07:46 AM 73.9°F23.3°C 72.4°F22.4°C 95% 1.7 mph N2.7 kmh N 3.2 mph5.1 kmh 29.97 in1014.9 mb 0.12 in3.0 mm 0.00 in0.0 mm 0.92 in23.4 mm
07:45 AM 73.9°F23.3°C 72.4°F22.4°C 95% 2.2 mph ESE3.5 kmh ESE 3.2 mph5.1 kmh 29.97 in1014.9 mb 0.13 in3.3 mm 0.00 in0.0 mm 0.92 in23.4 mm
07:44 AM 73.9°F23.3°C 72.4°F22.4°C 95% Calm Calm 3.2 mph5.1 kmh 29.97 in1014.9 mb 0.13 in3.3 mm 0.00 in0.0 mm 0.92 in23.4 mm
07:43 AM 73.9°F23.3°C 72.4°F22.4°C 95% Calm Calm 3.2 mph5.1 kmh 29.97 in1014.9 mb 0.15 in3.8 mm 0.00 in0.0 mm 0.92 in23.4 mm
07:42 AM 73.9°F23.3°C 72.4°F22.4°C 95% Calm Calm 3.2 mph5.1 kmh 29.97 in1014.9 mb 0.15 in3.8 mm 0.00 in0.0 mm 0.91 in23.1 mm
07:41 AM 73.9°F23.3°C 72.4°F22.4°C 95% 2.2 mph SE3.5 kmh SE 3.2 mph5.1 kmh 29.97 in1014.9 mb 0.16 in4.1 mm 0.00 in0.0 mm 0.91 in23.1 mm
07:40 AM 73.9°F23.3°C 72.4°F22.4°C 95% 2.7 mph SSE4.3 kmh SSE 3.2 mph5.1 kmh 29.97 in1014.9 mb 0.17 in4.3 mm 0.00 in0.0 mm 0.91 in23.1 mm
07:39 AM 73.9°F23.3°C 72.4°F22.4°C 95% 1.1 mph SSE1.8 kmh SSE 1.1 mph1.8 kmh 29.97 in1014.9 mb 0.17 in4.3 mm 0.60 in15.2 mm 0.91 in23.1 mm
07:38 AM 73.9°F23.3°C 72.4°F22.4°C 95% Calm Calm -- 29.97 in1014.9 mb 0.16 in4.1 mm 0.00 in0.0 mm 0.90 in22.9 mm
07:37 AM 73.9°F23.3°C 72.4°F22.4°C 95% Calm Calm -- 29.97 in1014.9 mb 0.16 in4.1 mm 0.00 in0.0 mm 0.90 in22.9 mm
07:36 AM 73.9°F23.3°C 72.4°F22.4°C 95% Calm Calm -- 29.97 in1014.9 mb 0.16 in4.1 mm 0.00 in0.0 mm 0.90 in22.9 mm
07:35 AM 73.9°F23.3°C 72.4°F22.4°C 95% Calm Calm -- 29.97 in1014.9 mb 0.16 in4.1 mm 0.00 in0.0 mm 0.90 in22.9 mm
07:34 AM 73.9°F23.3°C 72.4°F22.4°C 95% Calm Calm 4.2 mph6.8 kmh 29.97 in1014.9 mb 0.17 in4.3 mm 0.00 in0.0 mm 0.90 in22.9 mm
07:33 AM 73.9°F23.3°C 72.4°F22.4°C 95% Calm Calm 4.2 mph6.8 kmh 29.97 in1014.9 mb 0.18 in4.6 mm 0.00 in0.0 mm 0.90 in22.9 mm
07:32 AM 73.9°F23.3°C 72.4°F22.4°C 95% Calm Calm 4.2 mph6.8 kmh 29.97 in1014.9 mb 0.18 in4.6 mm 0.00 in0.0 mm 0.89 in22.6 mm
07:31 AM 73.9°F23.3°C 72.4°F22.4°C 95% Calm Calm 4.2 mph6.8 kmh 29.97 in1014.9 mb 0.19 in4.8 mm 0.00 in0.0 mm 0.89 in22.6 mm
07:30 AM 73.9°F23.3°C 72.4°F22.4°C 95% Calm Calm 4.2 mph6.8 kmh 29.97 in1014.9 mb 0.21 in5.3 mm 0.00 in0.0 mm 0.89 in22.6 mm
07:29 AM 73.9°F23.3°C 72.4°F22.4°C 95% Calm Calm 4.2 mph6.8 kmh 29.97 in1014.9 mb 0.26 in6.6 mm 0.00 in0.0 mm 0.89 in22.6 mm
07:28 AM 73.9°F23.3°C 72.4°F22.4°C 95% Calm Calm 4.2 mph6.8 kmh 29.97 in1014.9 mb 0.30 in7.6 mm 0.00 in0.0 mm 0.89 in22.6 mm
07:27 AM 73.9°F23.3°C 72.4°F22.4°C 95% Calm Calm 4.2 mph6.8 kmh 29.97 in1014.9 mb 0.33 in8.4 mm 0.00 in0.0 mm 0.89 in22.6 mm
07:26 AM 73.9°F23.3°C 72.1°F22.3°C 94% Calm Calm 4.2 mph6.8 kmh 29.98 in1015.2 mb 0.35 in8.9 mm 0.00 in0.0 mm 0.89 in22.6 mm
07:25 AM 73.9°F23.3°C 72.1°F22.3°C 94% Calm Calm 4.2 mph6.8 kmh 29.98 in1015.2 mb 0.42 in10.7 mm 0.00 in0.0 mm 0.88 in22.4 mm
07:24 AM 73.9°F23.3°C 72.1°F22.3°C 94% Calm Calm -- 29.98 in1015.2 mb 0.44 in11.2 mm 0.00 in0.0 mm 0.88 in22.4 mm
07:23 AM 73.9°F23.3°C 72.1°F22.3°C 94% Calm Calm -- 29.98 in1015.2 mb 0.48 in12.2 mm 0.00 in0.0 mm 0.88 in22.4 mm
07:22 AM 73.9°F23.3°C 72.1°F22.3°C 94% Calm Calm -- 29.98 in1015.2 mb 0.49 in12.4 mm 0.00 in0.0 mm 0.88 in22.4 mm
07:21 AM 73.9°F23.3°C 72.1°F22.3°C 94% Calm Calm -- 29.98 in1015.2 mb 0.50 in12.7 mm 0.00 in0.0 mm 0.88 in22.4 mm
07:20 AM 73.9°F23.3°C 72.1°F22.3°C 94% Calm Calm -- 29.98 in1015.2 mb 0.51 in13.0 mm 0.00 in0.0 mm 0.88 in22.4 mm
07:19 AM 73.9°F23.3°C 72.1°F22.3°C 94% Calm Calm -- 29.98 in1015.2 mb 0.51 in13.0 mm 0.00 in0.0 mm 0.88 in22.4 mm
07:18 AM 73.9°F23.3°C 72.1°F22.3°C 94% Calm Calm -- 29.98 in1015.2 mb 0.51 in13.0 mm 0.00 in0.0 mm 0.88 in22.4 mm
07:17 AM 73.9°F23.3°C 72.1°F22.3°C 94% Calm Calm -- 29.98 in1015.2 mb 0.52 in13.2 mm 0.60 in15.2 mm 0.88 in22.4 mm
07:16 AM 73.9°F23.3°C 72.1°F22.3°C 94% Calm Calm -- 29.98 in1015.2 mb 0.51 in13.0 mm 0.00 in0.0 mm 0.87 in22.1 mm
07:15 AM 73.9°F23.3°C 72.1°F22.3°C 94% Calm Calm 6.8 mph10.9 kmh 29.98 in1015.2 mb 0.51 in13.0 mm 0.00 in0.0 mm 0.87 in22.1 mm
07:14 AM 73.9°F23.3°C 72.1°F22.3°C 94% Calm Calm 6.8 mph10.9 kmh 29.98 in1015.2 mb 0.51 in13.0 mm 0.60 in15.2 mm 0.87 in22.1 mm
07:13 AM 73.9°F23.3°C 72.1°F22.3°C 94% Calm Calm 6.8 mph10.9 kmh 29.98 in1015.2 mb 0.50 in12.7 mm 0.00 in0.0 mm 0.86 in21.8 mm
07:12 AM 73.9°F23.3°C 72.1°F22.3°C 94% Calm Calm 6.8 mph10.9 kmh 29.98 in1015.2 mb 0.50 in12.7 mm 0.00 in0.0 mm 0.86 in21.8 mm
07:11 AM 73.9°F23.3°C 72.1°F22.3°C 94% Calm Calm 6.8 mph10.9 kmh 29.98 in1015.2 mb 0.50 in12.7 mm 0.00 in0.0 mm 0.86 in21.8 mm
07:10 AM 73.9°F23.3°C 72.1°F22.3°C 94% Calm Calm 6.8 mph10.9 kmh 29.98 in1015.2 mb 0.50 in12.7 mm 0.00 in0.0 mm 0.86 in21.8 mm
07:09 AM 73.9°F23.3°C 72.1°F22.3°C 94% Calm Calm 6.8 mph10.9 kmh 29.98 in1015.2 mb 0.50 in12.7 mm 0.60 in15.2 mm 0.86 in21.8 mm
07:08 AM 73.9°F23.3°C 72.1°F22.3°C 94% Calm Calm 6.8 mph10.9 kmh 29.98 in1015.2 mb 0.49 in12.4 mm 0.00 in0.0 mm 0.85 in21.6 mm
07:07 AM 73.9°F23.3°C 72.1°F22.3°C 94% Calm Calm 6.8 mph10.9 kmh 29.98 in1015.2 mb 0.49 in12.4 mm 0.00 in0.0 mm 0.85 in21.6 mm
07:06 AM 73.9°F23.3°C 72.1°F22.3°C 94% Calm Calm 6.8 mph10.9 kmh 29.98 in1015.2 mb 0.49 in12.4 mm 0.60 in15.2 mm 0.85 in21.6 mm
07:05 AM 73.9°F23.3°C 72.1°F22.3°C 94% 6.8 mph SW10.9 kmh SW 6.8 mph10.9 kmh 29.98 in1015.2 mb 0.48 in12.2 mm 0.00 in0.0 mm 0.84 in21.3 mm
07:04 AM 73.9°F23.3°C 72.1°F22.3°C 94% Calm Calm -- 29.98 in1015.2 mb 0.48 in12.2 mm 0.00 in0.0 mm 0.84 in21.3 mm
07:03 AM 73.9°F23.3°C 71.7°F22.1°C 93% Calm Calm 4.2 mph6.8 kmh 29.98 in1015.2 mb 0.48 in12.2 mm 0.00 in0.0 mm 0.84 in21.3 mm
07:02 AM 73.9°F23.3°C 71.7°F22.1°C 93% Calm Calm 4.2 mph6.8 kmh 29.98 in1015.2 mb 0.48 in12.2 mm 0.00 in0.0 mm 0.84 in21.3 mm
07:01 AM 73.9°F23.3°C 71.7°F22.1°C 93% Calm Calm 4.2 mph6.8 kmh 29.98 in1015.2 mb 0.48 in12.2 mm 0.00 in0.0 mm 0.84 in21.3 mm
07:00 AM 73.9°F23.3°C 71.7°F22.1°C 93% Calm Calm 4.2 mph6.8 kmh 29.98 in1015.2 mb 0.48 in12.2 mm 0.00 in0.0 mm 0.84 in21.3 mm
06:59 AM 73.9°F23.3°C 71.7°F22.1°C 93% Calm Calm 4.2 mph6.8 kmh 29.98 in1015.2 mb 0.48 in12.2 mm 0.00 in0.0 mm 0.84 in21.3 mm
06:58 AM 73.9°F23.3°C 71.7°F22.1°C 93% Calm Calm 4.2 mph6.8 kmh 29.98 in1015.2 mb 0.48 in12.2 mm 0.60 in15.2 mm 0.84 in21.3 mm
06:57 AM 73.9°F23.3°C 71.7°F22.1°C 93% Calm Calm 4.2 mph6.8 kmh 29.98 in1015.2 mb 0.47 in11.9 mm 0.00 in0.0 mm 0.83 in21.1 mm
06:56 AM 73.9°F23.3°C 71.7°F22.1°C 93% Calm Calm 4.2 mph6.8 kmh 29.98 in1015.2 mb 0.47 in11.9 mm 0.00 in0.0 mm 0.83 in21.1 mm
06:55 AM 73.9°F23.3°C 71.7°F22.1°C 93% Calm Calm 4.2 mph6.8 kmh 29.98 in1015.2 mb 0.47 in11.9 mm 0.00 in0.0 mm 0.83 in21.1 mm
06:54 AM 73.9°F23.3°C 71.7°F22.1°C 93% Calm Calm 4.2 mph6.8 kmh 29.98 in1015.2 mb 0.47 in11.9 mm 0.00 in0.0 mm 0.83 in21.1 mm
06:53 AM 73.9°F23.3°C 71.7°F22.1°C 93% Calm Calm 3.7 mph6.0 kmh 29.98 in1015.2 mb 0.47 in11.9 mm 0.60 in15.2 mm 0.83 in21.1 mm
06:52 AM 73.9°F23.3°C 71.7°F22.1°C 93% Calm Calm 3.7 mph6.0 kmh 29.98 in1015.2 mb 0.46 in11.7 mm 0.00 in0.0 mm 0.82 in20.8 mm
06:51 AM 73.9°F23.3°C 71.7°F22.1°C 93% Calm Calm 3.7 mph6.0 kmh 29.98 in1015.2 mb 0.46 in11.7 mm 0.00 in0.0 mm 0.82 in20.8 mm
06:50 AM 73.9°F23.3°C 71.7°F22.1°C 93% Calm Calm 3.7 mph6.0 kmh 29.98 in1015.2 mb 0.46 in11.7 mm 0.00 in0.0 mm 0.82 in20.8 mm
06:49 AM 73.9°F23.3°C 71.7°F22.1°C 93% Calm Calm 5.3 mph8.5 kmh 30.00 in1015.9 mb 0.46 in11.7 mm 0.00 in0.0 mm 0.82 in20.8 mm
06:48 AM 73.9°F23.3°C 71.7°F22.1°C 93% 2.7 mph SW4.3 kmh SW 5.3 mph8.5 kmh 30.00 in1015.9 mb 0.46 in11.7 mm 0.60 in15.2 mm 0.82 in20.8 mm
06:47 AM 74.1°F23.4°C 71.9°F22.2°C 93% Calm Calm 5.3 mph8.5 kmh 30.00 in1015.9 mb 0.45 in11.4 mm 0.60 in15.2 mm 0.81 in20.6 mm
06:46 AM 74.1°F23.4°C 71.9°F22.2°C 93% Calm Calm 5.3 mph8.5 kmh 30.00 in1015.9 mb 0.44 in11.2 mm 0.60 in15.2 mm 0.80 in20.3 mm
06:45 AM 74.1°F23.4°C 71.9°F22.2°C 93% Calm Calm 5.3 mph8.5 kmh 30.00 in1015.9 mb 0.43 in10.9 mm 0.00 in0.0 mm 0.79 in20.1 mm
06:44 AM 74.1°F23.4°C 71.9°F22.2°C 93% 3.7 mph W6.0 kmh W 5.3 mph8.5 kmh 30.00 in1015.9 mb 0.43 in10.9 mm 0.60 in15.2 mm 0.79 in20.1 mm
06:43 AM 74.1°F23.4°C 71.9°F22.2°C 93% 1.1 mph NW1.8 kmh NW 5.3 mph8.5 kmh 30.00 in1015.9 mb 0.42 in10.7 mm 1.20 in30.5 mm 0.78 in19.8 mm
06:42 AM 74.1°F23.4°C 71.9°F22.2°C 93% 1.7 mph WSW2.7 kmh WSW 5.3 mph8.5 kmh 30.00 in1015.9 mb 0.40 in10.2 mm 0.60 in15.2 mm 0.76 in19.3 mm
06:41 AM 74.1°F23.4°C 71.6°F22.0°C 92% 3.2 mph WNW5.1 kmh WNW 15.0 mph24.1 kmh 30.00 in1015.9 mb 0.39 in9.9 mm 0.60 in15.2 mm 0.75 in19.1 mm
06:40 AM 74.1°F23.4°C 71.6°F22.0°C 92% 5.3 mph W8.5 kmh W 15.0 mph24.1 kmh 30.00 in1015.9 mb 0.38 in9.7 mm 0.00 in0.0 mm 0.74 in18.8 mm
06:39 AM 74.1°F23.4°C 71.6°F22.0°C 92% Calm Calm 15.0 mph24.1 kmh 30.00 in1015.9 mb 0.38 in9.7 mm 0.00 in0.0 mm 0.74 in18.8 mm
06:38 AM 74.1°F23.4°C 71.6°F22.0°C 92% Calm Calm 15.0 mph24.1 kmh 30.00 in1015.9 mb 0.38 in9.7 mm 0.00 in0.0 mm 0.74 in18.8 mm
06:37 AM 74.1°F23.4°C 71.6°F22.0°C 92% Calm Calm 15.0 mph24.1 kmh 30.00 in1015.9 mb 0.38 in9.7 mm 0.00 in0.0 mm 0.74 in18.8 mm
06:36 AM 74.3°F23.5°C 71.8°F22.1°C 92% Calm Calm 15.0 mph24.1 kmh 30.00 in1015.9 mb 0.38 in9.7 mm 0.00 in0.0 mm 0.74 in18.8 mm
06:35 AM 74.3°F23.5°C 71.8°F22.1°C 92% Calm Calm 15.0 mph24.1 kmh 30.00 in1015.9 mb 0.38 in9.7 mm 0.60 in15.2 mm 0.74 in18.8 mm
06:34 AM 74.3°F23.5°C 71.8°F22.1°C 92% Calm Calm 15.0 mph24.1 kmh 30.00 in1015.9 mb 0.37 in9.4 mm 0.60 in15.2 mm 0.73 in18.5 mm
06:33 AM 74.3°F23.5°C 71.8°F22.1°C 92% Calm Calm 15.0 mph24.1 kmh 30.00 in1015.9 mb 0.36 in9.1 mm 0.60 in15.2 mm 0.72 in18.3 mm
06:32 AM 74.3°F23.5°C 71.8°F22.1°C 92% 4.7 mph W7.6 kmh W 15.0 mph24.1 kmh 30.00 in1015.9 mb 0.35 in8.9 mm 0.60 in15.2 mm 0.71 in18.0 mm
06:31 AM 74.5°F23.6°C 72.0°F22.2°C 92% 2.2 mph WNW3.5 kmh WNW 6.3 mph10.1 kmh 30.00 in1015.9 mb 0.34 in8.6 mm 1.20 in30.5 mm 0.70 in17.8 mm
06:30 AM 74.5°F23.6°C 72.0°F22.2°C 92% 4.2 mph NW6.8 kmh NW 6.3 mph10.1 kmh 30.00 in1015.9 mb 0.32 in8.1 mm 1.80 in45.7 mm 0.68 in17.3 mm
06:29 AM 74.7°F23.7°C 72.2°F22.3°C 92% Calm Calm 6.3 mph10.1 kmh 30.00 in1015.9 mb 0.29 in7.4 mm 2.40 in61.0 mm 0.65 in16.5 mm
06:28 AM 74.7°F23.7°C 71.9°F22.2°C 91% Calm Calm 6.3 mph10.1 kmh 30.00 in1015.9 mb 0.25 in6.4 mm 3.00 in76.2 mm 0.61 in15.5 mm
06:27 AM 74.8°F23.8°C 72.0°F22.2°C 91% 5.3 mph WNW8.5 kmh WNW 6.3 mph10.1 kmh 30.00 in1015.9 mb 0.20 in5.1 mm 1.20 in30.5 mm 0.56 in14.2 mm
06:26 AM 74.8°F23.8°C 72.0°F22.2°C 91% 3.7 mph W6.0 kmh W 6.3 mph10.1 kmh 30.00 in1015.9 mb 0.18 in4.6 mm 3.00 in76.2 mm 0.54 in13.7 mm
06:25 AM 75.2°F24.0°C 72.4°F22.4°C 91% 3.7 mph SSW6.0 kmh SSW 8.3 mph13.4 kmh 29.99 in1015.6 mb 0.13 in3.3 mm 3.00 in76.2 mm 0.49 in12.4 mm
06:24 AM 75.4°F24.1°C 72.3°F22.4°C 90% 3.7 mph WNW6.0 kmh WNW 8.3 mph13.4 kmh 29.99 in1015.6 mb 0.08 in2.0 mm 1.20 in30.5 mm 0.44 in11.2 mm
06:23 AM 75.6°F24.2°C 72.5°F22.5°C 90% 3.7 mph W6.0 kmh W 8.3 mph13.4 kmh 29.99 in1015.6 mb 0.06 in1.5 mm 1.80 in45.7 mm 0.42 in10.7 mm
06:22 AM 75.9°F24.4°C 72.4°F22.4°C 89% 4.2 mph W6.8 kmh W 8.3 mph13.4 kmh 29.99 in1015.6 mb 0.03 in0.8 mm 0.60 in15.2 mm 0.39 in9.9 mm
06:21 AM 76.1°F24.5°C 72.3°F22.4°C 88% 2.7 mph NNW4.3 kmh NNW 8.3 mph13.4 kmh 29.99 in1015.6 mb 0.02 in0.5 mm 0.60 in15.2 mm 0.38 in9.7 mm
06:20 AM 76.1°F24.5°C 72.3°F22.4°C 88% 2.7 mph W4.3 kmh W 8.3 mph13.4 kmh 29.99 in1015.6 mb 0.01 in0.3 mm 0.00 in0.0 mm 0.37 in9.4 mm
06:19 AM 76.5°F24.7°C 72.7°F22.6°C 88% 4.2 mph NW6.8 kmh NW 8.3 mph13.4 kmh 29.99 in1015.6 mb 0.01 in0.3 mm 0.00 in0.0 mm 0.37 in9.4 mm
06:18 AM 76.5°F24.7°C 72.7°F22.6°C 88% 5.3 mph WSW8.5 kmh WSW 8.3 mph13.4 kmh 29.99 in1015.6 mb 0.01 in0.3 mm 0.60 in15.2 mm 0.37 in9.4 mm
06:17 AM 76.6°F24.8°C 72.8°F22.7°C 88% 4.2 mph W6.8 kmh W 8.3 mph13.4 kmh 29.99 in1015.6 mb 0.00 in0.0 mm 0.00 in0.0 mm 0.36 in9.1 mm
06:16 AM 76.8°F24.9°C 73.3°F22.9°C 89% 5.8 mph W9.3 kmh W 8.3 mph13.4 kmh 29.99 in1015.6 mb 0.00 in0.0 mm 0.00 in0.0 mm 0.36 in9.1 mm
06:15 AM 76.8°F24.9°C 73.3°F22.9°C 89% 7.3 mph W11.7 kmh W 7.8 mph12.6 kmh 29.99 in1015.6 mb 0.00 in0.0 mm 0.00 in0.0 mm 0.36 in9.1 mm
06:14 AM 76.8°F24.9°C 73.3°F22.9°C 89% 4.2 mph W6.8 kmh W 7.8 mph12.6 kmh 29.99 in1015.6 mb 0.00 in0.0 mm 0.00 in0.0 mm 0.36 in9.1 mm
06:13 AM 76.8°F24.9°C 73.6°F23.1°C 90% 6.8 mph W10.9 kmh W 7.8 mph12.6 kmh 29.97 in1014.9 mb 0.00 in0.0 mm 0.00 in0.0 mm 0.36 in9.1 mm
06:12 AM 76.8°F24.9°C 73.6°F23.1°C 90% 2.7 mph WNW4.3 kmh WNW 7.8 mph12.6 kmh 29.97 in1014.9 mb 0.00 in0.0 mm 0.00 in0.0 mm 0.36 in9.1 mm
06:11 AM 76.8°F24.9°C 73.6°F23.1°C 90% 7.8 mph WNW12.6 kmh WNW 7.8 mph12.6 kmh 29.97 in1014.9 mb 0.00 in0.0 mm 0.00 in0.0 mm 0.36 in9.1 mm
06:10 AM 76.8°F24.9°C 73.6°F23.1°C 90% 6.3 mph WNW10.1 kmh WNW 6.8 mph10.9 kmh 29.97 in1014.9 mb 0.00 in0.0 mm 0.00 in0.0 mm 0.36 in9.1 mm
06:09 AM 76.6°F24.8°C 73.4°F23.0°C 90% Calm Calm 4.7 mph7.6 kmh 29.97 in1014.9 mb 0.00 in0.0 mm 0.00 in0.0 mm 0.36 in9.1 mm
06:08 AM 76.6°F24.8°C 73.4°F23.0°C 90% Calm Calm 4.7 mph7.6 kmh 29.97 in1014.9 mb 0.00 in0.0 mm 0.00 in0.0 mm 0.36 in9.1 mm
06:07 AM 76.6°F24.8°C 73.4°F23.0°C 90% Calm Calm 2.7 mph4.3 kmh 29.97 in1014.9 mb 0.00 in0.0 mm 0.00 in0.0 mm 0.36 in9.1 mm
06:06 AM 76.6°F24.8°C 73.4°F23.0°C 90% Calm Calm 2.7 mph4.3 kmh 29.97 in1014.9 mb 0.00 in0.0 mm 0.00 in0.0 mm 0.36 in9.1 mm
06:05 AM 76.6°F24.8°C 73.4°F23.0°C 90% Calm Calm 2.7 mph4.3 kmh 29.97 in1014.9 mb 0.00 in0.0 mm 0.00 in0.0 mm 0.36 in9.1 mm
06:04 AM 76.6°F24.8°C 73.1°F22.8°C 89% Calm Calm 2.7 mph4.3 kmh 29.97 in1014.9 mb 0.00 in0.0 mm 0.00 in0.0 mm 0.36 in9.1 mm
06:03 AM 76.6°F24.8°C 73.1°F22.8°C 89% Calm Calm -- 29.97 in1014.9 mb 0.00 in0.0 mm 0.00 in0.0 mm 0.36 in9.1 mm
06:02 AM 76.6°F24.8°C 73.1°F22.8°C 89% Calm Calm -- 29.95 in1014.2 mb 0.00 in0.0 mm 0.00 in0.0 mm 0.36 in9.1 mm
06:01 AM 76.6°F24.8°C 73.1°F22.8°C 89% Calm Calm -- 29.95 in1014.2 mb 0.00 in0.0 mm 0.00 in0.0 mm 0.36 in9.1 mm
06:00 AM 76.6°F24.8°C 72.8°F22.7°C 88% Calm Calm -- 29.95 in1014.2 mb 0.00 in0.0 mm 0.00 in0.0 mm 0.36 in9.1 mm
05:59 AM 76.6°F24.8°C 72.8°F22.7°C 88% Calm Calm -- 29.95 in1014.2 mb 0.00 in0.0 mm 0.00 in0.0 mm 0.36 in9.1 mm
05:58 AM 76.6°F24.8°C 72.8°F22.7°C 88% Calm Calm -- 29.95 in1014.2 mb 0.00 in0.0 mm 0.00 in0.0 mm 0.36 in9.1 mm
05:57 AM 76.6°F24.8°C 72.8°F22.7°C 88% Calm Calm -- 29.95 in1014.2 mb 0.00 in0.0 mm 0.00 in0.0 mm 0.36 in9.1 mm
05:56 AM 76.6°F24.8°C 72.8°F22.7°C 88% Calm Calm 1.7 mph2.7 kmh 29.95 in1014.2 mb 0.00 in0.0 mm 0.00 in0.0 mm 0.36 in9.1 mm
05:55 AM 76.8°F24.9°C 73.0°F22.8°C 88% Calm Calm 2.7 mph4.3 kmh 29.95 in1014.2 mb 0.00 in0.0 mm 0.00 in0.0 mm 0.36 in9.1 mm
05:54 AM 76.8°F24.9°C 73.0°F22.8°C 88% Calm Calm 2.7 mph4.3 kmh 29.95 in1014.2 mb 0.00 in0.0 mm 0.00 in0.0 mm 0.36 in9.1 mm
05:53 AM 76.8°F24.9°C 72.6°F22.6°C 87% Calm Calm 2.7 mph4.3 kmh 29.95 in1014.2 mb 0.00 in0.0 mm 0.00 in0.0 mm 0.36 in9.1 mm
05:52 AM 76.8°F24.9°C 72.6°F22.6°C 87% Calm Calm 2.7 mph4.3 kmh 29.95 in1014.2 mb 0.00 in0.0 mm 0.00 in0.0 mm 0.36 in9.1 mm
05:51 AM 76.8°F24.9°C 72.6°F22.6°C 87% Calm Calm 2.7 mph4.3 kmh 29.95 in1014.2 mb 0.00 in0.0 mm 0.00 in0.0 mm 0.36 in9.1 mm
05:50 AM 76.8°F24.9°C 72.6°F22.6°C 87% Calm Calm 2.7 mph4.3 kmh 29.95 in1014.2 mb 0.00 in0.0 mm 0.00 in0.0 mm 0.36 in9.1 mm
05:49 AM 76.8°F24.9°C 72.6°F22.6°C 87% Calm Calm 2.7 mph4.3 kmh 29.95 in1014.2 mb 0.00 in0.0 mm 0.00 in0.0 mm 0.36 in9.1 mm
05:48 AM 77.0°F25.0°C 72.8°F22.7°C 87% Calm Calm 2.7 mph4.3 kmh 29.95 in1014.2 mb 0.00 in0.0 mm 0.00 in0.0 mm 0.36 in9.1 mm
05:47 AM 77.0°F25.0°C 72.8°F22.7°C 87% 1.7 mph E2.7 kmh E 2.7 mph4.3 kmh 29.95 in1014.2 mb 0.00 in0.0 mm 0.00 in0.0 mm 0.36 in9.1 mm
05:46 AM 77.0°F25.0°C 72.5°F22.5°C 86% Calm Calm 2.7 mph4.3 kmh 29.95 in1014.2 mb 0.00 in0.0 mm 0.00 in0.0 mm 0.36 in9.1 mm
05:45 AM 77.0°F25.0°C 72.5°F22.5°C 86% Calm Calm -- 29.95 in1014.2 mb 0.00 in0.0 mm 0.00 in0.0 mm 0.36 in9.1 mm
05:44 AM 77.0°F25.0°C 72.5°F22.5°C 86% Calm Calm -- 29.95 in1014.2 mb 0.00 in0.0 mm 0.00 in0.0 mm 0.36 in9.1 mm
05:43 AM 77.2°F25.1°C 72.7°F22.6°C 86% Calm Calm -- 29.95 in1014.2 mb 0.00 in0.0 mm 0.00 in0.0 mm 0.36 in9.1 mm
05:42 AM 77.2°F25.1°C 72.7°F22.6°C 86% Calm Calm -- 29.95 in1014.2 mb 0.00 in0.0 mm 0.00 in0.0 mm 0.36 in9.1 mm
05:41 AM 77.2°F25.1°C 72.7°F22.6°C 86% Calm Calm -- 29.95 in1014.2 mb 0.00 in0.0 mm 0.00 in0.0 mm 0.36 in9.1 mm
05:40 AM 77.2°F25.1°C 72.7°F22.6°C 86% Calm Calm -- 29.95 in1014.2 mb 0.00 in0.0 mm 0.00 in0.0 mm 0.36 in9.1 mm
05:39 AM 77.4°F25.2°C 72.9°F22.7°C 86% Calm Calm -- 29.95 in1014.2 mb 0.00 in0.0 mm 0.00 in0.0 mm 0.36 in9.1 mm
05:38 AM 77.4°F25.2°C 72.9°F22.7°C 86% Calm Calm -- 29.95 in1014.2 mb 0.00 in0.0 mm 0.00 in0.0 mm 0.36 in9.1 mm
05:37 AM 77.4°F25.2°C 72.9°F22.7°C 86% Calm Calm 4.2 mph6.8 kmh 29.95 in1014.2 mb 0.00 in0.0 mm 0.00 in0.0 mm 0.36 in9.1 mm
05:36 AM 77.5°F25.3°C 72.6°F22.6°C 85% Calm Calm 5.8 mph9.3 kmh 29.95 in1014.2 mb 0.00 in0.0 mm 0.00 in0.0 mm 0.36 in9.1 mm
05:35 AM 77.5°F25.3°C 72.6°F22.6°C 85% Calm Calm 5.8 mph9.3 kmh 29.95 in1014.2 mb 0.00 in0.0 mm 0.00 in0.0 mm 0.36 in9.1 mm
05:34 AM 77.5°F25.3°C 72.6°F22.6°C 85% Calm Calm 5.8 mph9.3 kmh 29.95 in1014.2 mb 0.00 in0.0 mm 0.00 in0.0 mm 0.36 in9.1 mm
05:33 AM 77.7°F25.4°C 72.8°F22.7°C 85% Calm Calm 5.8 mph9.3 kmh 29.95 in1014.2 mb 0.00 in0.0 mm 0.00 in0.0 mm 0.36 in9.1 mm
05:32 AM 77.7°F25.4°C 72.8°F22.7°C 85% Calm Calm 5.8 mph9.3 kmh 29.95 in1014.2 mb 0.00 in0.0 mm 0.00 in0.0 mm 0.36 in9.1 mm
05:31 AM 77.9°F25.5°C 72.7°F22.6°C 84% Calm Calm 5.8 mph9.3 kmh 29.95 in1014.2 mb 0.00 in0.0 mm 0.00 in0.0 mm 0.36 in9.1 mm
05:30 AM 77.9°F25.5°C 72.7°F22.6°C 84% Calm Calm 5.8 mph9.3 kmh 29.95 in1014.2 mb 0.00 in0.0 mm 0.00 in0.0 mm 0.36 in9.1 mm
05:29 AM 77.9°F25.5°C 72.7°F22.6°C 84% Calm Calm 5.8 mph9.3 kmh 29.95 in1014.2 mb 0.00 in0.0 mm 0.00 in0.0 mm 0.36 in9.1 mm
05:28 AM 77.9°F25.5°C 72.7°F22.6°C 84% Calm Calm 5.8 mph9.3 kmh 29.95 in1014.2 mb 0.00 in0.0 mm 0.00 in0.0 mm 0.36 in9.1 mm
05:27 AM 77.9°F25.5°C 68.9°F20.5°C 74% 5.8 mph ESE9.3 kmh ESE 5.8 mph9.3 kmh 29.95 in1014.2 mb 0.00 in0.0 mm 0.00 in0.0 mm 0.36 in9.1 mm
05:26 AM 77.9°F25.5°C 72.3°F22.4°C 83% 2.7 mph ESE4.3 kmh ESE 3.7 mph6.0 kmh 29.95 in1014.2 mb 0.00 in0.0 mm 0.00 in0.0 mm 0.36 in9.1 mm
05:25 AM 77.9°F25.5°C 72.3°F22.4°C 83% Calm Calm 2.2 mph3.5 kmh 29.95 in1014.2 mb 0.00 in0.0 mm 0.00 in0.0 mm 0.36 in9.1 mm
05:24 AM 77.9°F25.5°C 68.9°F20.5°C 74% Calm Calm 2.2 mph3.5 kmh 29.95 in1014.2 mb 0.00 in0.0 mm 0.00 in0.0 mm 0.36 in9.1 mm
05:23 AM 77.9°F25.5°C 72.3°F22.4°C 83% 1.1 mph SW1.8 kmh SW 2.2 mph3.5 kmh 29.95 in1014.2 mb 0.00 in0.0 mm 0.00 in0.0 mm 0.36 in9.1 mm
05:22 AM 77.9°F25.5°C 72.3°F22.4°C 83% Calm Calm 2.2 mph3.5 kmh 29.95 in1014.2 mb 0.00 in0.0 mm 0.00 in0.0 mm 0.36 in9.1 mm
05:21 AM 77.9°F25.5°C 72.3°F22.4°C 83% Calm Calm 2.2 mph3.5 kmh 29.95 in1014.2 mb 0.00 in0.0 mm 0.00 in0.0 mm 0.36 in9.1 mm
05:20 AM 77.9°F25.5°C 72.3°F22.4°C 83% Calm Calm 2.2 mph3.5 kmh 29.95 in1014.2 mb 0.00 in0.0 mm 0.00 in0.0 mm 0.36 in9.1 mm
05:19 AM 77.7°F25.4°C 72.1°F22.3°C 83% 1.1 mph SW1.8 kmh SW 2.2 mph3.5 kmh 29.95 in1014.2 mb 0.00 in0.0 mm 0.00 in0.0 mm 0.36 in9.1 mm
05:18 AM 77.7°F25.4°C 72.1°F22.3°C 83% Calm Calm 2.2 mph3.5 kmh 29.95 in1014.2 mb 0.00 in0.0 mm 0.00 in0.0 mm 0.36 in9.1 mm
05:17 AM 77.7°F25.4°C 72.1°F22.3°C 83% Calm Calm 2.2 mph3.5 kmh 29.95 in1014.2 mb 0.00 in0.0 mm 0.00 in0.0 mm 0.36 in9.1 mm
05:16 AM 77.7°F25.4°C 72.1°F22.3°C 83% Calm Calm 2.2 mph3.5 kmh 29.95 in1014.2 mb 0.00 in0.0 mm 0.00 in0.0 mm 0.36 in9.1 mm
05:15 AM 77.7°F25.4°C 72.1°F22.3°C 83% 1.7 mph E2.7 kmh E 2.2 mph3.5 kmh 29.95 in1014.2 mb 0.00 in0.0 mm 0.00 in0.0 mm 0.36 in9.1 mm
05:14 AM 77.7°F25.4°C 72.1°F22.3°C 83% 1.1 mph SSE1.8 kmh SSE 2.2 mph3.5 kmh 29.96 in1014.6 mb 0.00 in0.0 mm 0.00 in0.0 mm 0.36 in9.1 mm
05:13 AM 77.7°F25.4°C 72.5°F22.5°C 84% Calm Calm 2.2 mph3.5 kmh 29.96 in1014.6 mb 0.00 in0.0 mm 0.00 in0.0 mm 0.36 in9.1 mm
05:12 AM 77.7°F25.4°C 72.5°F22.5°C 84% Calm Calm 2.2 mph3.5 kmh 29.96 in1014.6 mb 0.00 in0.0 mm 0.00 in0.0 mm 0.36 in9.1 mm
05:11 AM 77.7°F25.4°C 72.5°F22.5°C 84% 1.7 mph E2.7 kmh E 2.2 mph3.5 kmh 29.96 in1014.6 mb 0.00 in0.0 mm 0.00 in0.0 mm 0.36 in9.1 mm
05:10 AM 77.7°F25.4°C 72.5°F22.5°C 84% Calm Calm 2.2 mph3.5 kmh 29.96 in1014.6 mb 0.00 in0.0 mm 0.00 in0.0 mm 0.36 in9.1 mm
05:09 AM 77.5°F25.3°C 72.3°F22.4°C 84% Calm Calm 2.2 mph3.5 kmh 29.96 in1014.6 mb 0.00 in0.0 mm 0.00 in0.0 mm 0.36 in9.1 mm
05:08 AM 77.5°F25.3°C 72.3°F22.4°C 84% Calm Calm 2.2 mph3.5 kmh 29.96 in1014.6 mb 0.00 in0.0 mm 0.00 in0.0 mm 0.36 in9.1 mm
05:07 AM 77.5°F25.3°C 72.3°F22.4°C 84% Calm Calm 2.2 mph3.5 kmh 29.96 in1014.6 mb 0.00 in0.0 mm 0.00 in0.0 mm 0.36 in9.1 mm
05:06 AM 77.5°F25.3°C 72.3°F22.4°C 84% Calm Calm 2.2 mph3.5 kmh 29.96 in1014.6 mb 0.00 in0.0 mm 0.00 in0.0 mm 0.36 in9.1 mm
05:05 AM 77.5°F25.3°C 72.3°F22.4°C 84% 2.2 mph ESE3.5 kmh ESE 2.2 mph3.5 kmh 29.96 in1014.6 mb 0.00 in0.0 mm 0.00 in0.0 mm 0.36 in9.1 mm
05:04 AM 77.4°F25.2°C 72.2°F22.3°C 84% Calm Calm 1.1 mph1.8 kmh 29.96 in1014.6 mb 0.00 in0.0 mm 0.00 in0.0 mm 0.36 in9.1 mm
05:03 AM 77.4°F25.2°C 72.2°F22.3°C 84% Calm Calm 1.1 mph1.8 kmh 29.96 in1014.6 mb 0.00 in0.0 mm 0.00 in0.0 mm 0.36 in9.1 mm
05:02 AM 77.4°F25.2°C 72.2°F22.3°C 84% Calm Calm 1.1 mph1.8 kmh 29.96 in1014.6 mb 0.00 in0.0 mm 0.00 in0.0 mm 0.36 in9.1 mm
05:01 AM 77.4°F25.2°C 72.2°F22.3°C 84% Calm Calm 1.1 mph1.8 kmh 29.95 in1014.2 mb 0.00 in0.0 mm 0.00 in0.0 mm 0.36 in9.1 mm
05:00 AM 77.4°F25.2°C 72.2°F22.3°C 84% Calm Calm 1.1 mph1.8 kmh 29.95 in1014.2 mb 0.00 in0.0 mm 0.00 in0.0 mm 0.36 in9.1 mm
04:59 AM 77.4°F25.2°C 72.2°F22.3°C 84% Calm Calm 1.1 mph1.8 kmh 29.95 in1014.2 mb 0.00 in0.0 mm 0.00 in0.0 mm 0.36 in9.1 mm
04:58 AM 77.4°F25.2°C 72.2°F22.3°C 84% Calm Calm 1.1 mph1.8 kmh 29.95 in1014.2 mb 0.00 in0.0 mm 0.00 in0.0 mm 0.36 in9.1 mm
04:57 AM 77.4°F25.2°C 72.2°F22.3°C 84% Calm Calm 1.1 mph1.8 kmh 29.95 in1014.2 mb 0.00 in0.0 mm 0.00 in0.0 mm 0.36 in9.1 mm
04:56 AM 77.4°F25.2°C 72.2°F22.3°C 84% 1.1 mph ESE1.8 kmh ESE 1.1 mph1.8 kmh 29.95 in1014.2 mb 0.00 in0.0 mm 0.00 in0.0 mm 0.36 in9.1 mm
04:55 AM 77.4°F25.2°C 72.2°F22.3°C 84% Calm Calm 1.1 mph1.8 kmh 29.95 in1014.2 mb 0.00 in0.0 mm 0.00 in0.0 mm 0.36 in9.1 mm
04:54 AM 77.4°F25.2°C 72.2°F22.3°C 84% Calm Calm 1.1 mph1.8 kmh 29.95 in1014.2 mb 0.00 in0.0 mm 0.00 in0.0 mm 0.36 in9.1 mm
04:53 AM 77.4°F25.2°C 72.2°F22.3°C 84% Calm Calm 1.1 mph1.8 kmh 29.95 in1014.2 mb 0.00 in0.0 mm 0.00 in0.0 mm 0.36 in9.1 mm
04:52 AM 77.4°F25.2°C 72.2°F22.3°C 84% Calm Calm 1.1 mph1.8 kmh 29.95 in1014.2 mb 0.00 in0.0 mm 0.00 in0.0 mm 0.36 in9.1 mm
04:51 AM 77.4°F25.2°C 72.2°F22.3°C 84% Calm Calm 1.1 mph1.8 kmh 29.95 in1014.2 mb 0.00 in0.0 mm 0.00 in0.0 mm 0.36 in9.1 mm
04:50 AM 77.4°F25.2°C 72.2°F22.3°C 84% Calm Calm -- 29.96 in1014.6 mb 0.09 in2.3 mm 0.00 in0.0 mm 0.36 in9.1 mm
04:49 AM 77.4°F25.2°C 72.2°F22.3°C 84% Calm Calm -- 29.96 in1014.6 mb 0.09 in2.3 mm 0.00 in0.0 mm 0.36 in9.1 mm
04:48 AM 77.4°F25.2°C 72.2°F22.3°C 84% Calm Calm -- 29.96 in1014.6 mb 0.09 in2.3 mm 0.00 in0.0 mm 0.36 in9.1 mm
04:47 AM 77.4°F25.2°C 72.2°F22.3°C 84% Calm Calm -- 29.96 in1014.6 mb 0.09 in2.3 mm 0.00 in0.0 mm 0.36 in9.1 mm
04:46 AM 77.4°F25.2°C 72.2°F22.3°C 84% Calm Calm -- 29.96 in1014.6 mb 0.09 in2.3 mm 0.00 in0.0 mm 0.36 in9.1 mm
04:45 AM 77.4°F25.2°C 72.2°F22.3°C 84% Calm Calm -- 29.96 in1014.6 mb 0.09 in2.3 mm 0.00 in0.0 mm 0.36 in9.1 mm
04:44 AM 77.4°F25.2°C 72.2°F22.3°C 84% Calm Calm 19.1 mph30.7 kmh 29.96 in1014.6 mb 0.09 in2.3 mm 0.00 in0.0 mm 0.36 in9.1 mm
04:43 AM 77.4°F25.2°C 71.8°F22.1°C 83% Calm Calm 19.1 mph30.7 kmh 29.96 in1014.6 mb 0.09 in2.3 mm 0.00 in0.0 mm 0.36 in9.1 mm
04:42 AM 77.4°F25.2°C 71.8°F22.1°C 83% Calm Calm 19.1 mph30.7 kmh 29.96 in1014.6 mb 0.09 in2.3 mm 0.00 in0.0 mm 0.36 in9.1 mm
04:41 AM 77.4°F25.2°C 71.8°F22.1°C 83% Calm Calm 19.1 mph30.7 kmh 29.96 in1014.6 mb 0.09 in2.3 mm 0.00 in0.0 mm 0.36 in9.1 mm
04:40 AM 77.4°F25.2°C 71.8°F22.1°C 83% Calm Calm 19.1 mph30.7 kmh 29.96 in1014.6 mb 0.09 in2.3 mm 0.00 in0.0 mm 0.36 in9.1 mm
04:39 AM 77.4°F25.2°C 71.8°F22.1°C 83% Calm Calm 19.1 mph30.7 kmh 29.96 in1014.6 mb 0.09 in2.3 mm 0.00 in0.0 mm 0.36 in9.1 mm
04:38 AM 77.4°F25.2°C 71.8°F22.1°C 83% Calm Calm 19.1 mph30.7 kmh 29.95 in1014.2 mb 0.09 in2.3 mm 0.00 in0.0 mm 0.36 in9.1 mm
04:37 AM 77.4°F25.2°C 71.8°F22.1°C 83% Calm Calm 19.1 mph30.7 kmh 29.95 in1014.2 mb 0.09 in2.3 mm 0.00 in0.0 mm 0.36 in9.1 mm
04:36 AM 77.4°F25.2°C 71.8°F22.1°C 83% Calm Calm 19.1 mph30.7 kmh 29.95 in1014.2 mb 0.09 in2.3 mm 0.00 in0.0 mm 0.36 in9.1 mm
04:35 AM 77.4°F25.2°C 71.8°F22.1°C 83% 19.1 mph SW30.7 kmh SW 19.1 mph30.7 kmh 29.95 in1014.2 mb 0.09 in2.3 mm 0.00 in0.0 mm 0.36 in9.1 mm
04:34 AM 77.4°F25.2°C 71.8°F22.1°C 83% Calm Calm -- 29.95 in1014.2 mb 0.09 in2.3 mm 0.00 in0.0 mm 0.36 in9.1 mm
04:33 AM 77.4°F25.2°C 71.8°F22.1°C 83% Calm Calm -- 29.95 in1014.2 mb 0.09 in2.3 mm 0.00 in0.0 mm 0.36 in9.1 mm
04:32 AM 77.4°F25.2°C 71.8°F22.1°C 83% Calm Calm 1.1 mph1.8 kmh 29.95 in1014.2 mb 0.09 in2.3 mm 0.00 in0.0 mm 0.36 in9.1 mm
04:31 AM 77.5°F25.3°C 71.9°F22.2°C 83% Calm Calm 1.1 mph1.8 kmh 29.95 in1014.2 mb 0.09 in2.3 mm 0.00 in0.0 mm 0.36 in9.1 mm
04:30 AM 77.5°F25.3°C 71.9°F22.2°C 83% Calm Calm 1.1 mph1.8 kmh 29.95 in1014.2 mb 0.09 in2.3 mm 0.00 in0.0 mm 0.36 in9.1 mm
04:29 AM 77.5°F25.3°C 71.9°F22.2°C 83% Calm Calm 1.1 mph1.8 kmh 29.95 in1014.2 mb 0.09 in2.3 mm 0.00 in0.0 mm 0.36 in9.1 mm
04:28 AM 77.5°F25.3°C 71.9°F22.2°C 83% Calm Calm 1.1 mph1.8 kmh 29.95 in1014.2 mb 0.09 in2.3 mm 0.00 in0.0 mm 0.36 in9.1 mm
04:27 AM 77.5°F25.3°C 71.9°F22.2°C 83% Calm Calm 1.1 mph1.8 kmh 29.95 in1014.2 mb 0.09 in2.3 mm 0.00 in0.0 mm 0.36 in9.1 mm
04:26 AM 77.5°F25.3°C 71.9°F22.2°C 83% Calm Calm 1.1 mph1.8 kmh 29.96 in1014.6 mb 0.09 in2.3 mm 0.00 in0.0 mm 0.36 in9.1 mm
04:25 AM 77.5°F25.3°C 71.9°F22.2°C 83% Calm Calm 1.1 mph1.8 kmh 29.96 in1014.6 mb 0.09 in2.3 mm 0.00 in0.0 mm 0.36 in9.1 mm
04:24 AM 77.5°F25.3°C 71.9°F22.2°C 83% Calm Calm 1.1 mph1.8 kmh 29.96 in1014.6 mb 0.09 in2.3 mm 0.00 in0.0 mm 0.36 in9.1 mm
04:23 AM 77.5°F25.3°C 71.9°F22.2°C 83% Calm Calm 1.1 mph1.8 kmh 29.96 in1014.6 mb 0.09 in2.3 mm 0.00 in0.0 mm 0.36 in9.1 mm
04:22 AM 77.5°F25.3°C 71.9°F22.2°C 83% Calm Calm 1.1 mph1.8 kmh 29.96 in1014.6 mb 0.09 in2.3 mm 0.00 in0.0 mm 0.36 in9.1 mm
04:21 AM 77.5°F25.3°C 71.9°F22.2°C 83% Calm Calm 1.1 mph1.8 kmh 29.96 in1014.6 mb 0.09 in2.3 mm 0.00 in0.0 mm 0.36 in9.1 mm
04:20 AM 77.5°F25.3°C 71.9°F22.2°C 83% Calm Calm 1.1 mph1.8 kmh 29.96 in1014.6 mb 0.09 in2.3 mm 0.00 in0.0 mm 0.36 in9.1 mm
04:19 AM 77.5°F25.3°C 71.9°F22.2°C 83% Calm Calm -- 29.96 in1014.6 mb 0.09 in2.3 mm 0.00 in0.0 mm 0.36 in9.1 mm
04:18 AM 77.5°F25.3°C 71.9°F22.2°C 83% Calm Calm 1.1 mph1.8 kmh 29.96 in1014.6 mb 0.09 in2.3 mm 0.00 in0.0 mm 0.36 in9.1 mm
04:17 AM 77.5°F25.3°C 71.9°F22.2°C 83% Calm Calm 1.1 mph1.8 kmh 29.96 in1014.6 mb 0.09 in2.3 mm 0.00 in0.0 mm 0.36 in9.1 mm
04:16 AM 77.5°F25.3°C 71.9°F22.2°C 83% Calm Calm 1.1 mph1.8 kmh 29.96 in1014.6 mb 0.09 in2.3 mm 0.00 in0.0 mm 0.36 in9.1 mm
04:15 AM 77.5°F25.3°C 71.9°F22.2°C 83% Calm Calm 1.7 mph2.7 kmh 29.96 in1014.6 mb 0.09 in2.3 mm 0.00 in0.0 mm 0.36 in9.1 mm
04:14 AM 77.5°F25.3°C 71.9°F22.2°C 83% Calm Calm 1.7 mph2.7 kmh 29.96 in1014.6 mb 0.09 in2.3 mm 0.00 in0.0 mm 0.36 in9.1 mm
04:13 AM 77.5°F25.3°C 71.9°F22.2°C 83% Calm Calm 1.7 mph2.7 kmh 29.96 in1014.6 mb 0.09 in2.3 mm 0.00 in0.0 mm 0.36 in9.1 mm
04:12 AM 77.5°F25.3°C 71.9°F22.2°C 83% Calm Calm 1.7 mph2.7 kmh 29.96 in1014.6 mb 0.09 in2.3 mm 0.00 in0.0 mm 0.36 in9.1 mm
04:11 AM 77.5°F25.3°C 71.9°F22.2°C 83% Calm Calm 1.7 mph2.7 kmh 29.96 in1014.6 mb 0.09 in2.3 mm 0.00 in0.0 mm 0.36 in9.1 mm
04:10 AM 77.5°F25.3°C 71.9°F22.2°C 83% Calm Calm 1.7 mph2.7 kmh 29.96 in1014.6 mb 0.09 in2.3 mm 0.00 in0.0 mm 0.36 in9.1 mm
04:09 AM 77.5°F25.3°C 71.9°F22.2°C 83% Calm Calm 1.7 mph2.7 kmh 29.96 in1014.6 mb 0.09 in2.3 mm 0.00 in0.0 mm 0.36 in9.1 mm
04:08 AM 77.5°F25.3°C 71.9°F22.2°C 83% Calm Calm 1.7 mph2.7 kmh 29.96 in1014.6 mb 0.09 in2.3 mm 0.00 in0.0 mm 0.36 in9.1 mm
04:07 AM 77.5°F25.3°C 71.9°F22.2°C 83% Calm Calm 1.7 mph2.7 kmh 29.96 in1014.6 mb 0.09 in2.3 mm 0.00 in0.0 mm 0.36 in9.1 mm
04:06 AM 77.5°F25.3°C 71.9°F22.2°C 83% Calm Calm 1.7 mph2.7 kmh 29.96 in1014.6 mb 0.09 in2.3 mm 0.00 in0.0 mm 0.36 in9.1 mm
04:05 AM 77.5°F25.3°C 71.9°F22.2°C 83% Calm Calm -- 29.96 in1014.6 mb 0.09 in2.3 mm 0.00 in0.0 mm 0.36 in9.1 mm
04:04 AM 77.5°F25.3°C 71.9°F22.2°C 83% Calm Calm -- 29.96 in1014.6 mb 0.09 in2.3 mm 0.00 in0.0 mm 0.36 in9.1 mm
04:03 AM 77.5°F25.3°C 71.9°F22.2°C 83% Calm Calm -- 29.96 in1014.6 mb 0.09 in2.3 mm 0.00 in0.0 mm 0.36 in9.1 mm
04:02 AM 77.5°F25.3°C 71.9°F22.2°C 83% Calm Calm -- 29.96 in1014.6 mb 0.19 in4.8 mm 0.00 in0.0 mm 0.36 in9.1 mm
04:01 AM 77.5°F25.3°C 71.9°F22.2°C 83% Calm Calm -- 29.96 in1014.6 mb 0.19 in4.8 mm 0.00 in0.0 mm 0.36 in9.1 mm
04:00 AM 77.5°F25.3°C 71.9°F22.2°C 83% Calm Calm -- 29.96 in1014.6 mb 0.19 in4.8 mm 0.00 in0.0 mm 0.36 in9.1 mm
03:59 AM 77.5°F25.3°C 71.9°F22.2°C 83% Calm Calm -- 29.96 in1014.6 mb 0.19 in4.8 mm 0.00 in0.0 mm 0.36 in9.1 mm
03:58 AM 77.5°F25.3°C 71.9°F22.2°C 83% Calm Calm -- 29.96 in1014.6 mb 0.19 in4.8 mm 0.00 in0.0 mm 0.36 in9.1 mm
03:57 AM 77.5°F25.3°C 71.9°F22.2°C 83% Calm Calm -- 29.96 in1014.6 mb 0.19 in4.8 mm 0.00 in0.0 mm 0.36 in9.1 mm
03:56 AM 77.5°F25.3°C 71.9°F22.2°C 83% Calm Calm -- 29.96 in1014.6 mb 0.19 in4.8 mm 0.00 in0.0 mm 0.36 in9.1 mm
03:55 AM 77.5°F25.3°C 71.9°F22.2°C 83% Calm Calm -- 29.96 in1014.6 mb 0.19 in4.8 mm 0.00 in0.0 mm 0.36 in9.1 mm
03:54 AM 77.5°F25.3°C 71.9°F22.2°C 83% Calm Calm 1.1 mph1.8 kmh 29.96 in1014.6 mb 0.19 in4.8 mm 0.00 in0.0 mm 0.36 in9.1 mm
03:53 AM 77.5°F25.3°C 71.9°F22.2°C 83% Calm Calm 1.1 mph1.8 kmh 29.96 in1014.6 mb 0.19 in4.8 mm 0.00 in0.0 mm 0.36 in9.1 mm
03:52 AM 77.5°F25.3°C 71.9°F22.2°C 83% Calm Calm 2.2 mph3.5 kmh 29.96 in1014.6 mb 0.19 in4.8 mm 0.00 in0.0 mm 0.36 in9.1 mm
03:51 AM 77.5°F25.3°C 71.9°F22.2°C 83% Calm Calm 2.2 mph3.5 kmh 29.96 in1014.6 mb 0.19 in4.8 mm 5.40 in137.2 mm 0.36 in9.1 mm
03:50 AM 77.5°F25.3°C 71.9°F22.2°C 83% Calm Calm 3.2 mph5.1 kmh 29.96 in1014.6 mb 0.10 in2.5 mm 0.00 in0.0 mm 0.27 in6.9 mm
03:49 AM 77.5°F25.3°C 71.9°F22.2°C 83% Calm Calm 3.2 mph5.1 kmh 29.96 in1014.6 mb 0.10 in2.5 mm 0.00 in0.0 mm 0.27 in6.9 mm
03:48 AM 77.5°F25.3°C 71.9°F22.2°C 83% Calm Calm 3.2 mph5.1 kmh 29.96 in1014.6 mb 0.19 in4.8 mm 0.00 in0.0 mm 0.27 in6.9 mm
03:47 AM 77.5°F25.3°C 71.9°F22.2°C 83% Calm Calm 3.2 mph5.1 kmh 29.96 in1014.6 mb 0.19 in4.8 mm 0.00 in0.0 mm 0.27 in6.9 mm
03:46 AM 77.5°F25.3°C 71.9°F22.2°C 83% Calm Calm 3.2 mph5.1 kmh 29.96 in1014.6 mb 0.19 in4.8 mm 0.00 in0.0 mm 0.27 in6.9 mm
03:45 AM 77.5°F25.3°C 71.9°F22.2°C 83% 1.1 mph SSW1.8 kmh SSW 3.2 mph5.1 kmh 29.96 in1014.6 mb 0.19 in4.8 mm 0.00 in0.0 mm 0.27 in6.9 mm
03:44 AM 77.5°F25.3°C 71.9°F22.2°C 83% Calm Calm 3.2 mph5.1 kmh 29.96 in1014.6 mb 0.19 in4.8 mm 0.00 in0.0 mm 0.27 in6.9 mm
03:43 AM 77.5°F25.3°C 68.5°F20.3°C 74% Calm Calm 3.2 mph5.1 kmh 29.96 in1014.6 mb 0.19 in4.8 mm 0.00 in0.0 mm 0.27 in6.9 mm
03:42 AM 77.5°F25.3°C 71.9°F22.2°C 83% Calm Calm 3.2 mph5.1 kmh 29.96 in1014.6 mb 0.19 in4.8 mm 0.00 in0.0 mm 0.27 in6.9 mm
03:41 AM 77.5°F25.3°C 71.9°F22.2°C 83% Calm Calm 3.2 mph5.1 kmh 29.96 in1014.6 mb 0.19 in4.8 mm 0.00 in0.0 mm 0.27 in6.9 mm
03:40 AM 77.5°F25.3°C 71.9°F22.2°C 83% Calm Calm 2.2 mph3.5 kmh 29.96 in1014.6 mb 0.19 in4.8 mm 0.00 in0.0 mm 0.27 in6.9 mm
03:39 AM 77.5°F25.3°C 68.5°F20.3°C 74% 1.7 mph W2.7 kmh W 2.2 mph3.5 kmh 29.96 in1014.6 mb 0.19 in4.8 mm 0.00 in0.0 mm 0.27 in6.9 mm
03:38 AM 77.5°F25.3°C 71.9°F22.2°C 83% 1.1 mph WSW1.8 kmh WSW 2.2 mph3.5 kmh 29.96 in1014.6 mb 0.19 in4.8 mm 0.00 in0.0 mm 0.27 in6.9 mm
03:37 AM 77.5°F25.3°C 71.9°F22.2°C 83% Calm Calm 2.2 mph3.5 kmh 29.96 in1014.6 mb 0.19 in4.8 mm 0.00 in0.0 mm 0.27 in6.9 mm
03:36 AM 77.5°F25.3°C 71.9°F22.2°C 83% 1.7 mph SW2.7 kmh SW 2.2 mph3.5 kmh 29.96 in1014.6 mb 0.19 in4.8 mm 0.00 in0.0 mm 0.27 in6.9 mm
03:35 AM 77.5°F25.3°C 71.9°F22.2°C 83% 1.1 mph ESE1.8 kmh ESE 2.2 mph3.5 kmh 29.96 in1014.6 mb 0.19 in4.8 mm 0.00 in0.0 mm 0.27 in6.9 mm
03:34 AM 77.5°F25.3°C 71.9°F22.2°C 83% Calm Calm 2.2 mph3.5 kmh 29.96 in1014.6 mb 0.19 in4.8 mm 0.00 in0.0 mm 0.27 in6.9 mm
03:33 AM 77.5°F25.3°C 71.9°F22.2°C 83% 1.7 mph NNE2.7 kmh NNE 2.2 mph3.5 kmh 29.96 in1014.6 mb 0.19 in4.8 mm 0.00 in0.0 mm 0.27 in6.9 mm
03:32 AM 77.5°F25.3°C 71.9°F22.2°C 83% Calm Calm 2.7 mph4.3 kmh 29.96 in1014.6 mb 0.27 in6.9 mm 0.00 in0.0 mm 0.27 in6.9 mm
03:31 AM 77.5°F25.3°C 71.9°F22.2°C 83% Calm Calm 2.7 mph4.3 kmh 29.96 in1014.6 mb 0.27 in6.9 mm 0.00 in0.0 mm 0.27 in6.9 mm
03:30 AM 77.5°F25.3°C 71.9°F22.2°C 83% 1.7 mph SW2.7 kmh SW 2.7 mph4.3 kmh 29.96 in1014.6 mb 0.27 in6.9 mm 0.00 in0.0 mm 0.27 in6.9 mm
03:29 AM 77.5°F25.3°C 71.9°F22.2°C 83% Calm Calm 2.7 mph4.3 kmh 29.96 in1014.6 mb 0.27 in6.9 mm 0.00 in0.0 mm 0.27 in6.9 mm
03:28 AM 77.5°F25.3°C 71.9°F22.2°C 83% Calm Calm 2.7 mph4.3 kmh 29.96 in1014.6 mb 0.27 in6.9 mm 0.00 in0.0 mm 0.27 in6.9 mm
03:27 AM 77.5°F25.3°C 71.9°F22.2°C 83% 1.7 mph W2.7 kmh W 2.7 mph4.3 kmh 29.96 in1014.6 mb 0.27 in6.9 mm 0.00 in0.0 mm 0.27 in6.9 mm
03:26 AM 77.4°F25.2°C 71.8°F22.1°C 83% 1.1 mph W1.8 kmh W 2.7 mph4.3 kmh 29.96 in1014.6 mb 0.27 in6.9 mm 0.00 in0.0 mm 0.27 in6.9 mm
03:24 AM 77.2°F25.1°C 71.6°F22.0°C 83% 1.7 mph SSW2.7 kmh SSW 15.0 mph24.1 kmh 29.96 in1014.6 mb 0.27 in6.9 mm 0.00 in0.0 mm 0.27 in6.9 mm
03:23 AM 77.2°F25.1°C 71.6°F22.0°C 83% Calm Calm 15.0 mph24.1 kmh 29.96 in1014.6 mb 0.27 in6.9 mm 0.00 in0.0 mm 0.27 in6.9 mm
03:22 AM 77.2°F25.1°C 71.6°F22.0°C 83% 1.1 mph SW1.8 kmh SW 15.0 mph24.1 kmh 29.96 in1014.6 mb 0.27 in6.9 mm 0.00 in0.0 mm 0.27 in6.9 mm
03:21 AM 77.2°F25.1°C 71.6°F22.0°C 83% Calm Calm 15.0 mph24.1 kmh 29.96 in1014.6 mb 0.27 in6.9 mm 0.00 in0.0 mm 0.27 in6.9 mm
03:20 AM 77.0°F25.0°C 71.4°F21.9°C 83% Calm Calm 15.0 mph24.1 kmh 29.96 in1014.6 mb 0.27 in6.9 mm 0.00 in0.0 mm 0.27 in6.9 mm
03:19 AM 77.0°F25.0°C 71.4°F21.9°C 83% Calm Calm 15.0 mph24.1 kmh 29.96 in1014.6 mb 0.27 in6.9 mm 0.00 in0.0 mm 0.27 in6.9 mm
03:18 AM 77.0°F25.0°C 71.4°F21.9°C 83% Calm Calm 15.0 mph24.1 kmh 29.96 in1014.6 mb 0.27 in6.9 mm 0.00 in0.0 mm 0.27 in6.9 mm
03:17 AM 77.0°F25.0°C 71.8°F22.1°C 84% Calm Calm 15.0 mph24.1 kmh 29.96 in1014.6 mb 0.27 in6.9 mm 0.00 in0.0 mm 0.27 in6.9 mm
03:16 AM 77.0°F25.0°C 71.8°F22.1°C 84% 1.1 mph SW1.8 kmh SW 15.0 mph24.1 kmh 29.96 in1014.6 mb 0.27 in6.9 mm 0.00 in0.0 mm 0.27 in6.9 mm
03:15 AM 77.0°F25.0°C 71.8°F22.1°C 84% Calm Calm 6.8 mph10.9 kmh 29.96 in1014.6 mb 0.27 in6.9 mm 0.00 in0.0 mm 0.27 in6.9 mm
03:14 AM 77.0°F25.0°C 71.8°F22.1°C 84% Calm Calm 6.8 mph10.9 kmh 29.96 in1014.6 mb 0.27 in6.9 mm 0.00 in0.0 mm 0.27 in6.9 mm
03:13 AM 77.0°F25.0°C 71.8°F22.1°C 84% Calm Calm 6.8 mph10.9 kmh 29.96 in1014.6 mb 0.27 in6.9 mm 0.00 in0.0 mm 0.27 in6.9 mm
03:12 AM 77.0°F25.0°C 71.8°F22.1°C 84% Calm Calm 6.8 mph10.9 kmh 29.96 in1014.6 mb 0.27 in6.9 mm 0.00 in0.0 mm 0.27 in6.9 mm
03:11 AM 77.0°F25.0°C 71.8°F22.1°C 84% Calm Calm 6.8 mph10.9 kmh 29.96 in1014.6 mb 0.27 in6.9 mm 0.00 in0.0 mm 0.27 in6.9 mm
03:10 AM 77.0°F25.0°C 71.8°F22.1°C 84% Calm Calm 6.8 mph10.9 kmh 29.96 in1014.6 mb 0.27 in6.9 mm 0.00 in0.0 mm 0.27 in6.9 mm
03:09 AM 77.0°F25.0°C 71.8°F22.1°C 84% Calm Calm 6.8 mph10.9 kmh 29.96 in1014.6 mb 0.27 in6.9 mm 0.00 in0.0 mm 0.27 in6.9 mm
03:08 AM 77.0°F25.0°C 71.8°F22.1°C 84% 1.1 mph SSW1.8 kmh SSW 6.8 mph10.9 kmh 29.96 in1014.6 mb 0.27 in6.9 mm 0.00 in0.0 mm 0.27 in6.9 mm
03:07 AM 76.8°F24.9°C 71.6°F22.0°C 84% Calm Calm 6.8 mph10.9 kmh 29.96 in1014.6 mb 0.27 in6.9 mm 0.00 in0.0 mm 0.27 in6.9 mm
03:06 AM 76.8°F24.9°C 71.6°F22.0°C 84% 6.8 mph SW10.9 kmh SW 6.8 mph10.9 kmh 29.96 in1014.6 mb 0.27 in6.9 mm 0.00 in0.0 mm 0.27 in6.9 mm
03:05 AM 76.8°F24.9°C 71.6°F22.0°C 84% 1.1 mph W1.8 kmh W 2.7 mph4.3 kmh 29.96 in1014.6 mb 0.27 in6.9 mm 0.00 in0.0 mm 0.27 in6.9 mm
03:04 AM 76.8°F24.9°C 71.6°F22.0°C 84% Calm Calm 2.7 mph4.3 kmh 29.96 in1014.6 mb 0.27 in6.9 mm 0.00 in0.0 mm 0.27 in6.9 mm
03:03 AM 76.8°F24.9°C 71.6°F22.0°C 84% Calm Calm 2.7 mph4.3 kmh 29.96 in1014.6 mb 0.27 in6.9 mm 6.00 in152.4 mm 0.27 in6.9 mm
03:02 AM 76.8°F24.9°C 71.6°F22.0°C 84% Calm Calm 2.7 mph4.3 kmh 29.96 in1014.6 mb 0.17 in4.3 mm 0.00 in0.0 mm 0.17 in4.3 mm
03:01 AM 76.8°F24.9°C 71.6°F22.0°C 84% Calm Calm 2.7 mph4.3 kmh 29.96 in1014.6 mb 0.17 in4.3 mm 0.00 in0.0 mm 0.17 in4.3 mm
03:00 AM 76.8°F24.9°C 71.6°F22.0°C 84% Calm Calm 2.7 mph4.3 kmh 29.96 in1014.6 mb 0.17 in4.3 mm 0.00 in0.0 mm 0.17 in4.3 mm
02:59 AM 76.8°F24.9°C 71.6°F22.0°C 84% 2.7 mph SW4.3 kmh SW 2.7 mph4.3 kmh 29.96 in1014.6 mb 0.17 in4.3 mm 0.00 in0.0 mm 0.17 in4.3 mm
02:58 AM 76.8°F24.9°C 71.6°F22.0°C 84% Calm Calm 2.2 mph3.5 kmh 29.96 in1014.6 mb 0.17 in4.3 mm 0.00 in0.0 mm 0.17 in4.3 mm
02:57 AM 76.6°F24.8°C 71.4°F21.9°C 84% Calm Calm 2.2 mph3.5 kmh 29.96 in1014.6 mb 0.17 in4.3 mm 0.00 in0.0 mm 0.17 in4.3 mm
02:56 AM 76.6°F24.8°C 71.4°F21.9°C 84% Calm Calm 2.2 mph3.5 kmh 29.96 in1014.6 mb 0.17 in4.3 mm 0.00 in0.0 mm 0.17 in4.3 mm
02:55 AM 76.6°F24.8°C 71.4°F21.9°C 84% 1.1 mph SSW1.8 kmh SSW 2.2 mph3.5 kmh 29.96 in1014.6 mb 0.17 in4.3 mm 0.00 in0.0 mm 0.17 in4.3 mm
02:54 AM 76.6°F24.8°C 71.4°F21.9°C 84% Calm Calm 2.2 mph3.5 kmh 29.96 in1014.6 mb 0.17 in4.3 mm 0.00 in0.0 mm 0.17 in4.3 mm
02:53 AM 76.5°F24.7°C 71.3°F21.8°C 84% 1.1 mph SSE1.8 kmh SSE 2.2 mph3.5 kmh 29.96 in1014.6 mb 0.17 in4.3 mm 0.00 in0.0 mm 0.17 in4.3 mm
02:52 AM 76.5°F24.7°C 71.3°F21.8°C 84% 1.7 mph S2.7 kmh S 2.2 mph3.5 kmh 29.96 in1014.6 mb 0.17 in4.3 mm 0.00 in0.0 mm 0.17 in4.3 mm
02:51 AM 76.5°F24.7°C 70.9°F21.6°C 83% Calm Calm 2.2 mph3.5 kmh 29.96 in1014.6 mb 0.17 in4.3 mm 0.00 in0.0 mm 0.17 in4.3 mm
02:50 AM 76.5°F24.7°C 70.9°F21.6°C 83% Calm Calm 2.2 mph3.5 kmh 29.96 in1014.6 mb 0.17 in4.3 mm 0.00 in0.0 mm 0.17 in4.3 mm
02:49 AM 76.5°F24.7°C 70.9°F21.6°C 83% Calm Calm 1.7 mph2.7 kmh 29.96 in1014.6 mb 0.17 in4.3 mm 5.40 in137.2 mm 0.17 in4.3 mm
02:48 AM 76.5°F24.7°C 70.9°F21.6°C 83% Calm Calm 1.7 mph2.7 kmh 29.96 in1014.6 mb 0.08 in2.0 mm 0.00 in0.0 mm 0.08 in2.0 mm
02:47 AM 76.5°F24.7°C 70.9°F21.6°C 83% Calm Calm 1.7 mph2.7 kmh 29.96 in1014.6 mb 0.08 in2.0 mm 0.00 in0.0 mm 0.08 in2.0 mm
02:46 AM 76.5°F24.7°C 70.9°F21.6°C 83% Calm Calm 10.9 mph17.5 kmh 29.96 in1014.6 mb 0.08 in2.0 mm 0.00 in0.0 mm 0.08 in2.0 mm
02:45 AM 76.5°F24.7°C 70.9°F21.6°C 83% Calm Calm 10.9 mph17.5 kmh 29.96 in1014.6 mb 0.08 in2.0 mm 0.00 in0.0 mm 0.08 in2.0 mm
02:44 AM 76.5°F24.7°C 70.9°F21.6°C 83% Calm Calm 10.9 mph17.5 kmh 29.96 in1014.6 mb 0.08 in2.0 mm 0.00 in0.0 mm 0.08 in2.0 mm
02:43 AM 76.3°F24.6°C 70.4°F21.3°C 82% Calm Calm 10.9 mph17.5 kmh 29.96 in1014.6 mb 0.08 in2.0 mm 0.00 in0.0 mm 0.08 in2.0 mm
02:42 AM 76.3°F24.6°C 70.4°F21.3°C 82% Calm Calm 10.9 mph17.5 kmh 29.96 in1014.6 mb 0.08 in2.0 mm 0.00 in0.0 mm 0.08 in2.0 mm
02:41 AM 76.3°F24.6°C 70.4°F21.3°C 82% 1.1 mph ESE1.8 kmh ESE 10.9 mph17.5 kmh 29.96 in1014.6 mb 0.08 in2.0 mm 0.00 in0.0 mm 0.08 in2.0 mm
02:40 AM 76.3°F24.6°C 70.4°F21.3°C 82% Calm Calm 10.9 mph17.5 kmh 29.96 in1014.6 mb 0.08 in2.0 mm 0.00 in0.0 mm 0.08 in2.0 mm
02:39 AM 76.3°F24.6°C 70.4°F21.3°C 82% Calm Calm 10.9 mph17.5 kmh 29.96 in1014.6 mb 0.08 in2.0 mm 0.00 in0.0 mm 0.08 in2.0 mm
02:38 AM 76.3°F24.6°C 70.4°F21.3°C 82% Calm Calm 10.9 mph17.5 kmh 29.96 in1014.6 mb 0.08 in2.0 mm 0.00 in0.0 mm 0.08 in2.0 mm
02:37 AM 76.3°F24.6°C 70.4°F21.3°C 82% Calm Calm 10.9 mph17.5 kmh 29.96 in1014.6 mb 0.08 in2.0 mm 0.00 in0.0 mm 0.08 in2.0 mm
02:36 AM 76.3°F24.6°C 70.4°F21.3°C 82% Calm Calm 1.1 mph1.8 kmh 29.96 in1014.6 mb 0.08 in2.0 mm 0.00 in0.0 mm 0.08 in2.0 mm
02:35 AM 76.3°F24.6°C 70.4°F21.3°C 82% Calm Calm 1.1 mph1.8 kmh 29.96 in1014.6 mb 0.08 in2.0 mm 0.00 in0.0 mm 0.08 in2.0 mm
02:34 AM 76.3°F24.6°C 70.4°F21.3°C 82% Calm Calm 1.1 mph1.8 kmh 29.96 in1014.6 mb 0.08 in2.0 mm 0.00 in0.0 mm 0.08 in2.0 mm
02:33 AM 76.3°F24.6°C 70.4°F21.3°C 82% Calm Calm 1.1 mph1.8 kmh 29.96 in1014.6 mb 0.08 in2.0 mm 4.80 in121.9 mm 0.08 in2.0 mm
02:32 AM 76.3°F24.6°C 70.0°F21.1°C 81% 1.1 mph SSE1.8 kmh SSE 1.1 mph1.8 kmh 29.96 in1014.6 mb 0.00 in0.0 mm 0.00 in0.0 mm 0.00 in0.0 mm
02:31 AM 76.3°F24.6°C 70.0°F21.1°C 81% Calm Calm 1.1 mph1.8 kmh 29.96 in1014.6 mb 0.00 in0.0 mm 0.00 in0.0 mm 0.00 in0.0 mm
02:30 AM 76.3°F24.6°C 70.0°F21.1°C 81% Calm Calm 1.1 mph1.8 kmh 29.96 in1014.6 mb 0.00 in0.0 mm 0.00 in0.0 mm 0.00 in0.0 mm
02:29 AM 76.3°F24.6°C 70.0°F21.1°C 81% Calm Calm 1.1 mph1.8 kmh 29.96 in1014.6 mb 0.00 in0.0 mm 0.00 in0.0 mm 0.00 in0.0 mm
02:28 AM 76.3°F24.6°C 70.0°F21.1°C 81% 1.1 mph S1.8 kmh S 1.1 mph1.8 kmh 29.96 in1014.6 mb 0.00 in0.0 mm 0.00 in0.0 mm 0.00 in0.0 mm
02:27 AM 76.3°F24.6°C 70.0°F21.1°C 81% 1.1 mph E1.8 kmh E 1.1 mph1.8 kmh 29.96 in1014.6 mb 0.00 in0.0 mm 0.00 in0.0 mm 0.00 in0.0 mm
02:26 AM 76.3°F24.6°C 70.0°F21.1°C 81% Calm Calm -- 29.95 in1014.2 mb 0.00 in0.0 mm 0.00 in0.0 mm 0.00 in0.0 mm
02:25 AM 76.3°F24.6°C 70.0°F21.1°C 81% Calm Calm -- 29.95 in1014.2 mb 0.00 in0.0 mm 0.00 in0.0 mm 0.00 in0.0 mm
02:24 AM 76.3°F24.6°C 70.0°F21.1°C 81% Calm Calm -- 29.95 in1014.2 mb 0.00 in0.0 mm 0.00 in0.0 mm 0.00 in0.0 mm
02:23 AM 76.3°F24.6°C 70.0°F21.1°C 81% Calm Calm -- 29.95 in1014.2 mb 0.00 in0.0 mm 0.00 in0.0 mm 0.00 in0.0 mm
02:22 AM 76.3°F24.6°C 70.0°F21.1°C 81% Calm Calm 1.7 mph2.7 kmh 29.95 in1014.2 mb 0.00 in0.0 mm 0.00 in0.0 mm 0.00 in0.0 mm
02:21 AM 76.3°F24.6°C 70.0°F21.1°C 81% Calm Calm 1.7 mph2.7 kmh 29.95 in1014.2 mb 0.00 in0.0 mm 0.00 in0.0 mm 0.00 in0.0 mm
02:20 AM 76.3°F24.6°C 70.0°F21.1°C 81% Calm Calm 1.7 mph2.7 kmh 29.95 in1014.2 mb 0.00 in0.0 mm 0.00 in0.0 mm 0.00 in0.0 mm
02:19 AM 76.3°F24.6°C 70.0°F21.1°C 81% Calm Calm 2.2 mph3.5 kmh 29.95 in1014.2 mb 0.00 in0.0 mm 0.00 in0.0 mm 0.00 in0.0 mm
02:18 AM 76.3°F24.6°C 70.0°F21.1°C 81% Calm Calm 2.2 mph3.5 kmh 29.95 in1014.2 mb 0.00 in0.0 mm 0.00 in0.0 mm 0.00 in0.0 mm
02:17 AM 76.3°F24.6°C 70.0°F21.1°C 81% Calm Calm 2.2 mph3.5 kmh 29.95 in1014.2 mb 0.00 in0.0 mm 0.00 in0.0 mm 0.00 in0.0 mm
02:16 AM 76.3°F24.6°C 70.0°F21.1°C 81% Calm Calm 2.2 mph3.5 kmh 29.95 in1014.2 mb 0.00 in0.0 mm 0.00 in0.0 mm 0.00 in0.0 mm
02:15 AM 76.3°F24.6°C 70.0°F21.1°C 81% Calm Calm 2.2 mph3.5 kmh 29.95 in1014.2 mb 0.00 in0.0 mm 0.00 in0.0 mm 0.00 in0.0 mm
02:14 AM 76.3°F24.6°C 70.0°F21.1°C 81% Calm Calm 2.2 mph3.5 kmh 29.95 in1014.2 mb 0.00 in0.0 mm 0.00 in0.0 mm 0.00 in0.0 mm
02:13 AM 76.3°F24.6°C 70.0°F21.1°C 81% 1.7 mph NW2.7 kmh NW 2.2 mph3.5 kmh 29.97 in1014.9 mb 0.00 in0.0 mm 0.00 in0.0 mm 0.00 in0.0 mm
02:12 AM 76.3°F24.6°C 70.0°F21.1°C 81% Calm Calm 2.2 mph3.5 kmh 29.97 in1014.9 mb 0.00 in0.0 mm 0.00 in0.0 mm 0.00 in0.0 mm
02:11 AM 76.3°F24.6°C 70.0°F21.1°C 81% Calm Calm 2.2 mph3.5 kmh 29.97 in1014.9 mb 0.00 in0.0 mm 0.00 in0.0 mm 0.00 in0.0 mm
02:10 AM 76.3°F24.6°C 70.0°F21.1°C 81% Calm Calm 2.2 mph3.5 kmh 29.97 in1014.9 mb 0.00 in0.0 mm 0.00 in0.0 mm 0.00 in0.0 mm
02:09 AM 76.3°F24.6°C 70.0°F21.1°C 81% 2.2 mph W3.5 kmh W 2.2 mph3.5 kmh 29.97 in1014.9 mb 0.00 in0.0 mm 0.00 in0.0 mm 0.00 in0.0 mm
02:08 AM 76.1°F24.5°C 69.8°F21.0°C 81% 1.7 mph SW2.7 kmh SW 1.7 mph2.7 kmh 29.97 in1014.9 mb 0.00 in0.0 mm 0.00 in0.0 mm 0.00 in0.0 mm
02:07 AM 76.1°F24.5°C 69.8°F21.0°C 81% Calm Calm 2.7 mph4.3 kmh 29.97 in1014.9 mb 0.00 in0.0 mm 0.00 in0.0 mm 0.00 in0.0 mm
02:06 AM 76.1°F24.5°C 69.8°F21.0°C 81% Calm Calm 2.7 mph4.3 kmh 29.97 in1014.9 mb 0.00 in0.0 mm 0.00 in0.0 mm 0.00 in0.0 mm
02:05 AM 76.1°F24.5°C 69.8°F21.0°C 81% Calm Calm 2.7 mph4.3 kmh 29.97 in1014.9 mb 0.00 in0.0 mm 0.00 in0.0 mm 0.00 in0.0 mm
02:04 AM 76.1°F24.5°C 69.8°F21.0°C 81% Calm Calm 2.7 mph4.3 kmh 29.97 in1014.9 mb 0.00 in0.0 mm 0.00 in0.0 mm 0.00 in0.0 mm
02:03 AM 76.1°F24.5°C 69.8°F21.0°C 81% Calm Calm 2.7 mph4.3 kmh 29.97 in1014.9 mb 0.00 in0.0 mm 0.00 in0.0 mm 0.00 in0.0 mm
02:02 AM 76.1°F24.5°C 69.8°F21.0°C 81% Calm Calm 2.7 mph4.3 kmh 29.97 in1014.9 mb 0.00 in0.0 mm 0.00 in0.0 mm 0.00 in0.0 mm
02:01 AM 76.1°F24.5°C 69.8°F21.0°C 81% Calm Calm 2.7 mph4.3 kmh 29.97 in1014.9 mb 0.00 in0.0 mm 0.00 in0.0 mm 0.00 in0.0 mm
02:00 AM 76.1°F24.5°C 69.8°F21.0°C 81% 1.1 mph W1.8 kmh W 2.7 mph4.3 kmh 29.97 in1014.9 mb 0.00 in0.0 mm 0.00 in0.0 mm 0.00 in0.0 mm
01:59 AM 76.1°F24.5°C 69.8°F21.0°C 81% Calm Calm 2.7 mph4.3 kmh 29.97 in1014.9 mb 0.00 in0.0 mm 0.00 in0.0 mm 0.00 in0.0 mm
01:58 AM 76.1°F24.5°C 69.8°F21.0°C 81% 2.2 mph W3.5 kmh W 2.7 mph4.3 kmh 29.97 in1014.9 mb 0.00 in0.0 mm 0.00 in0.0 mm 0.00 in0.0 mm
01:57 AM 76.1°F24.5°C 69.8°F21.0°C 81% 2.7 mph SW4.3 kmh SW 2.7 mph4.3 kmh 29.97 in1014.9 mb 0.00 in0.0 mm 0.00 in0.0 mm 0.00 in0.0 mm
01:56 AM 76.1°F24.5°C 69.8°F21.0°C 81% 1.7 mph W2.7 kmh W 2.2 mph3.5 kmh 29.97 in1014.9 mb 0.00 in0.0 mm 0.00 in0.0 mm 0.00 in0.0 mm
01:55 AM 75.9°F24.4°C 70.0°F21.1°C 82% Calm Calm 2.2 mph3.5 kmh 29.97 in1014.9 mb 0.00 in0.0 mm 0.00 in0.0 mm 0.00 in0.0 mm
01:54 AM 75.9°F24.4°C 70.0°F21.1°C 82% Calm Calm 2.2 mph3.5 kmh 29.97 in1014.9 mb 0.00 in0.0 mm 0.00 in0.0 mm 0.00 in0.0 mm
01:53 AM 75.7°F24.3°C 69.8°F21.0°C 82% Calm Calm 2.2 mph3.5 kmh 29.97 in1014.9 mb 0.00 in0.0 mm 0.00 in0.0 mm 0.00 in0.0 mm
01:52 AM 75.7°F24.3°C 69.8°F21.0°C 82% 2.2 mph SSW3.5 kmh SSW 2.7 mph4.3 kmh 29.97 in1014.9 mb 0.00 in0.0 mm 0.00 in0.0 mm 0.00 in0.0 mm
01:51 AM 75.7°F24.3°C 69.8°F21.0°C 82% Calm Calm 2.7 mph4.3 kmh 29.97 in1014.9 mb 0.00 in0.0 mm 0.00 in0.0 mm 0.00 in0.0 mm
01:50 AM 75.7°F24.3°C 69.8°F21.0°C 82% Calm Calm 2.7 mph4.3 kmh 29.97 in1014.9 mb 0.00 in0.0 mm 0.00 in0.0 mm 0.00 in0.0 mm
01:49 AM 75.7°F24.3°C 69.8°F21.0°C 82% Calm Calm 2.7 mph4.3 kmh 29.97 in1014.9 mb 0.00 in0.0 mm 0.00 in0.0 mm 0.00 in0.0 mm
01:48 AM 75.7°F24.3°C 69.8°F21.0°C 82% Calm Calm 2.7 mph4.3 kmh 29.97 in1014.9 mb 0.00 in0.0 mm 0.00 in0.0 mm 0.00 in0.0 mm
01:47 AM 75.6°F24.2°C 69.7°F20.9°C 82% 2.2 mph SSW3.5 kmh SSW 2.7 mph4.3 kmh 29.97 in1014.9 mb 0.00 in0.0 mm 0.00 in0.0 mm 0.00 in0.0 mm
01:46 AM 75.6°F24.2°C 69.7°F20.9°C 82% Calm Calm 2.7 mph4.3 kmh 29.97 in1014.9 mb 0.00 in0.0 mm 0.00 in0.0 mm 0.00 in0.0 mm
01:45 AM 75.6°F24.2°C 69.7°F20.9°C 82% Calm Calm 2.7 mph4.3 kmh 29.97 in1014.9 mb 0.00 in0.0 mm 0.00 in0.0 mm 0.00 in0.0 mm
01:44 AM 75.6°F24.2°C 69.7°F20.9°C 82% Calm Calm 2.7 mph4.3 kmh 29.97 in1014.9 mb 0.00 in0.0 mm 0.00 in0.0 mm 0.00 in0.0 mm
01:43 AM 75.6°F24.2°C 69.7°F20.9°C 82% Calm Calm 2.7 mph4.3 kmh 29.97 in1014.9 mb 0.00 in0.0 mm 0.00 in0.0 mm 0.00 in0.0 mm
01:42 AM 75.6°F24.2°C 69.7°F20.9°C 82% Calm Calm 2.2 mph3.5 kmh 29.97 in1014.9 mb 0.00 in0.0 mm 0.00 in0.0 mm 0.00 in0.0 mm
01:41 AM 75.6°F24.2°C 69.7°F20.9°C 82% 1.1 mph W1.8 kmh W 2.2 mph3.5 kmh 29.97 in1014.9 mb 0.00 in0.0 mm 0.00 in0.0 mm 0.00 in0.0 mm
01:40 AM 75.6°F24.2°C 69.7°F20.9°C 82% Calm Calm 2.2 mph3.5 kmh 29.97 in1014.9 mb 0.00 in0.0 mm 0.00 in0.0 mm 0.00 in0.0 mm
01:39 AM 75.6°F24.2°C 69.7°F20.9°C 82% Calm Calm 2.2 mph3.5 kmh 29.97 in1014.9 mb 0.00 in0.0 mm 0.00 in0.0 mm 0.00 in0.0 mm
01:38 AM 75.6°F24.2°C 69.3°F20.7°C 81% Calm Calm 2.2 mph3.5 kmh 29.97 in1014.9 mb 0.00 in0.0 mm 0.00 in0.0 mm 0.00 in0.0 mm
01:37 AM 75.6°F24.2°C 69.3°F20.7°C 81% Calm Calm 2.2 mph3.5 kmh 29.97 in1014.9 mb 0.00 in0.0 mm 0.00 in0.0 mm 0.00 in0.0 mm
01:36 AM 75.6°F24.2°C 69.3°F20.7°C 81% Calm Calm 2.2 mph3.5 kmh 29.97 in1014.9 mb 0.00 in0.0 mm 0.00 in0.0 mm 0.00 in0.0 mm
01:35 AM 75.4°F24.1°C 69.2°F20.7°C 81% Calm Calm 2.2 mph3.5 kmh 29.97 in1014.9 mb 0.00 in0.0 mm 0.00 in0.0 mm 0.00 in0.0 mm
01:34 AM 75.4°F24.1°C 69.2°F20.7°C 81% 1.1 mph S1.8 kmh S 2.2 mph3.5 kmh 29.97 in1014.9 mb 0.00 in0.0 mm 0.00 in0.0 mm 0.00 in0.0 mm
01:33 AM 75.4°F24.1°C 69.2°F20.7°C 81% 1.1 mph W1.8 kmh W 2.2 mph3.5 kmh 29.97 in1014.9 mb 0.00 in0.0 mm 0.00 in0.0 mm 0.00 in0.0 mm
01:32 AM 75.4°F24.1°C 69.2°F20.7°C 81% Calm Calm 2.7 mph4.3 kmh 29.97 in1014.9 mb 0.00 in0.0 mm 0.00 in0.0 mm 0.00 in0.0 mm
01:31 AM 75.4°F24.1°C 69.2°F20.7°C 81% Calm Calm 2.7 mph4.3 kmh 29.97 in1014.9 mb 0.00 in0.0 mm 0.00 in0.0 mm 0.00 in0.0 mm
01:30 AM 75.4°F24.1°C 69.2°F20.7°C 81% Calm Calm 2.7 mph4.3 kmh 29.97 in1014.9 mb 0.00 in0.0 mm 0.00 in0.0 mm 0.00 in0.0 mm
01:29 AM 75.4°F24.1°C 69.2°F20.7°C 81% Calm Calm 2.7 mph4.3 kmh 29.97 in1014.9 mb 0.00 in0.0 mm 0.00 in0.0 mm 0.00 in0.0 mm
01:28 AM 75.2°F24.0°C 69.0°F20.6°C 81% Calm Calm 2.7 mph4.3 kmh 29.97 in1014.9 mb 0.00 in0.0 mm 0.00 in0.0 mm 0.00 in0.0 mm
01:27 AM 75.2°F24.0°C 68.6°F20.3°C 80% Calm Calm 2.7 mph4.3 kmh 29.97 in1014.9 mb 0.00 in0.0 mm 0.00 in0.0 mm 0.00 in0.0 mm
01:26 AM 75.2°F24.0°C 68.6°F20.3°C 80% Calm Calm 2.7 mph4.3 kmh 29.98 in1015.2 mb 0.00 in0.0 mm 0.00 in0.0 mm 0.00 in0.0 mm
01:25 AM 75.2°F24.0°C 68.6°F20.3°C 80% Calm Calm 2.7 mph4.3 kmh 29.98 in1015.2 mb 0.00 in0.0 mm 0.00 in0.0 mm 0.00 in0.0 mm
01:24 AM 75.2°F24.0°C 68.6°F20.3°C 80% Calm Calm 4.2 mph6.8 kmh 29.98 in1015.2 mb 0.00 in0.0 mm 0.00 in0.0 mm 0.00 in0.0 mm
01:23 AM 75.2°F24.0°C 68.6°F20.3°C 80% 1.1 mph NW1.8 kmh NW 4.2 mph6.8 kmh 29.98 in1015.2 mb 0.00 in0.0 mm 0.00 in0.0 mm 0.00 in0.0 mm
01:22 AM 75.0°F23.9°C 68.0°F20.0°C 79% 1.1 mph SSW1.8 kmh SSW 4.2 mph6.8 kmh 29.98 in1015.2 mb 0.00 in0.0 mm 0.00 in0.0 mm 0.00 in0.0 mm
01:21 AM 75.0°F23.9°C 68.0°F20.0°C 79% Calm Calm 4.2 mph6.8 kmh 29.98 in1015.2 mb 0.00 in0.0 mm 0.00 in0.0 mm 0.00 in0.0 mm
01:20 AM 75.0°F23.9°C 68.0°F20.0°C 79% Calm Calm 4.2 mph6.8 kmh 29.98 in1015.2 mb 0.00 in0.0 mm 0.00 in0.0 mm 0.00 in0.0 mm
01:19 AM 75.0°F23.9°C 68.0°F20.0°C 79% Calm Calm 4.2 mph6.8 kmh 29.98 in1015.2 mb 0.00 in0.0 mm 0.00 in0.0 mm 0.00 in0.0 mm
01:18 AM 75.0°F23.9°C 68.0°F20.0°C 79% Calm Calm 4.2 mph6.8 kmh 29.98 in1015.2 mb 0.00 in0.0 mm 0.00 in0.0 mm 0.00 in0.0 mm
01:17 AM 75.0°F23.9°C 68.0°F20.0°C 79% 1.1 mph SSW1.8 kmh SSW 4.2 mph6.8 kmh 29.98 in1015.2 mb 0.00 in0.0 mm 0.00 in0.0 mm 0.00 in0.0 mm
01:16 AM 75.0°F23.9°C 68.0°F20.0°C 79% Calm Calm 4.2 mph6.8 kmh 29.98 in1015.2 mb 0.00 in0.0 mm 0.00 in0.0 mm 0.00 in0.0 mm
01:15 AM 75.0°F23.9°C 66.1°F18.9°C 74% 1.7 mph W2.7 kmh W 4.2 mph6.8 kmh 29.98 in1015.2 mb 0.00 in0.0 mm 0.00 in0.0 mm 0.00 in0.0 mm
01:14 AM 74.8°F23.8°C 67.8°F19.9°C 79% Calm Calm 2.2 mph3.5 kmh 29.98 in1015.2 mb 0.00 in0.0 mm 0.00 in0.0 mm 0.00 in0.0 mm
01:13 AM 74.7°F23.7°C 67.7°F19.8°C 79% Calm Calm 2.2 mph3.5 kmh 29.98 in1015.2 mb 0.00 in0.0 mm 0.00 in0.0 mm 0.00 in0.0 mm
01:12 AM 74.7°F23.7°C 67.7°F19.8°C 79% Calm Calm 2.2 mph3.5 kmh 29.98 in1015.2 mb 0.00 in0.0 mm 0.00 in0.0 mm 0.00 in0.0 mm
01:11 AM 74.7°F23.7°C 67.7°F19.8°C 79% Calm Calm 2.2 mph3.5 kmh 29.98 in1015.2 mb 0.00 in0.0 mm 0.00 in0.0 mm 0.00 in0.0 mm
01:10 AM 74.7°F23.7°C 67.7°F19.8°C 79% Calm Calm 2.2 mph3.5 kmh 29.98 in1015.2 mb 0.00 in0.0 mm 0.00 in0.0 mm 0.00 in0.0 mm
01:09 AM 74.7°F23.7°C 65.8°F18.8°C 74% Calm Calm 2.2 mph3.5 kmh 29.98 in1015.2 mb 0.00 in0.0 mm 0.00 in0.0 mm 0.00 in0.0 mm
01:08 AM 74.7°F23.7°C 67.7°F19.8°C 79% Calm Calm 2.2 mph3.5 kmh 29.98 in1015.2 mb 0.00 in0.0 mm 0.00 in0.0 mm 0.00 in0.0 mm
01:07 AM 74.5°F23.6°C 67.5°F19.7°C 79% Calm Calm 2.2 mph3.5 kmh 29.98 in1015.2 mb 0.00 in0.0 mm 0.00 in0.0 mm 0.00 in0.0 mm
01:06 AM 74.3°F23.5°C 67.4°F19.7°C 79% Calm Calm -- 29.98 in1015.2 mb 0.00 in0.0 mm 0.00 in0.0 mm 0.00 in0.0 mm
01:05 AM 74.3°F23.5°C 67.4°F19.7°C 79% Calm Calm -- 29.98 in1015.2 mb 0.00 in0.0 mm 0.00 in0.0 mm 0.00 in0.0 mm
01:04 AM 74.3°F23.5°C 67.4°F19.7°C 79% Calm Calm -- 29.98 in1015.2 mb 0.00 in0.0 mm 0.00 in0.0 mm 0.00 in0.0 mm
01:03 AM 74.3°F23.5°C 67.4°F19.7°C 79% Calm Calm -- 29.98 in1015.2 mb 0.00 in0.0 mm 0.00 in0.0 mm 0.00 in0.0 mm
01:02 AM 74.5°F23.6°C 67.2°F19.6°C 78% Calm Calm -- 29.98 in1015.2 mb 0.00 in0.0 mm 0.00 in0.0 mm 0.00 in0.0 mm
01:01 AM 74.5°F23.6°C 67.2°F19.6°C 78% Calm Calm -- 29.98 in1015.2 mb 0.00 in0.0 mm 0.00 in0.0 mm 0.00 in0.0 mm
01:00 AM 74.5°F23.6°C 67.2°F19.6°C 78% Calm Calm -- 29.98 in1015.2 mb 0.00 in0.0 mm 0.00 in0.0 mm 0.00 in0.0 mm
12:59 AM 74.5°F23.6°C 67.2°F19.6°C 78% Calm Calm -- 29.98 in1015.2 mb 0.00 in0.0 mm 0.00 in0.0 mm 0.00 in0.0 mm
12:58 AM 74.5°F23.6°C 67.2°F19.6°C 78% Calm Calm -- 29.98 in1015.2 mb 0.00 in0.0 mm 0.00 in0.0 mm 0.00 in0.0 mm
12:57 AM 74.5°F23.6°C 67.2°F19.6°C 78% Calm Calm -- 29.98 in1015.2 mb 0.00 in0.0 mm 0.00 in0.0 mm 0.00 in0.0 mm
12:56 AM 74.7°F23.7°C 67.4°F19.7°C 78% Calm Calm -- 29.98 in1015.2 mb 0.00 in0.0 mm 0.00 in0.0 mm 0.00 in0.0 mm
12:55 AM 74.7°F23.7°C 67.4°F19.7°C 78% Calm Calm -- 29.98 in1015.2 mb 0.00 in0.0 mm 0.00 in0.0 mm 0.00 in0.0 mm
12:54 AM 74.7°F23.7°C 67.4°F19.7°C 78% Calm Calm -- 29.98 in1015.2 mb 0.00 in0.0 mm 0.00 in0.0 mm 0.00 in0.0 mm
12:53 AM 74.7°F23.7°C 67.4°F19.7°C 78% Calm Calm -- 29.98 in1015.2 mb 0.00 in0.0 mm 0.00 in0.0 mm 0.00 in0.0 mm
12:52 AM 74.8°F23.8°C 67.5°F19.7°C 78% Calm Calm -- 29.98 in1015.2 mb 0.00 in0.0 mm 0.00 in0.0 mm 0.00 in0.0 mm
12:51 AM 74.8°F23.8°C 67.5°F19.7°C 78% Calm Calm -- 29.98 in1015.2 mb 0.00 in0.0 mm 0.00 in0.0 mm 0.00 in0.0 mm
12:50 AM 74.8°F23.8°C 67.5°F19.7°C 78% Calm Calm -- 29.98 in1015.2 mb 0.00 in0.0 mm 0.00 in0.0 mm 0.00 in0.0 mm
12:49 AM 74.8°F23.8°C 67.1°F19.5°C 77% Calm Calm -- 29.98 in1015.2 mb 0.00 in0.0 mm 0.00 in0.0 mm 0.00 in0.0 mm
12:48 AM 74.8°F23.8°C 67.1°F19.5°C 77% Calm Calm -- 29.98 in1015.2 mb 0.00 in0.0 mm 0.00 in0.0 mm 0.00 in0.0 mm
12:47 AM 74.8°F23.8°C 67.1°F19.5°C 77% Calm Calm -- 29.98 in1015.2 mb 0.00 in0.0 mm 0.00 in0.0 mm 0.00 in0.0 mm
12:46 AM 74.8°F23.8°C 67.1°F19.5°C 77% Calm Calm -- 29.98 in1015.2 mb 0.00 in0.0 mm 0.00 in0.0 mm 0.00 in0.0 mm
12:45 AM 74.8°F23.8°C 67.1°F19.5°C 77% Calm Calm -- 29.98 in1015.2 mb 0.00 in0.0 mm 0.00 in0.0 mm 0.00 in0.0 mm
12:44 AM 74.8°F23.8°C 67.1°F19.5°C 77% Calm Calm -- 29.98 in1015.2 mb 0.00 in0.0 mm 0.00 in0.0 mm 0.00 in0.0 mm
12:43 AM 74.8°F23.8°C 67.1°F19.5°C 77% Calm Calm -- 29.98 in1015.2 mb 0.00 in0.0 mm 0.00 in0.0 mm 0.00 in0.0 mm
12:42 AM 74.8°F23.8°C 67.1°F19.5°C 77% Calm Calm -- 29.98 in1015.2 mb 0.00 in0.0 mm 0.00 in0.0 mm 0.00 in0.0 mm
12:41 AM 74.8°F23.8°C 66.7°F19.3°C 76% Calm Calm -- 29.98 in1015.2 mb 0.00 in0.0 mm 0.00 in0.0 mm 0.00 in0.0 mm
12:40 AM 74.8°F23.8°C 66.7°F19.3°C 76% Calm Calm -- 29.98 in1015.2 mb 0.00 in0.0 mm 0.00 in0.0 mm 0.00 in0.0 mm
12:39 AM 74.8°F23.8°C 66.7°F19.3°C 76% Calm Calm -- 29.98 in1015.2 mb 0.00 in0.0 mm 0.00 in0.0 mm 0.00 in0.0 mm
12:38 AM 75.0°F23.9°C 66.1°F18.9°C 74% Calm Calm -- 29.98 in1015.2 mb 0.00 in0.0 mm 0.00 in0.0 mm 0.00 in0.0 mm
12:37 AM 75.0°F23.9°C 66.9°F19.4°C 76% Calm Calm -- 29.98 in1015.2 mb 0.00 in0.0 mm 0.00 in0.0 mm 0.00 in0.0 mm
12:36 AM 75.0°F23.9°C 66.9°F19.4°C 76% Calm Calm -- 29.98 in1015.2 mb 0.00 in0.0 mm 0.00 in0.0 mm 0.00 in0.0 mm
12:35 AM 75.2°F24.0°C 67.1°F19.5°C 76% Calm Calm --